[[{"header":{"parameterUnit":"m.s-1","parameterCategory":1,"la1":30.6,"la2":29.2853,"lo1":-89.7004,"lo2":-87.6739,"dy":0.0162,"dx":0.0183,"nx":112,"ny":82,"refTime":"2024-07-16T12:00:00:Z","depth":0,"parameterNumber":2,"parameterNumberName":"U-component_of_WINDS"},"data":[0.0,0.0,0.0,0.0,0.0,0.0,0.0,0.0,0.0,0.0,0.0,0.0,0.0,0.0,0.0,0.0,0.0,0.0,0.0,0.0,0.0,0.0,0.0,0.0,0.0,0.0,0.0,0.0,0.0,0.0,0.0,0.0,0.0,0.0,0.0,0.0,0.0,0.0,0.0,0.0,0.0,0.0,0.0,0.0,0.0,0.0,0.0,0.0,0.0,0.0,0.0,0.0,0.0,0.0,0.0,0.0,0.0,0.0,0.0,0.0,0.0,0.0,0.0,0.0,0.0,0.0,0.0,0.0,0.0,0.0,0.0,0.0,0.0,0.0,0.0,0.0,0.0,0.0,0.0,0.0,0.0,0.0,0.0,0.0,0.0,0.0,0.0,0.0,0.0,0.0,0.0,-3.9638,-4.272,-4.458,-4.4691,-4.4599,-4.2231,-3.6817,0.0,0.0,0.0,0.0,0.0,0.0,0.0,0.0,0.0,0.0,0.0,0.0,0.0,0.0,0.0,0.0,0.0,0.0,0.0,0.0,0.0,0.0,0.0,0.0,0.0,0.0,0.0,0.0,0.0,0.0,0.0,0.0,0.0,0.0,0.0,0.0,0.0,0.0,0.0,0.0,0.0,0.0,0.0,0.0,0.0,0.0,0.0,0.0,0.0,0.0,0.0,0.0,0.0,0.0,0.0,0.0,0.0,0.0,0.0,0.0,0.0,0.0,0.0,0.0,0.0,0.0,0.0,0.0,0.0,0.0,0.0,0.0,0.0,0.0,0.0,0.0,0.0,0.0,0.0,0.0,0.0,0.0,0.0,0.0,0.0,0.0,0.0,0.0,0.0,0.0,0.0,0.0,0.0,0.0,0.0,0.0,0.0,0.0,0.0,0.0,0.0,0.0,0.0,0.0,-3.6209,-4.3137,-4.3756,-4.3956,-4.4636,-4.4066,-4.1846,-3.7584,0.0,0.0,0.0,0.0,0.0,0.0,0.0,0.0,0.0,0.0,0.0,0.0,0.0,0.0,0.0,0.0,0.0,0.0,0.0,0.0,0.0,0.0,0.0,0.0,0.0,0.0,0.0,0.0,0.0,0.0,0.0,0.0,0.0,0.0,0.0,0.0,0.0,0.0,0.0,0.0,0.0,0.0,0.0,0.0,0.0,0.0,0.0,0.0,0.0,0.0,0.0,0.0,0.0,0.0,0.0,0.0,0.0,0.0,0.0,0.0,0.0,0.0,0.0,0.0,0.0,0.0,0.0,0.0,0.0,0.0,0.0,0.0,0.0,0.0,0.0,0.0,0.0,0.0,0.0,0.0,0.0,0.0,0.0,0.0,0.0,0.0,0.0,0.0,0.0,0.0,0.0,0.0,0.0,0.0,0.0,0.0,0.0,0.0,0.0,0.0,0.0,0.0,0.0,-3.483,-3.7778,-4.3443,-4.3718,-4.3662,-4.4011,-4.3314,-4.113,-3.7107,-3.4523,0.0,0.0,0.0,0.0,0.0,0.0,0.0,0.0,0.0,0.0,0.0,0.0,0.0,0.0,0.0,0.0,0.0,0.0,0.0,0.0,0.0,0.0,0.0,0.0,0.0,0.0,0.0,0.0,0.0,0.0,0.0,0.0,0.0,0.0,0.0,0.0,0.0,0.0,0.0,0.0,0.0,0.0,0.0,0.0,0.0,0.0,0.0,0.0,0.0,0.0,0.0,0.0,0.0,0.0,0.0,0.0,0.0,0.0,0.0,0.0,0.0,0.0,0.0,0.0,0.0,0.0,0.0,0.0,0.0,0.0,0.0,0.0,0.0,0.0,0.0,0.0,0.0,0.0,0.0,0.0,0.0,0.0,0.0,0.0,0.0,0.0,0.0,0.0,0.0,0.0,0.0,0.0,0.0,0.0,0.0,0.0,0.0,0.0,0.0,0.0,0.0,0.0,-3.7594,-3.9677,-4.3129,-4.3515,-4.3515,-4.3515,-4.2231,-3.9882,-3.6229,-3.3316,0.0,0.0,0.0,0.0,0.0,0.0,0.0,0.0,0.0,0.0,0.0,0.0,0.0,0.0,0.0,0.0,0.0,0.0,0.0,0.0,0.0,0.0,0.0,0.0,0.0,0.0,0.0,0.0,0.0,0.0,0.0,0.0,0.0,0.0,0.0,0.0,0.0,0.0,0.0,0.0,0.0,0.0,0.0,0.0,0.0,0.0,0.0,0.0,0.0,0.0,0.0,0.0,0.0,0.0,0.0,0.0,0.0,0.0,0.0,0.0,0.0,0.0,0.0,0.0,0.0,0.0,0.0,0.0,0.0,0.0,0.0,0.0,0.0,0.0,0.0,0.0,0.0,0.0,0.0,0.0,0.0,0.0,0.0,0.0,0.0,0.0,0.0,0.0,0.0,0.0,0.0,0.0,0.0,0.0,0.0,0.0,0.0,0.0,0.0,0.0,0.0,0.0,-3.7875,-4.1534,-4.3296,-4.3515,-4.3515,-4.3515,-4.0708,-3.7848,-3.5261,-3.1427,0.0,0.0,0.0,0.0,0.0,0.0,0.0,0.0,0.0,0.0,0.0,0.0,0.0,0.0,0.0,0.0,0.0,0.0,0.0,0.0,0.0,0.0,0.0,0.0,0.0,0.0,0.0,0.0,0.0,0.0,0.0,0.0,0.0,0.0,0.0,0.0,0.0,0.0,0.0,0.0,0.0,0.0,0.0,0.0,0.0,0.0,0.0,0.0,0.0,0.0,0.0,0.0,0.0,0.0,0.0,0.0,0.0,0.0,0.0,0.0,0.0,0.0,0.0,0.0,0.0,0.0,0.0,0.0,0.0,0.0,0.0,0.0,0.0,0.0,0.0,0.0,0.0,0.0,0.0,0.0,0.0,0.0,0.0,0.0,0.0,0.0,0.0,0.0,0.0,0.0,0.0,0.0,0.0,0.0,0.0,0.0,0.0,0.0,0.0,0.0,0.0,0.0,-3.5952,-3.9294,0.0,-4.3185,-4.3313,-4.2782,-4.0708,-3.7955,-3.4472,0.0,0.0,0.0,0.0,0.0,0.0,0.0,0.0,0.0,0.0,0.0,0.0,0.0,0.0,0.0,0.0,0.0,0.0,0.0,0.0,0.0,0.0,0.0,0.0,0.0,0.0,0.0,0.0,0.0,0.0,0.0,0.0,0.0,0.0,0.0,0.0,0.0,0.0,0.0,0.0,0.0,0.0,0.0,0.0,0.0,0.0,0.0,0.0,0.0,0.0,0.0,0.0,0.0,0.0,0.0,0.0,0.0,0.0,0.0,0.0,0.0,0.0,0.0,0.0,0.0,0.0,0.0,0.0,0.0,0.0,0.0,0.0,0.0,0.0,0.0,0.0,0.0,0.0,0.0,0.0,0.0,0.0,0.0,0.0,0.0,0.0,0.0,0.0,0.0,0.0,0.0,0.0,0.0,0.0,0.0,0.0,0.0,0.0,0.0,0.0,0.0,0.0,-3.1991,-3.5164,-3.8303,0.0,-4.2415,-4.2525,-4.1974,-3.9717,-3.6945,-3.3642,0.0,0.0,0.0,0.0,0.0,0.0,0.0,0.0,0.0,0.0,0.0,0.0,0.0,0.0,0.0,0.0,0.0,0.0,0.0,0.0,0.0,0.0,0.0,0.0,0.0,0.0,0.0,0.0,0.0,0.0,0.0,0.0,0.0,0.0,0.0,0.0,0.0,0.0,0.0,0.0,0.0,0.0,0.0,0.0,0.0,0.0,0.0,0.0,0.0,0.0,0.0,0.0,0.0,0.0,0.0,0.0,0.0,0.0,0.0,0.0,0.0,0.0,0.0,0.0,0.0,0.0,0.0,0.0,0.0,0.0,0.0,0.0,0.0,0.0,0.0,0.0,0.0,0.0,0.0,0.0,0.0,0.0,0.0,0.0,0.0,0.0,0.0,0.0,0.0,0.0,0.0,0.0,0.0,0.0,0.0,0.0,0.0,0.0,0.0,0.0,0.0,0.0,-3.1926,-3.5996,-3.9297,-4.0912,-4.1095,-4.1095,-4.1077,-3.7371,-3.4325,0.0,0.0,0.0,0.0,0.0,0.0,0.0,0.0,0.0,0.0,0.0,0.0,0.0,0.0,0.0,0.0,0.0,0.0,0.0,0.0,0.0,0.0,0.0,0.0,0.0,0.0,0.0,0.0,0.0,0.0,0.0,0.0,0.0,0.0,0.0,0.0,0.0,0.0,0.0,0.0,0.0,0.0,0.0,0.0,0.0,0.0,0.0,0.0,0.0,0.0,0.0,0.0,0.0,0.0,0.0,0.0,0.0,0.0,0.0,0.0,0.0,0.0,0.0,0.0,0.0,0.0,0.0,0.0,0.0,0.0,0.0,0.0,0.0,0.0,0.0,0.0,0.0,0.0,0.0,0.0,0.0,0.0,0.0,0.0,0.0,0.0,0.0,0.0,0.0,0.0,0.0,0.0,0.0,0.0,0.0,0.0,0.0,0.0,0.0,0.0,0.0,0.0,0.0,-3.1365,-3.527,-3.8469,-4.0084,-4.0763,-4.0873,-4.0304,-3.8102,-3.533,-3.1971,0.0,0.0,0.0,0.0,0.0,0.0,0.0,0.0,0.0,0.0,0.0,0.0,0.0,0.0,0.0,0.0,0.0,0.0,0.0,0.0,0.0,0.0,0.0,0.0,0.0,0.0,0.0,0.0,0.0,0.0,0.0,0.0,0.0,0.0,0.0,0.0,0.0,0.0,0.0,0.0,0.0,0.0,0.0,0.0,0.0,0.0,0.0,0.0,0.0,0.0,0.0,0.0,0.0,0.0,0.0,0.0,0.0,0.0,0.0,0.0,0.0,0.0,0.0,0.0,0.0,0.0,0.0,0.0,0.0,0.0,0.0,0.0,0.0,0.0,0.0,0.0,0.0,0.0,0.0,0.0,0.0,0.0,0.0,0.0,0.0,0.0,0.0,0.0,0.0,0.0,0.0,0.0,0.0,0.0,0.0,0.0,0.0,0.0,0.0,0.0,0.0,0.0,-3.1132,-3.4683,-3.7639,-3.9239,-3.9863,-3.9955,-3.946,-3.7936,-3.5418,-3.1635,0.0,0.0,0.0,0.0,0.0,0.0,0.0,0.0,0.0,0.0,0.0,0.0,0.0,0.0,0.0,0.0,0.0,0.0,0.0,0.0,0.0,0.0,0.0,0.0,0.0,0.0,0.0,0.0,0.0,0.0,0.0,0.0,0.0,0.0,0.0,0.0,0.0,0.0,0.0,0.0,0.0,0.0,0.0,0.0,0.0,0.0,0.0,0.0,0.0,0.0,0.0,0.0,0.0,0.0,0.0,0.0,0.0,0.0,0.0,0.0,0.0,0.0,0.0,0.0,0.0,0.0,0.0,0.0,0.0,0.0,0.0,0.0,0.0,0.0,0.0,0.0,0.0,0.0,0.0,0.0,0.0,0.0,0.0,0.0,0.0,0.0,0.0,0.0,0.0,0.0,0.0,0.0,0.0,0.0,0.0,0.0,0.0,0.0,0.0,0.0,0.0,0.0,-3.1132,-3.4279,-3.6909,-3.8542,-3.8707,-3.8707,-3.8707,-3.7221,-3.4963,-3.1819,0.0,0.0,0.0,0.0,0.0,0.0,0.0,0.0,0.0,0.0,0.0,0.0,0.0,0.0,0.0,0.0,0.0,0.0,0.0,0.0,0.0,0.0,0.0,0.0,0.0,0.0,0.0,0.0,0.0,0.0,0.0,0.0,0.0,0.0,0.0,0.0,0.0,0.0,0.0,0.0,0.0,0.0,0.0,0.0,0.0,0.0,0.0,0.0,0.0,0.0,0.0,0.0,0.0,0.0,0.0,0.0,0.0,0.0,0.0,0.0,-3.2358,0.0,0.0,0.0,0.0,0.0,0.0,0.0,0.0,0.0,0.0,0.0,0.0,0.0,0.0,0.0,0.0,0.0,0.0,0.0,0.0,0.0,0.0,0.0,0.0,0.0,0.0,0.0,0.0,0.0,0.0,0.0,0.0,0.0,0.0,0.0,0.0,0.0,0.0,0.0,0.0,0.0,-3.1132,-3.4279,-3.6909,-3.8542,-3.8707,-3.8707,-3.8707,-3.7221,-3.544,-3.3421,0.0,0.0,0.0,0.0,0.0,0.0,0.0,0.0,0.0,0.0,0.0,0.0,0.0,0.0,0.0,0.0,0.0,0.0,0.0,0.0,0.0,0.0,0.0,0.0,0.0,0.0,0.0,0.0,0.0,0.0,0.0,0.0,0.0,0.0,0.0,0.0,0.0,0.0,0.0,0.0,0.0,0.0,0.0,0.0,0.0,0.0,0.0,0.0,0.0,0.0,0.0,0.0,0.0,0.0,0.0,0.0,0.0,0.0,0.0,0.0,0.0,-3.4146,0.0,0.0,0.0,0.0,0.0,0.0,0.0,0.0,0.0,0.0,0.0,0.0,0.0,0.0,0.0,0.0,0.0,0.0,0.0,0.0,0.0,0.0,0.0,0.0,0.0,0.0,0.0,0.0,0.0,0.0,0.0,0.0,0.0,0.0,0.0,0.0,0.0,0.0,0.0,0.0,-3.1651,-3.4504,-3.6909,-3.8542,-3.8358,-3.812,-3.812,-3.6615,-3.4968,-3.333,-3.0889,0.0,0.0,0.0,0.0,0.0,0.0,0.0,0.0,0.0,0.0,0.0,0.0,0.0,0.0,0.0,0.0,0.0,0.0,0.0,0.0,0.0,0.0,0.0,0.0,0.0,0.0,0.0,0.0,0.0,0.0,0.0,0.0,0.0,0.0,0.0,0.0,0.0,0.0,0.0,0.0,0.0,0.0,0.0,0.0,0.0,0.0,0.0,0.0,0.0,0.0,0.0,0.0,0.0,0.0,-4.0624,-4.0058,-4.0599,-4.0133,-3.8787,-3.7092,-3.6916,-3.7721,0.0,0.0,0.0,0.0,0.0,0.0,0.0,0.0,0.0,0.0,0.0,0.0,0.0,0.0,0.0,0.0,0.0,0.0,0.0,0.0,0.0,0.0,0.0,0.0,0.0,-3.1541,-3.1603,0.0,0.0,0.0,0.0,0.0,0.0,0.0,0.0,0.0,0.0,0.0,0.0,-3.2206,-3.478,-3.6853,-3.8322,-3.7915,-3.7437,-3.7309,-3.5881,-3.4435,-3.3096,-3.199,-3.021,0.0,0.0,0.0,0.0,0.0,0.0,0.0,0.0,0.0,0.0,0.0,0.0,0.0,0.0,0.0,0.0,0.0,0.0,0.0,0.0,0.0,0.0,0.0,0.0,0.0,0.0,0.0,0.0,0.0,0.0,0.0,0.0,-2.8629,-3.0152,0.0,0.0,0.0,0.0,0.0,0.0,0.0,0.0,0.0,0.0,0.0,0.0,0.0,0.0,-3.972,-4.109,-4.2187,-4.3032,-4.4437,-4.4802,-4.4189,-4.365,-4.2739,-4.1528,-4.0572,0.0,-3.8111,-3.7542,0.0,0.0,0.0,0.0,0.0,0.0,0.0,0.0,0.0,0.0,0.0,0.0,0.0,0.0,0.0,0.0,0.0,0.0,0.0,0.0,0.0,0.0,-3.4904,-3.4105,-3.4063,-3.4111,0.0,-3.0238,-2.7225,-2.7349,0.0,0.0,0.0,0.0,0.0,0.0,0.0,0.0,-3.2232,-3.478,-3.6652,-3.7566,-3.7566,-3.7217,-3.6505,-3.5555,-3.4912,-3.4711,-3.2614,-3.1213,-3.0791,-2.8771,0.0,0.0,0.0,0.0,0.0,0.0,0.0,0.0,0.0,0.0,0.0,0.0,0.0,0.0,0.0,0.0,0.0,0.0,0.0,0.0,0.0,0.0,0.0,0.0,0.0,0.0,0.0,0.0,0.0,-2.859,-3.0346,-3.1051,-3.2117,-3.2302,0.0,0.0,0.0,0.0,0.0,0.0,0.0,0.0,0.0,-3.9991,-4.0388,-4.1018,-4.1957,-4.3283,-4.4168,-4.4668,-4.5963,-4.6088,-4.5168,-4.4832,-4.3545,-4.1569,-4.1228,-4.0374,-3.9243,-3.8861,-3.8044,-3.6941,0.0,0.0,0.0,0.0,0.0,-3.6097,-3.7551,0.0,0.0,0.0,0.0,0.0,0.0,0.0,0.0,0.0,0.0,0.0,0.0,0.0,0.0,-3.578,-3.5828,-3.583,-3.5797,-3.3431,-3.0992,0.0,-2.9194,-2.8114,-2.6204,0.0,0.0,0.0,0.0,0.0,-3.2978,-3.4633,-3.5899,-3.6725,-3.6395,-3.5954,-3.5591,-3.4816,-3.4325,-3.4325,-3.333,-3.254,-3.21,-3.0191,-2.8549,0.0,0.0,0.0,0.0,0.0,0.0,0.0,0.0,0.0,0.0,0.0,0.0,0.0,0.0,0.0,0.0,0.0,0.0,0.0,0.0,0.0,0.0,0.0,0.0,0.0,0.0,0.0,0.0,-3.0515,-3.226,-3.2884,-3.485,-3.5406,0.0,0.0,0.0,0.0,0.0,0.0,-3.9021,-3.9787,-4.0836,-4.2249,-4.2863,-4.3306,-4.3545,-4.4777,-4.5422,-4.5592,-4.6664,-4.6623,-4.5569,-4.5235,-4.3662,-4.1194,-4.1193,-4.0661,-3.9809,-3.9726,-3.9597,-3.9337,-3.8688,-3.8065,-3.7661,-3.8872,-3.9074,-3.9019,-4.1071,-4.1514,-4.0789,-3.8455,0.0,-3.6327,-3.2301,0.0,0.0,0.0,0.0,-3.2782,-3.4288,0.0,-3.6361,-3.6638,-3.6831,-3.6894,-3.6564,-3.5588,-3.4235,0.0,-3.1732,-3.059,-2.7826,0.0,0.0,0.0,0.0,-3.17,-3.356,-3.4491,-3.5261,-3.5899,-3.5389,-3.4931,-3.4711,-3.4137,-3.3807,-3.3807,-3.3605,-3.322,-3.2619,-3.1054,-2.9824,-2.9023,0.0,0.0,0.0,0.0,0.0,0.0,0.0,0.0,0.0,0.0,0.0,0.0,0.0,0.0,0.0,0.0,0.0,0.0,0.0,0.0,0.0,0.0,0.0,0.0,0.0,0.0,0.0,0.0,0.0,-3.6905,-3.7988,0.0,0.0,0.0,0.0,-3.8274,-3.9517,-4.0724,-4.1753,-4.2328,-4.3102,-4.4135,-4.4196,-4.4319,-4.4535,-4.5735,-4.6324,-4.6336,-4.7056,-4.7012,-4.6295,-4.5037,-4.3261,-4.122,-4.1201,-4.0366,-3.9056,-4.0092,-4.053,-4.0547,-4.0813,-4.0893,-4.0857,-4.0948,-4.1425,-4.1889,-4.0709,-4.0781,-4.1265,-4.061,-3.9378,-3.7819,-3.6162,-3.5083,0.0,0.0,-3.5792,-3.6127,-3.7718,-3.8157,-3.7855,-3.6703,-3.6959,-3.7137,-3.592,-3.56,-3.5295,0.0,-3.3207,-3.2198,-3.2091,0.0,-3.0255,-3.1044,-3.1286,-3.1959,-3.3587,-3.4491,-3.5023,-3.5059,-3.5041,-3.4692,-3.3935,-3.3825,-3.3807,-3.3807,-3.3091,-3.2638,-3.2601,-3.1054,-2.9824,-2.9023,-2.6594,0.0,0.0,0.0,0.0,0.0,0.0,0.0,0.0,0.0,0.0,0.0,0.0,0.0,0.0,0.0,0.0,0.0,0.0,0.0,0.0,0.0,0.0,0.0,0.0,0.0,0.0,0.0,0.0,-3.7535,-3.9013,0.0,0.0,-3.9715,-4.0596,-4.1218,-4.2174,-4.2967,-4.3436,-4.3655,-4.3988,-4.448,-4.4487,-4.4531,-4.4598,-4.5808,-4.6216,-4.5815,-4.6887,-4.6842,-4.579,-4.4758,-4.3367,-4.1803,-4.1304,-4.0486,-3.9643,-4.0879,-4.1382,-4.1452,-4.2323,-4.2635,-4.2635,-4.2635,-4.261,-4.2486,-4.1973,-4.174,-4.1484,-4.042,-3.9368,-3.8409,-3.7892,-3.7787,-3.7919,-3.826,-3.7957,-3.7671,-3.8256,-3.8006,-3.7392,-3.6588,-3.6873,-3.7096,-3.6297,-3.6395,-3.6556,-3.6297,-3.5151,-3.3941,-3.3016,-3.2868,-3.2646,-3.1997,-3.2491,-3.3146,-3.3733,-3.4045,-3.4215,-3.4215,-3.4215,-3.4119,-3.3825,-3.333,-3.3036,-3.3036,-3.2265,-3.1825,-3.1825,-3.0779,-2.9824,-2.9023,-2.7145,-2.5383,0.0,0.0,0.0,0.0,0.0,0.0,0.0,0.0,0.0,0.0,0.0,0.0,0.0,0.0,0.0,0.0,0.0,0.0,0.0,0.0,0.0,0.0,0.0,0.0,0.0,0.0,-3.7808,-3.8887,-4.0406,-4.1142,-4.0528,-4.1682,-4.2709,-4.3255,-4.3799,-4.4182,-4.4379,-4.4404,-4.4475,-4.4598,-4.4615,-4.4615,-4.4615,-4.5597,-4.589,-4.5511,-4.6353,-4.6156,-4.5041,-4.4254,-4.2953,-4.1342,-4.1105,-4.0426,-3.9661,-4.1151,-4.181,-4.1898,-4.3032,-4.3515,-4.3515,-4.3515,-4.316,-4.2635,-4.2223,-4.1703,-4.1126,-4.04,-3.9834,-3.9455,-3.9564,-3.9886,-4.0258,-4.0448,-3.975,-3.8977,-3.9246,-3.851,-3.7578,-3.7039,-3.7192,-3.7304,-3.6783,-3.696,-3.7209,-3.7209,-3.6519,-3.5591,-3.4498,-3.4791,-3.4708,-3.3338,-3.3739,-3.4119,-3.3825,-3.3807,-3.3807,-3.3807,-3.3807,-3.3807,-3.3807,-3.3073,-3.2601,-3.2601,-3.1586,-3.0999,-3.0999,-2.9953,-2.9145,-2.8613,-2.7016,-2.5805,-2.4997,0.0,0.0,0.0,0.0,0.0,0.0,0.0,0.0,0.0,0.0,0.0,0.0,0.0,0.0,0.0,0.0,0.0,0.0,0.0,0.0,0.0,0.0,0.0,-3.7118,-3.8242,-3.9662,-4.1245,-4.2294,-4.2873,-4.282,-4.3507,-4.4067,-4.4292,-4.431,-4.4396,-4.4592,-4.4615,-4.4615,-4.4615,-4.4626,-4.4626,-4.4615,-4.5205,-4.5511,-4.5485,-4.5442,-4.5014,-4.4142,-4.3505,-4.1945,-3.9784,-4.0647,-4.0186,-3.9004,-4.1028,-4.1828,-4.1937,-4.3069,-4.3515,-4.3515,-4.3479,-4.3105,-4.248,-4.1291,-4.0528,-4.0179,-4.0726,-4.0903,-4.0999,-4.1338,-4.1466,-4.1596,-4.2186,-4.1185,-4.012,-4.0893,-3.9918,-3.8562,-3.8013,-3.7911,-3.779,-3.7323,-3.7247,-3.7247,-3.7247,-3.7247,-3.7147,-3.68,-3.6722,-3.6309,-3.5209,-3.5004,0.0,-3.3899,-3.3807,-3.3807,-3.3807,-3.3807,-3.3807,-3.3807,-3.3036,-3.2564,-3.2564,-3.1054,-3.0173,-3.021,-2.8705,-2.7871,-2.7842,-2.6311,-2.587,-2.6602,0.0,0.0,0.0,0.0,0.0,0.0,0.0,0.0,0.0,0.0,0.0,0.0,0.0,0.0,0.0,0.0,0.0,0.0,0.0,0.0,0.0,0.0,-3.9816,-3.9755,-4.0312,-4.117,-4.2341,-4.2382,-4.2556,-4.3177,-4.346,-4.3826,-4.4467,-4.4507,-4.4555,-4.4598,-4.4615,-4.4615,-4.4615,-4.5025,-4.5052,-4.4598,-4.5622,-4.5707,-4.4841,-4.4637,-4.4198,-4.3492,-4.2061,-4.1037,-4.0432,-4.0785,-4.0615,-4.0222,-4.1914,-4.2537,-4.2519,-4.3232,-4.3515,-4.3444,-4.305,-4.2284,-4.1291,-4.057,-4.0229,-4.0179,-4.0726,-4.1201,-4.1651,-4.2173,-4.2595,-4.2956,-4.3114,-4.2011,-4.0836,-4.104,-3.9918,-3.8562,-3.8013,-3.82,-3.835,-3.7825,-3.7998,-3.8285,-3.8285,-3.8285,-3.8129,-3.7657,-3.6928,-3.6299,-3.5995,0.0,0.0,-3.3825,-3.3807,-3.3807,-3.3807,-3.3807,-3.3807,-3.3807,-3.2522,-3.1733,0.0,-3.0216,-2.9592,-3.0173,-2.9787,-2.9274,-2.8675,-2.8235,-2.7537,0.0,0.0,0.0,0.0,0.0,0.0,0.0,0.0,0.0,0.0,0.0,0.0,0.0,0.0,0.0,0.0,0.0,0.0,0.0,0.0,0.0,0.0,-4.063,-4.208,-4.2353,-4.218,-4.2356,-4.3258,-4.294,-4.2979,-4.3819,-4.391,-4.4096,-4.4564,-4.4902,-4.5196,-4.546,-4.5768,-4.6086,-4.6375,-4.6152,-4.5821,-4.5487,-4.5589,-4.5117,-4.4064,-4.3884,-4.3032,-4.1515,-4.0498,-3.9818,0.0,-4.002,-4.035,-4.0708,-4.2257,-4.2816,0.0,0.0,0.0,0.0,0.0,-4.1707,-4.081,-4.0286,-4.0254,-4.0521,-4.1087,-4.1686,-4.2284,-4.2865,-4.325,-4.3515,-4.3515,-4.258,-4.1534,-4.1187,-4.0175,-3.903,-3.8391,-3.8481,-3.8611,-3.83,-3.8481,-3.8707,-3.8707,0.0,0.0,-3.8283,-3.7729,-3.7184,-3.6835,-3.5679,-3.4724,0.0,-3.4009,-3.3807,-3.3807,-3.3807,-3.3807,-3.3807,-3.2632,0.0,0.0,0.0,-3.0063,-3.0191,-3.021,0.0,0.0,0.0,0.0,0.0,0.0,0.0,0.0,-3.0779,-3.0999,0.0,0.0,0.0,0.0,0.0,0.0,0.0,0.0,0.0,0.0,0.0,0.0,0.0,0.0,0.0,0.0,-4.3026,-4.4034,-4.4531,-4.3743,-4.3319,-4.3933,-4.3757,-4.3854,-4.453,-4.4615,-4.4632,-4.4733,-4.5399,-4.6122,-4.6794,0.0,0.0,0.0,0.0,-4.6847,-4.6699,-4.536,-4.4217,-4.3306,-4.2984,-4.1515,-3.9095,-3.888,-3.8407,-3.7861,-3.8959,-3.9913,-4.0833,-4.2367,-4.2929,-4.2845,-4.3303,-4.3427,-4.3196,-4.2185,-4.138,0.0,0.0,0.0,0.0,-4.1599,-4.2203,-4.2807,-4.3339,-4.3515,-4.3515,-4.3515,-4.2855,-4.2011,-4.1279,-4.0451,-3.957,-3.8872,-3.8707,-3.8707,-3.8707,-3.8707,-3.8707,-3.8707,-3.8707,-3.8707,-3.8707,-3.8615,-3.8322,-3.7603,-3.6725,0.0,-3.5096,-3.4289,-3.3807,-3.3807,0.0,0.0,-3.3807,-3.3073,-3.2601,-3.2601,-3.1935,-3.1219,-3.0503,-3.0558,-3.0558,-3.0467,-3.0558,-3.1659,-3.3807,-3.3899,-3.4798,-3.634,-3.2614,-3.2082,0.0,0.0,0.0,0.0,0.0,0.0,0.0,0.0,0.0,0.0,0.0,0.0,0.0,0.0,0.0,-4.2597,-4.4679,-4.572,-4.4739,-4.4465,-4.4259,-4.4031,-4.4507,-4.4796,-4.4625,-4.4615,-4.4869,-4.5449,-4.6134,-4.6817,-4.753,-4.8293,0.0,-4.8908,-4.8576,-4.7854,-4.6699,-4.5674,-4.4524,-4.3276,0.0,0.0,-3.9059,-3.7467,-3.7133,-3.789,-3.9495,-4.0607,-4.1463,-4.3108,-4.3599,-4.3357,-4.3444,-4.294,-4.2103,-4.1877,-4.1127,-4.0254,-4.0146,-4.0449,-4.0995,-4.1599,-4.2203,-4.2807,-4.3339,-4.3515,0.0,-4.3515,-4.2451,-4.1297,-4.1132,-4.0029,-3.8891,-3.8744,-3.8707,-3.8707,-3.8707,-3.8707,-3.8707,-3.8707,-3.8707,-3.8707,-3.8707,-3.8157,-3.7676,-3.7529,-3.6229,-3.5188,-3.5023,-3.4289,-3.3807,-3.3807,-3.3807,-3.3807,-3.3807,-3.3073,-3.2601,-3.2601,-3.2454,-3.2289,-3.2142,-3.2761,-3.2797,-3.2142,-3.2779,-3.333,-3.3807,-3.4454,-3.5642,-3.7235,-3.5789,-3.5716,0.0,0.0,0.0,0.0,0.0,0.0,0.0,0.0,0.0,0.0,0.0,-3.6985,-3.8896,0.0,-4.2916,-4.4156,-4.5659,-4.6353,-4.5344,-4.5531,-4.5321,-4.4152,-4.4167,-4.4371,-4.4569,-4.4615,-4.5054,-4.6114,-4.684,-4.7876,-4.9305,-5.0096,-5.0665,-5.1044,-4.9977,-4.8897,-4.7801,-4.5841,-4.4111,-4.2614,-4.0232,-3.859,-3.7618,-3.6105,-3.6027,-3.7109,-3.8832,-4.0309,-4.1608,-4.3129,-4.3496,-4.3105,-4.3105,-4.256,-4.175,-4.1468,-4.0821,-4.0146,-4.0417,-4.0874,-4.1446,-4.2041,-4.2637,-4.316,-4.3427,-4.3515,-4.3515,-4.3515,-4.2635,-4.1625,-4.1187,-4.0212,-3.9203,-3.8799,-3.8707,-3.8707,-3.8707,-3.8707,-3.8707,-3.8707,-3.8707,-3.8707,-3.8707,-3.8377,-3.8102,-3.8102,-3.6707,-3.5646,-3.5646,-3.4578,-3.3807,-3.3807,-3.3807,-3.3807,-3.3807,-3.344,-3.3201,-3.3201,-3.3201,-3.3201,-3.3201,-3.3587,-3.3605,-3.322,-3.3977,-3.4633,-3.5055,-3.5862,-3.689,-3.8083,-3.7679,-3.7716,0.0,0.0,0.0,0.0,0.0,0.0,0.0,0.0,-3.4983,-3.655,-3.84,-4.029,-4.21,-4.3302,-4.4433,-4.5658,-4.6523,-4.6799,-4.6126,-4.6406,-4.6006,-4.4214,-4.3896,-4.4024,-4.4547,-4.4615,-4.5254,-4.6802,-4.7604,-4.8955,-5.1102,-5.1909,-5.2576,-5.3185,-5.1257,-4.9844,-4.9114,-4.5949,-4.3522,-4.1866,-3.9617,-3.7604,-3.5854,-3.4856,-3.5143,-3.6584,-3.8667,-4.0487,-4.2065,-4.3086,-4.3178,-4.2711,-4.2711,-4.2262,-4.1556,-4.1087,-4.0625,-4.0311,-4.0774,-4.138,-4.2041,-4.2539,-4.305,-4.3515,-4.3515,-4.3515,-4.3515,-4.3515,-4.28,-4.1919,-4.126,-4.0396,-3.9496,-3.8854,-3.8707,-3.8707,-3.8707,-3.8707,-3.8707,-3.8707,-3.8707,-3.8707,-3.8707,-3.8707,-3.8707,-3.8707,-3.7459,-3.6468,-3.6321,-3.4963,-3.3972,-3.3825,-3.3807,-3.3807,-3.3807,-3.3807,-3.3807,-3.3807,-3.3807,-3.3807,-3.3807,-3.3807,-3.3807,-3.3807,-3.4582,-3.5426,-3.6303,-3.7107,-3.7915,-3.8707,-3.8707,-3.8707,-2.6662,-2.8528,-3.0496,-3.3069,-3.3604,-3.4759,0.0,0.0,-3.9146,-4.1277,-4.2077,-4.2641,-4.3464,-4.4481,-4.555,-4.6599,-4.7618,-4.7956,-4.6992,-4.6529,-4.573,-4.4276,-4.4796,-4.5075,-4.4637,-4.4615,-4.5448,-4.7538,-4.8353,-4.9719,-5.1872,-5.267,-5.3103,-5.3185,-5.1754,-5.0616,-4.988,-4.6118,-4.3317,-4.1535,-3.8121,-3.596,-3.4815,-3.3755,-3.4763,-3.7552,-4.0825,-4.2819,-4.3714,-4.3557,-4.3178,-4.2711,-4.2711,-4.2,-4.0995,-4.0926,-4.0856,-4.0827,-4.0932,-4.1696,-4.2616,-4.2674,-4.305,-4.3515,-4.3515,-4.3515,-4.3515,-4.3515,-4.2415,-4.1205,-4.1113,-3.9974,-3.8817,-3.8726,-3.8707,-3.8707,-3.8707,-3.8707,-3.8707,-3.8707,-3.8707,-3.8707,-3.8707,-3.8707,-3.8707,-3.8707,-3.7936,-3.7107,-3.6376,-3.5445,-3.4582,-3.388,-3.3807,-3.3807,-3.3807,-3.3807,-3.3807,-3.3807,-3.3807,-3.3807,-3.3807,-3.3807,-3.3807,-3.3807,-3.4582,-3.5426,-3.6303,-3.7107,-3.7915,-3.8707,-3.8707,-3.8707,-3.0158,-3.171,0.0,0.0,-3.6687,-3.8297,-4.0531,-4.1083,-4.1472,-4.2711,-4.3251,-4.3652,-4.4165,-4.4729,-4.551,0.0,-4.78,-4.8399,-4.8088,-4.7352,-4.6546,-4.5753,-4.5462,-4.4945,-4.3986,-4.4344,-4.547,-4.7592,-4.8463,-4.9818,-5.1919,-5.2785,-5.3185,-5.3185,-5.1825,-5.0462,-4.9214,-4.5256,-4.2393,-4.0623,-3.6306,-3.4393,-3.4664,-3.3483,-3.542,-3.981,-4.1848,-4.3419,-4.4527,-4.3816,-4.3178,-4.2711,-4.2711,-4.2183,-4.1424,-4.1424,-4.1201,-4.0995,-4.1743,-4.23,-4.275,-4.305,-4.3322,-4.3515,-4.3515,-4.3515,-4.3515,-4.3515,-4.2341,-4.1095,-4.1095,-3.9918,-3.8707,-3.8707,-3.8707,-3.8707,-3.8707,-3.8707,-3.8707,-3.8707,-3.8707,-3.8707,-3.8707,-3.8707,-3.8707,-3.8707,-3.8025,-3.7382,-3.7052,-3.5844,-3.4692,-3.3899,-3.3807,-3.3807,-3.3807,-3.3807,-3.3807,-3.3807,-3.3807,-3.3807,-3.3807,-3.3807,-3.4027,-3.4491,-3.533,-3.6174,-3.6997,-3.7808,-3.8377,-3.8707,-3.8707,-3.8707,-3.2117,0.0,0.0,-3.6642,-3.8969,-4.092,-4.117,-4.224,-4.3325,-4.3715,-4.4081,-4.4401,-4.4682,-4.4969,-4.5638,-4.7058,-4.7969,-4.8574,-4.8828,-4.8007,-4.7118,-4.6353,-4.5689,-4.486,-4.3834,-4.4577,-4.5814,-4.7557,-4.839,-4.9739,-5.188,-5.2361,-5.2678,-5.2897,-5.1537,-5.0078,-4.8609,-4.4625,-4.1561,-3.9404,-3.495,-3.311,-3.3749,-3.4235,-3.7086,-4.1727,-4.2892,-4.4011,-4.4933,-4.4145,-4.3379,-4.2711,-4.2864,-4.2462,-4.1853,-4.2165,-4.1898,-4.1512,-4.24,-4.2807,-4.2976,-4.3375,-4.3515,-4.3515,-4.3515,-4.3515,-4.3515,-4.3515,-4.2341,-4.1095,-4.1095,-3.9918,-3.8707,-3.8707,-3.8707,-3.8707,-3.8707,-3.8707,-3.8707,-3.8707,-3.8707,-3.8707,-3.8707,-3.8707,-3.8707,-3.8707,-3.8193,-3.7749,-3.7529,-3.6046,-3.4692,-3.3899,-3.3807,-3.3807,-3.3807,-3.3807,-3.3807,-3.3807,-3.3807,-3.3899,-3.4119,-3.3917,-3.4284,-3.5334,-3.5973,-3.6703,-3.7492,-3.8303,-3.8707,-3.8707,-3.8707,-3.8707,0.0,0.0,-3.5865,-3.7546,-3.9873,-4.1989,-4.2835,-4.4068,-4.5039,-4.5047,-4.5055,-4.5074,-4.5085,-4.551,-4.6384,-4.8005,-4.8385,-4.8617,-4.8949,-4.8184,-4.6935,-4.5173,-4.5269,-4.5256,0.0,-4.5637,-4.6719,-4.7629,-4.8258,-4.9597,-5.1883,-5.1351,-5.1324,-5.2118,-5.0752,-4.9555,-4.8609,-4.4598,-4.1031,-3.7834,-3.4415,-3.2296,-3.1452,-3.6364,-4.0055,-4.2666,-4.4366,-4.5072,-4.4987,-4.4766,-4.3889,-4.275,-4.3268,-4.2791,-4.1919,-4.3051,-4.3105,-4.2655,-4.2692,-4.3032,-4.3479,-4.3479,-4.3515,-4.3515,-4.3515,-4.3515,-4.3515,-4.3515,-4.2341,-4.1095,-4.1095,-3.9918,-3.8707,-3.8707,-3.8707,-3.8707,-3.8707,-3.8707,-3.8707,-3.8707,-3.8707,-3.8707,-3.8707,-3.8707,-3.8707,-3.8707,-3.8689,-3.8377,-3.7603,-3.6046,-3.4692,-3.3899,-3.3807,-3.3807,-3.3807,-3.3807,-3.3807,-3.3807,-3.3807,-3.4156,-3.4931,-3.4211,-3.4578,-3.6229,-3.6285,-3.6703,-3.7492,-3.8303,-3.8707,-3.8707,-3.8707,-3.8707,0.0,0.0,-3.8411,-4.0104,-4.2008,-4.3547,-4.3835,-4.4255,-4.4509,-4.4289,-4.3856,-4.3503,-4.3503,-4.4234,-4.5432,-4.7277,-4.8089,-4.891,-5.0086,-4.9219,-4.8234,-4.7631,-4.7433,0.0,0.0,0.0,0.0,-4.7402,-4.728,-4.8115,-5.0337,-5.0354,-5.0642,-5.1426,-4.9905,-4.8265,-4.6567,-4.2602,-3.8967,-3.5635,-3.3712,-3.3308,-3.4296,-3.8113,-4.1485,-4.4329,-4.4393,-4.4864,-4.5514,-4.4362,-4.363,-4.325,-4.3427,-4.3286,-4.2977,-4.3356,-4.3392,-4.3232,-4.3232,-4.3357,-4.3515,-4.3515,-4.3515,-4.3515,-4.3515,-4.3515,-4.3515,-4.3515,-4.2341,-4.1095,-4.1095,-3.9918,-3.8707,-3.8707,-3.8707,-3.8707,-3.8707,-3.8707,-3.8707,-3.8707,-3.8707,-3.8707,-3.8707,-3.8707,-3.8707,-3.8707,-3.8707,-3.8212,-3.6886,-3.6515,-3.5721,-3.4004,-3.3807,-3.3807,-3.3807,-3.3801,-3.3789,-3.3802,-3.451,-3.5053,-3.5321,-3.5418,-3.5973,-3.707,-3.7107,-3.7492,-3.8303,-3.8579,-3.8707,-3.8707,-3.8707,-3.8707,-3.6094,-3.8277,-4.015,-4.1835,-4.3297,-4.422,-4.3932,-4.4085,-4.4062,-4.3254,-4.2721,-4.2426,-4.2453,-4.3075,-4.4292,-4.6457,-4.7504,-4.851,-4.9853,-4.9497,-4.8958,-4.8652,-4.865,-4.8593,0.0,0.0,0.0,-4.757,-4.7446,-4.8048,-4.9631,-4.9636,-4.9757,-5.0195,-4.8923,-4.7062,-4.4617,-4.0849,-3.6878,-3.2746,-3.2643,-3.3876,-3.6272,-3.9428,-4.2455,-4.5176,-4.4636,-4.4827,-4.5388,-4.436,-4.3754,-4.3515,-4.3515,-4.3515,-4.3515,-4.3515,-4.3515,-4.3515,-4.3515,-4.3515,-4.3515,-4.3515,-4.3515,-4.3515,-4.3515,-4.358,-4.359,-4.3181,-4.22,-4.1175,-4.0777,-3.9698,-3.8707,-3.8707,-3.8707,-3.8707,-3.8707,-3.8707,-3.8707,-3.8707,-3.8707,-3.8707,-3.8707,-3.8707,-3.8707,-3.8707,-3.8707,-3.8193,-3.6765,-3.6721,-3.6046,-3.4009,-3.3805,-3.3792,-3.3793,-3.3794,-3.3888,-3.4111,-3.5163,-3.5869,-3.6053,-3.6209,-3.6798,-3.7915,-3.7658,-3.7896,-3.8707,-3.8707,-3.8707,-3.8707,-3.8707,-3.8707,-3.8099,-3.9595,-4.1077,-4.2797,-4.3778,-4.4105,-4.3335,-4.3643,-4.3643,-4.2016,-4.1696,-4.1711,0.0,0.0,-4.3103,-4.5527,-4.6669,-4.7568,-4.8448,-4.9122,-4.9221,0.0,0.0,0.0,0.0,0.0,0.0,-4.8254,0.0,-4.9211,-4.9663,-4.9056,-4.8637,-4.8551,-4.785,-4.5975,-4.2916,-3.9321,-3.4904,-2.9727,-3.162,-3.414,-3.7339,-4.037,-4.3013,-4.5198,-4.5133,-4.4956,-4.4691,-4.4672,-4.4195,-4.3515,-4.3515,-4.3515,-4.3515,-4.3515,-4.3515,-4.3515,-4.3515,-4.3515,-4.3515,-4.3515,-4.3496,-4.3531,-4.3531,-4.3738,-4.3732,-4.2636,-4.1943,-4.1277,-4.0191,-3.9294,-3.8707,-3.8707,-3.8707,-3.8707,-3.8707,-3.8707,-3.8707,-3.8707,-3.8707,-3.8707,-3.8707,-3.8707,-3.8707,-3.8707,-3.8707,-3.8325,-3.7316,-3.6743,-3.5747,-3.3981,-3.3799,-3.382,-3.3878,-3.3891,-3.4189,-3.4946,-3.5914,-3.6677,-3.7166,-3.669,-3.7147,-3.867,-3.7936,-3.7951,-3.8707,-3.8707,-3.8707,-3.8707,-3.8707,-3.8707,-3.9104,-4.1132,-4.3273,-4.4619,-4.4624,-4.4239,-4.4047,-4.2681,-4.1201,-4.0203,-3.9594,-3.8863,-3.768,0.0,0.0,-4.3239,-4.6055,0.0,-4.9353,-5.05,0.0,-5.0962,0.0,-5.1948,-5.2374,-5.164,0.0,0.0,-4.8804,-4.8155,-4.9753,-4.8077,-4.7311,-4.7834,-4.6349,-4.4095,-4.1175,-3.6065,-3.3779,-3.4239,-3.462,-3.6834,-4.0565,-4.2005,-4.3583,-4.5168,-4.4453,-4.4366,-4.4636,-4.4048,-4.3681,-4.3515,-4.3515,-4.3515,-4.3515,-4.3515,-4.3515,-4.3515,-4.3515,-4.3515,-4.3515,-4.3515,-4.3679,-4.3881,-4.3881,-4.3691,-4.3375,-4.2813,-4.169,-4.0527,-4.0028,-3.9294,-3.8707,-3.8707,-3.8707,-3.8707,-3.8707,-3.8707,-3.8707,-3.8707,-3.8707,-3.8707,-3.8707,-3.8707,-3.8707,-3.8707,-3.8707,-3.8594,-3.8335,-3.8173,-3.6988,-3.4109,-3.3809,-3.4132,-3.4986,-3.5069,-3.6198,-3.8845,-3.8855,-3.8618,-3.8307,-3.8157,-3.8285,-3.8689,-3.8505,-3.8505,-3.8707,-3.8707,-3.8707,-3.8707,-3.8707,-3.8707,-4.0925,-4.2796,-4.4569,-4.5398,-4.4932,-4.4008,-4.2893,-4.1274,-3.9476,-3.7568,-3.6906,0.0,-3.55,0.0,0.0,0.0,0.0,0.0,-4.8965,-5.0425,-5.144,0.0,-5.2024,0.0,-5.315,-5.2564,-5.2212,0.0,-4.9939,-4.8898,-4.9839,-4.803,-4.6963,-4.6986,-4.5261,-4.2629,-3.8998,-3.569,-3.4625,-3.5839,-3.7273,-3.9407,-4.2156,-4.34,-4.439,-4.5053,0.0,-4.3938,-4.414,-4.3681,-4.3515,-4.3515,-4.3515,-4.3515,-4.3515,-4.3515,-4.3515,-4.3515,-4.3515,-4.3515,-4.3515,-4.3515,-4.3726,-4.4001,-4.4001,-4.4035,-4.3937,-4.3222,-4.2082,-4.094,-4.0296,-3.9411,-3.8707,-3.8707,-3.8707,-3.8707,-3.8707,-3.8707,-3.8707,-3.8707,-3.8707,-3.8707,-3.8707,-3.8707,-3.8707,-3.8707,-3.8707,-3.8691,-3.8691,-3.8701,-3.8197,-3.6882,-3.5427,-3.48,-3.5448,-3.5503,-3.6616,-3.9248,-3.9775,-3.947,-3.8302,-3.8706,-3.8649,-3.8013,-3.8453,-3.8707,-3.8707,-3.8707,-3.8707,-3.8707,-3.8707,-3.8707,-4.2668,-4.4078,-4.5118,-4.5504,-4.4855,-4.3498,-4.1078,-3.9753,-3.8127,-3.4851,0.0,-3.4353,-3.415,-3.5761,-3.7894,-4.0266,0.0,-4.6254,-4.8048,-4.9789,-5.1005,-5.142,-5.1935,-5.2548,-5.3302,-5.2803,-5.2562,-5.2789,-5.1158,-5.0015,-4.9758,-4.8239,-4.6885,-4.5726,-4.4128,-4.14,-3.7461,-3.7086,-3.6845,-3.666,-3.9726,-4.1782,-4.2989,-4.4478,-4.5053,-4.4802,0.0,0.0,-4.3515,-4.3515,-4.3515,-4.3515,-4.3515,-4.3515,-4.3515,-4.3515,-4.3515,-4.3515,-4.3515,-4.3515,-4.3515,-4.3546,-4.3804,-4.4087,-4.4132,-4.4531,-4.4772,-4.3689,-4.2716,-4.1755,-4.0683,-3.9581,-3.8747,-3.8747,-3.8719,-3.8719,-3.8807,-3.8822,-3.8807,-3.8762,-3.8765,-3.875,-3.8707,-3.8707,-3.8723,-3.8783,-3.8728,-3.8696,-3.8694,-3.8745,-3.9216,-4.0378,-3.7699,-3.574,-3.5514,-3.5492,-3.6113,-3.757,-3.9167,-3.946,-3.8126,-3.8621,-3.8396,-3.7334,-3.8227,-3.8707,-3.8707,-3.8707,-3.8707,-3.8707,-3.8707,-3.8707,-4.214,-4.3473,-4.4818,-4.5448,-4.4432,-4.2829,-4.1008,-3.8858,0.0,0.0,0.0,-3.3116,-3.1794,-3.4687,-3.7611,-3.8688,0.0,0.0,0.0,0.0,-5.1858,0.0,0.0,0.0,0.0,0.0,0.0,0.0,0.0,0.0,-4.8801,-4.7292,-4.5421,-4.3145,-4.1571,-4.0344,-3.9557,-3.935,-3.9949,-4.1401,-4.2568,-4.3693,-4.4767,-4.4959,-4.4664,-4.3991,0.0,0.0,-4.3515,-4.3515,-4.3515,-4.3515,-4.3515,-4.3515,-4.3515,-4.3515,-4.3515,-4.3515,-4.3515,-4.3515,-4.3548,-4.3818,-4.418,-4.4553,-4.4818,-4.4685,-4.4344,-4.3918,-4.2652,-4.1288,-4.0568,-3.9723,-3.9036,-3.9036,-3.8855,-3.8833,-3.9327,-3.9432,-3.9358,-3.909,-3.911,-3.9087,-3.8768,-3.8707,-3.881,-3.9143,-3.891,-3.8707,-3.8688,-3.8995,-3.9527,-4.0409,-3.8737,-3.7007,-3.5618,-3.5504,-3.5614,-3.5924,-3.7041,-3.8394,-3.9956,-3.7965,-3.7325,-3.84,-3.8601,-3.8707,-3.8707,-3.8707,-3.8707,-3.8707,-3.8707,-3.8707,-4.224,-4.3303,-4.4075,-4.4757,-4.3697,-4.1793,-3.9206,0.0,0.0,0.0,0.0,-3.181,-3.1035,0.0,0.0,0.0,0.0,0.0,0.0,0.0,0.0,0.0,0.0,0.0,0.0,0.0,0.0,0.0,0.0,0.0,-4.8132,-4.5794,-4.3711,-4.2093,-4.1309,-4.1113,-4.1552,-4.1914,-4.2703,-4.3976,-4.5058,-4.5629,-4.5712,-4.5562,-4.5035,-4.4234,0.0,0.0,-4.3515,-4.3515,-4.3515,-4.3515,-4.3515,-4.3515,-4.3515,-4.3515,-4.3515,-4.3515,-4.3515,-4.3595,-4.382,-4.4175,-4.4447,-4.4657,-4.5007,-4.5045,-4.4953,-4.4815,-4.3752,-4.2472,-4.1741,-4.0791,-3.9921,-3.9477,-3.9262,-3.9255,-3.9541,-3.9599,-3.9515,-3.9264,-3.9258,-3.9177,-3.8777,-3.895,-3.9141,-3.9002,-3.9083,-3.9168,-3.9169,-3.8923,-3.9175,-4.0377,-3.875,-3.7367,-3.6844,-3.5993,-3.5755,-3.6342,-3.7137,-3.8442,-4.0425,-3.8901,-3.7847,-3.7456,-3.8265,-3.8707,-3.8707,-3.8707,-3.8707,-3.8707,-3.8707,-3.8707,-4.194,-4.2937,-4.3315,-4.38,-4.2861,-4.0913,-3.7594,-3.5674,0.0,0.0,-3.0799,-3.0878,-3.0898,0.0,-3.3626,0.0,0.0,0.0,0.0,0.0,0.0,0.0,0.0,0.0,0.0,0.0,0.0,0.0,0.0,0.0,0.0,-4.4157,-4.2286,-4.1724,-4.2043,-4.2543,-4.3168,-4.4392,-4.5233,-4.5688,-4.705,-4.7152,-4.6124,-4.5973,-4.5369,-4.4415,0.0,0.0,0.0,-4.3515,-4.3515,-4.3515,-4.3515,-4.3515,-4.3515,-4.3515,-4.3548,-4.3614,-4.3614,-4.3836,-4.419,-4.458,-4.4714,-4.4757,-4.5107,-4.54,-4.5594,-4.5594,-4.47,-4.355,-4.2802,-4.1662,-4.0534,-3.9773,-3.9701,-3.9778,-3.9712,-3.9746,-3.974,-3.9512,-3.952,-3.9411,-3.8961,-3.9323,-3.9497,-3.9059,-3.9376,-3.9705,-3.9767,-3.8946,-3.8802,-4.0014,-3.8314,-3.7339,-3.795,-3.6462,-3.5878,-3.6779,-3.757,-3.8743,-4.0429,-3.9802,-3.858,-3.6845,-3.8055,-3.8707,-3.8707,-3.8707,-3.8707,-3.8707,-3.8707,-3.8707,-4.03,-4.1736,-4.2819,-4.2773,-4.2105,-4.0654,-3.7662,0.0,0.0,-3.1404,-3.0795,-3.0767,-3.0879,-3.1574,0.0,0.0,0.0,0.0,0.0,0.0,0.0,0.0,0.0,0.0,0.0,0.0,0.0,0.0,0.0,0.0,0.0,-4.2771,-4.1771,-4.1709,-4.3199,-4.3995,-4.4069,-4.644,-4.7497,-4.7219,-4.8255,-4.7753,-4.592,-4.592,-4.5057,-4.3625,0.0,0.0,0.0,-4.3515,-4.3515,-4.3515,-4.3515,-4.3515,-4.3515,-4.3515,-4.3693,-4.3955,-4.3955,-4.4204,-4.4606,-4.4943,-4.5052,-4.5107,-4.5448,-4.5577,-4.5594,-4.5594,-4.4423,-4.3066,-4.2708,-4.1397,-4.0077,-3.9687,-4.0024,-4.0345,-4.012,-4.025,-4.0336,-4.0072,-4.0224,-4.021,-3.9626,-3.9705,-3.989,-3.9964,-3.9899,-3.9996,-4.0375,-3.9438,-3.8796,-3.8931,-3.762,-3.7096,-3.793,-3.6462,-3.5537,-3.5648,-3.7132,-3.875,-4.0434,-3.938,-3.8681,-3.8477,-3.8623,-3.8707,-3.8707,-3.8707,-3.8707,-3.8707,-3.8707,-3.8707,-3.8659,-4.0037,-4.1035,-4.1659,-4.091,-3.9361,-3.6802,0.0,-3.3315,-3.1308,-3.0793,-3.0744,-3.0878,-3.1066,-3.1912,0.0,-3.4849,-3.688,0.0,0.0,0.0,0.0,0.0,0.0,0.0,0.0,0.0,0.0,0.0,0.0,0.0,-4.305,-4.2668,-4.3182,-4.4446,-4.5554,-4.648,-4.7733,-4.8346,-4.831,-4.8224,-4.7394,-4.5883,-4.5406,-4.4562,-4.3479,0.0,0.0,0.0,-4.316,-4.3214,-4.3515,-4.3515,-4.3515,-4.3513,-4.3726,-4.3896,-4.4028,-4.4294,-4.4606,-4.4919,-4.5063,-4.5232,-4.5429,-4.5559,-4.5594,-4.5594,-4.5594,-4.4739,-4.3684,-4.3059,-4.1632,-4.0302,-4.0166,-4.0328,-4.0473,-4.0364,-4.0414,-4.0473,-4.0364,-4.0424,-4.0417,-4.0185,-4.0205,-4.028,-4.033,-4.03,-4.0315,-4.0481,-3.9508,-3.9058,-3.9758,-3.795,-3.6846,-3.7199,-3.6154,-3.5498,-3.5506,-3.7074,-3.8738,-4.0439,-4.0043,-3.9445,-3.8712,-3.8851,-3.8855,-3.8707,-3.8707,-3.8707,-3.8707,-3.8707,-3.8707,-3.6802,-3.8435,-3.9556,-3.9965,-3.9564,-3.8421,0.0,0.0,-3.293,-3.125,-3.0793,-3.0744,-3.0878,-3.0793,-3.1292,0.0,-3.3519,-3.5301,-4.0127,0.0,0.0,0.0,0.0,0.0,0.0,0.0,0.0,0.0,0.0,0.0,0.0,-4.4637,-4.4487,-4.4644,-4.5904,-4.708,-4.8163,-4.8751,-4.8877,-4.8541,-4.8093,-4.7064,-4.5535,-4.4966,-4.4268,0.0,0.0,0.0,0.0,-4.3087,-4.316,-4.3496,-4.3614,-4.3646,-4.3677,-4.4046,-4.4247,-4.4373,-4.4657,-4.4966,-4.5243,-4.5243,-4.541,-4.5594,-4.5594,-4.5594,-4.5594,-4.5594,-4.4797,-4.3701,-4.2604,-4.142,-4.0496,-4.0496,-4.0496,-4.0496,-4.0496,-4.0496,-4.0496,-4.0496,-4.0496,-4.0496,-4.0496,-4.0496,-4.0496,-4.0496,-4.0496,-4.0419,-4.0189,-3.9219,-3.8769,-3.9315,-3.7565,-3.6538,-3.7038,-3.6108,-3.5491,-3.5506,-3.661,-3.8235,-4.0419,-4.0498,-4.0098,-3.9258,-3.9152,-3.9013,-3.8833,-3.875,-3.8707,-3.8707,-3.8707,-3.8707,-3.4601,-3.7026,-3.8786,-3.7476,-3.8078,-3.8191,0.0,-3.3888,-3.293,-3.125,-3.0793,-3.0744,-3.0878,-3.0793,-3.1292,-3.3105,-3.4067,-3.6038,-4.0213,0.0,0.0,0.0,0.0,0.0,0.0,0.0,0.0,0.0,0.0,0.0,0.0,0.0,-4.7261,-4.5728,-4.7571,-4.8582,-4.8598,-4.9592,-4.9289,-4.7721,-4.8119,-4.7049,-4.4727,-4.4691,0.0,0.0,0.0,0.0,0.0,-4.3479,-4.3479,-4.3531,-4.3865,-4.3982,-4.4028,-4.4447,-4.4793,-4.5085,-4.5096,-4.5312,-4.5586,-4.5586,-4.5594,-4.5594,-4.5594,-4.5594,-4.5594,-4.5594,-4.4393,-4.2701,-4.0977,-4.0516,-4.0496,-4.0496,-4.0496,-4.0496,-4.0496,-4.0496,-4.0496,-4.0496,-4.0496,-4.0496,-4.0496,-4.0496,-4.0496,-4.0496,-4.0496,-4.0208,-3.9419,-3.8546,-3.768,-3.6827,-3.6,-3.6173,-3.7853,-3.6459,-3.5496,-3.5506,-3.5522,-3.703,-4.0354,-4.0498,-4.0501,-4.0473,-3.957,-3.9099,-3.9099,-3.8829,-3.8707,-3.8707,-3.8707,-3.8707,-3.1847,-3.3538,-3.4903,-3.4468,-3.4803,-3.4901,-3.3606,-3.2861,-3.214,-3.1113,-3.0793,-3.0744,-3.0878,-3.0756,-3.1631,-3.4686,-3.5303,0.0,0.0,0.0,0.0,0.0,0.0,0.0,0.0,0.0,0.0,0.0,0.0,0.0,0.0,0.0,-4.7858,-4.7702,-4.8949,-4.9638,-4.9638,-4.9618,-4.9113,-4.81,-4.708,-4.593,-4.4673,-4.4121,0.0,0.0,0.0,0.0,0.0,-4.2503,-4.2791,-4.3531,-4.3865,-4.4001,-4.4073,-4.472,-4.5019,-4.5129,-4.5352,-4.5513,-4.5594,-4.5594,-4.5594,-4.5498,-4.4893,-4.5133,-4.5364,-4.4201,-4.3085,-4.195,-4.0804,-4.0496,-4.0496,-4.0496,-4.0496,-4.0496,-4.0496,-4.0496,-4.0496,-4.0496,-4.0496,-4.0496,-4.0496,-4.0496,-4.0496,-4.0496,-4.0496,-4.0208,-3.94,-3.9073,-3.8546,-3.768,-3.6827,-3.6308,-3.6288,-3.5801,-3.5986,-3.7139,-3.7209,-3.8197,-4.0419,-4.051,-4.0496,-4.0501,-4.0034,-3.9668,-3.9438,-3.9364,-3.9332,-3.9301,-3.8901,-3.8795,-2.9983,-3.1587,-3.2859,-3.2767,-3.3282,-3.3551,-3.256,-3.2168,-3.1799,-3.1054,-3.0837,-3.0794,-3.0879,-3.0807,-3.1652,-3.455,-3.522,0.0,0.0,0.0,0.0,0.0,0.0,0.0,0.0,0.0,0.0,0.0,0.0,0.0,0.0,0.0,-4.8054,-4.8547,-4.9068,-4.9349,-4.9349,-4.9057,-4.8381,-4.7343,-4.6304,-4.5256,-4.4232,0.0,0.0,0.0,0.0,0.0,0.0,-4.2599,-4.2923,-4.3726,-4.4091,-4.4304,-4.4495,-4.5066,-4.5292,-4.5322,-4.5522,-4.5594,-4.5594,-4.5594,-4.5383,-4.5017,-4.4451,-4.447,-4.4374,-4.3008,-4.222,-4.1604,-4.0727,-4.0496,-4.0496,-4.0496,-4.0496,-4.0496,-4.0496,-4.0496,-4.0496,-4.0496,-4.0496,-4.0496,-4.0496,-4.0496,-4.0496,-4.0496,-4.0123,-3.9604,-3.8892,-3.8527,-3.7988,-3.7161,-3.6558,-3.6173,-3.5962,-3.5666,-3.5948,-3.6993,-3.8245,-3.9407,-4.0454,-4.0496,-4.0491,-4.0507,-4.0253,-4.0002,-3.9786,-3.9656,-3.9561,-3.9474,-3.9089,-3.9095,0.0,-3.0711,-3.2045,-3.1825,-3.2781,-3.3354,-3.17,-3.154,0.0,-3.0936,-3.0801,-3.0859,-3.1035,-3.1016,-3.1582,-3.3476,0.0,0.0,0.0,0.0,0.0,0.0,0.0,0.0,0.0,0.0,0.0,0.0,0.0,0.0,0.0,0.0,0.0,-4.8287,-4.8064,-4.7989,-4.8105,-4.8057,-4.7272,-4.58,-4.5744,-4.4938,-4.3515,0.0,0.0,0.0,0.0,0.0,0.0,-4.3479,-4.3675,-4.4028,-4.4474,-4.4837,-4.5129,-4.5485,-4.5594,-4.5594,-4.5594,-4.5594,-4.5594,-4.5594,-4.4979,-4.4201,-4.4201,-4.3643,-4.2835,-4.2019,-4.175,-4.1527,-4.0708,-4.0496,-4.0496,-4.0496,-4.0496,-4.0496,-4.0496,-4.0496,-4.0496,-4.0496,-4.0496,-4.0496,-4.0496,-4.0496,-4.0496,-4.0496,-3.9527,-3.8635,-3.8142,-3.7276,-3.6404,-3.5673,-3.5538,-3.5827,-3.6635,-3.6017,-3.56,-3.5619,-3.8469,-4.025,-4.0488,-4.0504,-4.0496,-4.0496,-4.0269,-4.0129,-4.0129,-3.9797,-3.9551,-3.9381,-3.9339,-3.9528,-2.6924,0.0,-2.8098,-2.7589,-2.8173,-2.8807,0.0,-2.878,-2.9174,-2.9728,-2.9861,-3.0508,-3.2441,-3.2222,-3.2979,0.0,0.0,0.0,0.0,0.0,0.0,0.0,0.0,0.0,0.0,0.0,0.0,0.0,0.0,0.0,0.0,0.0,0.0,-4.6454,-4.6376,-4.6965,-4.8245,-4.7531,-4.6706,-4.5782,-4.5178,-4.4396,-4.3515,0.0,0.0,0.0,0.0,0.0,-4.2902,-4.3156,-4.3564,-4.4058,-4.4732,-4.5041,-4.5129,-4.5485,-4.5594,-4.5594,-4.5594,-4.5594,-4.5594,-4.5594,-4.4586,-4.3374,-4.3374,-4.2777,-4.2058,-4.1865,-4.1316,-4.0766,-4.0554,-4.0496,-4.0496,-4.0496,-4.0496,-4.0496,-4.0496,-4.0496,-4.0496,-4.0496,-4.0496,-4.0496,-4.0496,-4.0496,-4.0496,-4.0496,-3.9527,-3.8846,-3.8969,-3.7642,-3.6635,-3.6442,-3.5865,-3.5827,-3.6635,-3.6538,-3.6536,-3.6783,-3.673,-3.7828,-4.0389,-4.0496,-4.0496,-4.0496,-4.0449,-4.0417,-4.0417,-4.012,-4.0053,-4.0217,-3.9748,-3.9725,-2.581,-2.6944,-2.7907,-2.7839,-2.827,-2.8694,-2.8774,-2.8427,-2.8252,-2.8799,0.0,-3.0019,-3.1406,-3.2205,0.0,0.0,0.0,0.0,0.0,0.0,0.0,0.0,0.0,0.0,0.0,0.0,0.0,0.0,0.0,0.0,0.0,0.0,0.0,0.0,-4.5885,-4.6242,-4.7051,-4.6406,-4.5794,-4.5234,-4.4626,-4.4035,-4.3515,0.0,0.0,0.0,0.0,0.0,-4.3087,-4.3415,-4.385,-4.4332,-4.4877,-4.5201,-4.5352,-4.5522,-4.5594,-4.5594,-4.5594,-4.5594,-4.5594,-4.5594,-4.447,-4.3104,-4.3104,-4.22,-4.12,-4.12,-4.0854,-4.0496,-4.0496,-4.0496,-4.0496,-4.0496,-4.0496,-4.0496,-4.0496,-4.0496,-4.0496,-4.0496,-4.0496,-4.0496,-4.0496,-4.0496,-4.0496,-4.0496,-3.9115,-3.8358,-3.9181,-3.7777,-3.6692,-3.6692,-3.6673,-3.6815,-3.7257,-3.7661,-3.7904,-3.7928,-3.7122,-3.7809,-4.0396,-4.0504,-4.0496,-4.0496,-4.0496,-4.0496,-4.0496,-4.0356,-4.0356,-4.0496,-4.0175,-4.0114,-2.5407,-2.7371,-2.9323,-2.9453,-2.9819,-3.0092,-2.991,0.0,0.0,0.0,0.0,0.0,-3.0273,-3.2148,0.0,0.0,0.0,0.0,0.0,0.0,0.0,0.0,0.0,0.0,0.0,0.0,0.0,0.0,0.0,0.0,0.0,0.0,0.0,0.0,-4.5967,-4.5811,-4.5594,-4.5322,-4.4977,-4.4612,-4.4247,-4.3881,-4.3515,-4.3515,0.0,0.0,0.0,0.0,-4.3614,-4.3958,-4.4318,-4.4707,-4.5052,-4.5342,-4.5594,-4.5594,-4.5594,-4.5594,-4.5594,-4.5594,-4.5575,-4.5441,-4.4355,-4.3085,-4.2931,-4.1777,-4.0496,-4.0496,-4.0496,-4.0496,-4.0496,-4.0496,-4.0496,-4.0496,-4.0496,-4.0496,-4.0496,-4.0496,-4.0496,-4.0496,-4.0496,-4.0496,-4.0496,-4.0496,-4.0496,-4.0496,-3.8904,-3.8135,-3.9335,-3.7969,-3.6942,-3.7084,-3.7642,-3.8046,-3.818,-3.8873,-3.9227,-3.9068,-3.8635,-3.9019,-4.0442,-4.0504,-4.0496,-4.0496,-4.0496,-4.0496,-4.0496,-4.0496,-4.0496,-4.0496,-4.0496,-4.0496,-2.6142,-2.825,-2.9706,-2.7646,-2.8089,-2.8919,-2.8368,-2.8179,0.0,0.0,0.0,0.0,0.0,-3.4238,0.0,0.0,0.0,0.0,0.0,0.0,0.0,0.0,0.0,0.0,0.0,0.0,0.0,0.0,0.0,0.0,0.0,0.0,0.0,0.0,0.0,-4.5811,-4.5594,-4.5559,-4.5203,-4.4593,-4.454,-4.415,-4.3515,-4.3515,-4.3515,0.0,0.0,-4.3662,-4.3955,-4.435,-4.4707,-4.5063,-4.54,-4.554,-4.5594,-4.5594,-4.5594,-4.5594,-4.5594,-4.5594,-4.5479,-4.4739,-4.3855,-4.297,-4.222,-4.1296,-4.0496,-4.0496,-4.0496,-4.0496,-4.0496,-4.0496,-4.0496,-4.0496,-4.0496,-4.0496,-4.0496,-4.0496,-4.0496,-4.0496,-4.0496,-4.0496,-4.0496,-4.0496,-4.0496,-4.0496,-4.0204,-4.0069,-4.0285,-3.8834,-3.8084,-3.8815,-3.8354,-3.8296,-3.9034,-3.9227,-3.9573,-4.0208,-4.0169,-4.0227,-4.0485,-4.0496,-4.0496,-4.0496,-4.0496,-4.0496,-4.0496,-4.0496,-4.0496,-4.0496,-4.0496,-4.0496,-2.5754,-2.7442,-2.8871,-2.8121,-2.9498,-3.0957,-3.077,-3.0067,0.0,0.0,0.0,0.0,0.0,0.0,0.0,0.0,0.0,0.0,0.0,0.0,0.0,0.0,0.0,0.0,0.0,0.0,0.0,0.0,0.0,0.0,0.0,0.0,0.0,0.0,0.0,0.0,-4.5594,-4.5594,-4.5263,-4.4612,-4.4373,-4.4004,-4.3515,-4.3515,-4.3515,0.0,0.0,-4.3849,-4.4061,-4.4625,-4.4954,-4.5129,-4.5476,-4.5594,-4.5594,-4.5594,-4.5306,-4.496,-4.5441,-4.5017,-4.4239,-4.4297,-4.3431,-4.2316,-4.1923,-4.1181,-4.0496,-4.0496,-4.0496,-4.0496,-4.0496,-4.0496,-4.0496,-4.0496,-4.0496,-4.0496,-4.0496,-4.0496,-4.0496,-4.0496,-4.0496,-4.0496,-4.0496,-4.0496,-4.0496,-4.0496,-4.0138,-4.0004,-4.0439,-3.9457,-3.8854,-3.9265,-3.9342,-3.9342,-3.9304,-3.9708,-4.0112,-4.0477,-4.0496,-4.0496,-4.0496,-4.0496,-4.0496,-4.0496,-4.0496,-4.0496,-4.0496,-4.0496,-4.0496,-4.0496,-4.0496,-4.0496,-2.5562,-2.6737,-2.8088,-2.8896,-3.0569,-3.2254,-3.3155,-3.2085,-3.1095,0.0,0.0,0.0,0.0,0.0,0.0,0.0,0.0,0.0,0.0,0.0,0.0,0.0,0.0,0.0,0.0,0.0,0.0,0.0,0.0,0.0,0.0,0.0,0.0,0.0,0.0,0.0,-4.5594,-4.5594,-4.5293,-4.4707,-4.4318,-4.3958,-4.3595,-4.3531,-4.3515,-4.3513,-4.3849,-4.4043,-4.419,-4.483,-4.5159,-4.5243,-4.5504,-4.5479,-4.5306,-4.5306,-4.4739,-4.4143,-4.4998,-4.4335,-4.3201,-4.3816,-4.3008,-4.175,-4.1566,-4.1027,-4.0504,-4.053,-4.0545,-4.0545,-4.0545,-4.0545,-4.0545,-4.0545,-4.0527,-4.0496,-4.0496,-4.0496,-4.0496,-4.0496,-4.0496,-4.0496,-4.0496,-4.0496,-4.0496,-4.0496,-3.9977,-3.9804,-4.0419,-3.9958,-3.9573,-3.9573,-4.0131,-4.0246,-3.9631,-4.015,-4.0496,-4.0496,-4.0496,-4.0496,-4.0496,-4.0496,-4.0496,-4.0496,-4.0496,-4.0496,-4.0496,-4.0496,-4.0496,-4.0496,-4.0496,-4.0496,-2.6374,-2.7243,-2.8088,-2.8896,-2.9242,-3.0204,-3.3391,-3.2927,0.0,-3.486,0.0,0.0,0.0,0.0,0.0,0.0,0.0,0.0,0.0,0.0,0.0,0.0,0.0,0.0,0.0,0.0,0.0,0.0,0.0,0.0,0.0,0.0,0.0,0.0,0.0,0.0,-4.5594,-4.5594,-4.5419,-4.5063,-4.472,-4.4364,-4.3955,-4.3646,-4.3515,-4.3513,-4.3849,-4.4204,-4.458,-4.4943,-4.5273,-4.5568,-4.5586,-4.5114,-4.4393,-4.4393,-4.3874,-4.3297,-4.4105,-4.3835,-4.3104,-4.3162,-4.2566,-4.1662,-4.0843,-4.0554,-4.0534,-4.0662,-4.068,-4.068,-4.068,-4.068,-4.068,-4.068,-4.0582,-4.0496,-4.0496,-4.0496,-4.0496,-4.0496,-4.0496,-4.0496,-4.0496,-4.0496,-4.0496,-4.0496,-4.0458,-4.0439,-4.0496,-4.0458,-4.0419,-4.0419,-4.0477,-4.0477,-4.0419,-4.0477,-4.0496,-4.0496,-4.0496,-4.0496,-4.0496,-4.0496,-4.0496,-4.0496,-4.0496,-4.0496,-4.0496,-4.0496,-4.0496,-4.0496,-4.0496,-4.0496,-2.5854,-2.6947,-2.8159,-2.8965,-2.9547,0.0,0.0,-3.4226,-3.4816,-3.6947,-3.7425,0.0,0.0,0.0,0.0,0.0,0.0,0.0,0.0,0.0,0.0,0.0,0.0,0.0,0.0,0.0,0.0,0.0,0.0,0.0,0.0,0.0,0.0,0.0,0.0,0.0,0.0,-4.5594,-4.555,-4.541,-4.5074,-4.4587,-4.4001,-4.3865,-4.382,-4.3799,-4.3633,-4.3774,-4.4083,-4.3914,-4.393,-4.4047,-4.4047,-4.3835,-4.3547,-4.3547,-4.3028,-4.2412,-4.3258,-4.2643,-4.1566,-4.2124,-4.17,-4.0954,-4.0712,-4.063,-4.0642,-4.0738,-4.0785,-4.08,-4.077,-4.0731,-4.0697,-4.0697,-4.0596,-4.0496,-4.0496,-4.0496,-4.0496,-4.0496,-4.0496,-4.0496,-4.0496,-3.9912,-3.9681,-4.04,-4.0073,-3.9938,-4.0439,-4.0496,-4.0496,-4.0496,-4.0496,-4.0496,-4.0496,-4.0496,-4.0496,-4.0496,-4.0496,-4.0496,-4.0496,-4.0496,-4.0496,-4.0496,-4.0496,-4.0496,-4.0496,-4.0496,-4.0496,-4.0496,-4.0496,-4.0496,-2.595,-2.6754,-2.7888,-2.9,0.0,0.0,-3.3984,-3.5204,-3.6332,-3.8661,-3.8787,0.0,0.0,0.0,0.0,0.0,0.0,0.0,0.0,0.0,0.0,0.0,0.0,0.0,0.0,0.0,0.0,0.0,0.0,0.0,0.0,0.0,0.0,0.0,0.0,0.0,0.0,-4.5669,-4.5657,-4.5657,-4.54,-4.4935,-4.4341,-4.3952,-4.3768,-4.376,-4.3265,-4.3172,-4.3361,-4.3174,-4.3104,-4.3104,-4.3104,-4.2931,-4.2701,-4.2701,-4.2143,-4.1508,-4.2393,-4.172,-4.065,-4.1527,-4.1239,-4.0588,-4.0667,-4.0713,-4.0757,-4.0839,-4.0903,-4.0927,-4.088,-4.0807,-4.077,-4.077,-4.0636,-4.0496,-4.0496,-4.0496,-4.0496,-4.0496,-4.0496,-4.0342,-3.9788,-3.9288,-3.9142,-3.9623,-3.9246,-3.9092,-3.965,-3.9958,-4.0227,-4.0477,-4.0496,-4.0496,-4.0496,-4.0496,-4.0496,-4.0496,-4.0496,-4.0496,-4.0496,-4.0537,-4.0566,-4.0566,-4.0566,-4.0566,-4.0566,-4.0527,-4.0496,-4.0496,-4.0496,-4.0496,-2.6893,-2.6866,-2.7238,-2.8961,0.0,0.0,-3.4637,-3.571,-3.6761,-4.0104,0.0,-3.8846,0.0,0.0,0.0,0.0,0.0,0.0,0.0,0.0,0.0,0.0,0.0,0.0,0.0,0.0,0.0,0.0,0.0,0.0,0.0,0.0,0.0,0.0,0.0,0.0,0.0,-4.5805,-4.5783,-4.5777,-4.5645,-4.54,-4.5047,-4.3849,-4.329,-4.3259,-4.2726,-4.2493,-4.2513,-4.2914,-4.3085,-4.3085,-4.3085,-4.2547,-4.1788,-4.1788,-4.1239,-4.0631,-4.1489,-4.1219,-4.065,-4.1508,-4.1289,-4.0697,-4.0703,-4.0742,-4.082,-4.0962,-4.0996,-4.0996,-4.0996,-4.0947,-4.0894,-4.0894,-4.0697,-4.0496,-4.0496,-4.0496,-4.0496,-4.0496,-4.0496,-3.9969,-3.8304,-3.8723,-3.8996,-3.8142,-3.8007,-3.7988,-3.8007,-3.8757,-3.9611,-4.0419,-4.0496,-4.0496,-4.0496,-4.0496,-4.0496,-4.0496,-4.0496,-4.0496,-4.0496,-4.063,-4.0697,-4.0697,-4.0697,-4.0697,-4.0697,-4.0574,-4.0496,-4.0496,-4.0496,-4.0496,-2.5928,-2.7161,0.0,-2.925,0.0,0.0,0.0,-3.6477,0.0,0.0,0.0,0.0,0.0,0.0,0.0,0.0,0.0,0.0,0.0,0.0,0.0,0.0,0.0,0.0,0.0,0.0,0.0,0.0,0.0,0.0,0.0,0.0,0.0,0.0,0.0,0.0,0.0,0.0,-4.397,-4.3963,-4.3875,-4.3962,-4.416,-4.3805,-4.3323,-4.2707,-4.1965,-4.1791,-4.1965,-4.1465,-4.1266,-4.1266,-4.1266,-4.1112,-4.0893,-4.0893,-4.0727,-4.0535,-4.0804,-4.0727,-4.0558,-4.0912,-4.0868,-4.0738,-4.0875,-4.0911,-4.0962,-4.1104,-4.1149,-4.1107,-4.0966,-4.085,-4.0757,-4.0771,-4.063,-4.0496,-4.0496,-4.0496,-4.0496,-4.0496,-4.0496,-4.0342,-3.9827,-3.9008,-3.8507,-3.8854,-3.7873,-3.7526,-3.8757,-3.915,-3.9611,-4.0419,-4.0496,-4.0496,-4.0496,-4.0496,-4.0265,-3.9688,-3.9669,-3.9919,-4.0477,-4.063,-4.0697,-4.0697,-4.0742,-4.0742,-4.0697,-4.0649,-4.0582,-4.0496,-4.0496,-4.0496,-2.6269,-2.7656,0.0,-3.0459,-3.2242,-3.4277,-3.6452,0.0,0.0,0.0,0.0,0.0,0.0,0.0,0.0,0.0,0.0,0.0,0.0,0.0,0.0,0.0,0.0,0.0,0.0,0.0,0.0,0.0,0.0,0.0,0.0,0.0,0.0,0.0,0.0,0.0,0.0,0.0,0.0,-4.3283,-4.3161,-4.3066,-4.3006,-4.3006,-4.2719,-4.2183,-4.1341,-4.1106,-4.1239,-4.0727,-4.0496,-4.0496,-4.0496,-4.0496,-4.0496,-4.0496,-4.0496,-4.0496,-4.0496,-4.053,-4.0589,-4.0667,-4.0761,-4.0848,-4.0955,-4.1048,-4.1102,-4.1171,-4.1191,-4.1151,-4.0989,-4.0872,-4.0804,-4.0729,-4.0643,-4.0566,-4.0512,-4.0537,-4.0566,-4.0512,-4.0496,-4.0227,-3.9327,-3.8527,-3.8065,-3.8238,-3.768,-3.7603,-3.8642,-3.9092,-3.9611,-4.0419,-4.0496,-4.0496,-4.0496,-4.0496,-4.0169,-3.9361,-3.9324,-3.9404,-3.9539,-4.0012,-4.0446,-4.0803,-4.0866,-4.0828,-4.0747,-4.0707,-4.0636,-4.0496,-4.0496,-4.0496,-2.7224,0.0,0.0,-3.201,-3.2927,0.0,-3.6443,0.0,0.0,0.0,0.0,0.0,0.0,0.0,0.0,0.0,0.0,0.0,0.0,0.0,0.0,0.0,0.0,0.0,0.0,0.0,0.0,0.0,0.0,0.0,0.0,0.0,0.0,0.0,0.0,0.0,0.0,0.0,0.0,0.0,-4.2955,-4.245,-4.1673,-4.175,-4.175,-4.1643,-4.0835,-4.0496,-4.0496,-4.0496,-4.0496,-4.0496,-4.0496,-4.0496,-4.0496,-4.0496,-4.0504,-4.0519,-4.0519,-4.0603,-4.0701,-4.0718,-4.0859,-4.0996,-4.1002,-4.1104,-4.1191,-4.1191,-4.1191,-4.1171,-4.1028,-4.0996,-4.0925,-4.0654,-4.062,-4.0661,-4.0537,-4.0526,-4.0501,-4.0373,-4.0304,-3.9642,-3.7678,-3.7712,-3.7738,-3.6942,-3.743,-3.795,-3.8104,-3.8815,-3.9611,-4.0419,-4.0496,-4.0496,-4.0496,-4.0439,-4.0042,-3.9249,-3.9174,-3.8833,-3.8058,-3.8976,-3.9883,-4.074,-4.0824,-4.0857,-4.0832,-4.0732,-4.0636,-4.05,-4.0427,-4.0439,-2.5728,-2.719,0.0,0.0,-3.3963,-3.6309,-3.7065,0.0,0.0,0.0,0.0,0.0,0.0,0.0,0.0,0.0,0.0,0.0,0.0,0.0,0.0,0.0,0.0,0.0,0.0,0.0,0.0,0.0,0.0,0.0,0.0,0.0,0.0,0.0,0.0,0.0,-4.1738,-4.1493,-4.1361,0.0,-4.1158,-4.0958,-4.0804,-4.1489,-4.1431,-4.0766,-4.0573,-4.0496,-4.0496,-4.0496,-4.0496,-4.0496,-4.0496,-4.0496,-4.0496,-4.0496,-4.0574,-4.0668,-4.0668,-4.071,-4.0796,-4.0896,-4.0955,-4.1023,-4.1127,-4.1171,-4.1191,-4.1191,-4.1191,-4.1151,-4.0969,-4.0957,-4.0772,-3.9888,-4.0122,-4.055,-4.0636,-3.9894,-3.9206,-3.9161,-3.8834,-3.8527,-3.8473,-3.8192,-3.793,-3.7757,-3.7296,-3.7469,-3.8834,-3.9188,-3.9611,-4.0419,-4.0496,-4.0496,-4.0496,-3.9919,-3.9208,-3.8407,-3.7771,-3.7419,-3.7383,-3.8217,-3.8755,-3.8963,-3.9483,-4.0203,-4.1113,-4.0836,-4.064,-4.0488,-3.9851,-3.99,-2.4585,0.0,0.0,-3.1725,0.0,-3.6228,-3.6552,0.0,0.0,0.0,0.0,0.0,0.0,0.0,0.0,0.0,0.0,0.0,0.0,0.0,0.0,0.0,0.0,0.0,0.0,0.0,0.0,0.0,0.0,0.0,0.0,0.0,0.0,0.0,0.0,0.0,-4.1191,-4.0994,-4.0864,-4.0797,-4.0653,-4.0566,-4.0516,-4.0969,-4.0931,-4.0496,-4.0496,-4.0496,-4.0496,-4.0496,-4.0496,-4.0496,-4.0496,-4.053,-4.0589,-4.0589,-4.066,-4.0742,-4.0742,-4.0805,-4.0911,-4.0986,-4.1031,-4.1105,-4.1171,-4.1191,-4.1191,-4.1191,-4.1191,-4.1074,-4.0558,-4.0751,-4.084,-3.9869,-4.0151,-4.0634,-4.061,-3.9695,-3.8883,-3.8803,-3.8154,-3.7654,-3.7769,-3.7969,-3.7816,-3.698,-3.7883,-3.8703,-3.8819,-3.9516,-4.0175,-4.0595,-4.0298,-4.0221,-4.0614,-3.9518,-3.8642,-3.8219,-3.7432,-3.6862,-3.6584,-3.7013,-3.7644,-3.8485,-3.8846,-3.9292,-3.9862,-3.9672,-3.9505,-3.9336,-3.8929,-3.894,-2.3258,0.0,-2.8342,-3.231,-3.4176,0.0,0.0,0.0,0.0,0.0,0.0,0.0,0.0,0.0,0.0,0.0,0.0,0.0,0.0,0.0,0.0,0.0,0.0,0.0,0.0,0.0,0.0,0.0,0.0,0.0,0.0,0.0,0.0,0.0,0.0,-4.1191,-4.1191,-4.1031,-4.0914,-4.0797,-4.0574,-4.0313,-4.0073,-4.0073,-4.0227,-4.0496,-4.0515,-4.0527,-4.0496,-4.0361,-4.0311,-4.0311,-4.0137,-4.0269,-4.0499,-4.0499,-4.065,-4.0824,-4.0824,-4.092,-4.1028,-4.1028,-4.1105,-4.1191,-4.1191,-4.1191,-4.1172,-4.1016,-4.1074,-4.0996,-4.0137,-4.0449,-4.0742,-3.9843,-4.0016,-4.0384,-4.0359,-3.9419,-3.8575,-3.8452,-3.7745,-3.7068,-3.68,-3.7431,-3.7608,-3.6459,-3.8624,-3.9964,-3.8879,-3.9945,-4.0797,-4.0797,-4.019,-4.0015,-4.0544,-3.9175,-3.8249,-3.8098,-3.7335,-3.6584,-3.5932,-3.5973,-3.668,-3.8125,-3.8144,-3.8102,-3.7998,-3.8165,-3.8065,-3.7734,-3.785,-3.7953,0.0,0.0,-2.8445,0.0,-3.3205,0.0,0.0,0.0,0.0,0.0,0.0,0.0,0.0,0.0,0.0,0.0,0.0,0.0,0.0,0.0,0.0,0.0,0.0,0.0,0.0,0.0,0.0,0.0,0.0,0.0,0.0,0.0,-4.0277,-4.1172,-4.1191,0.0,-4.1191,-4.0955,-4.0813,-4.0797,-3.9908,-3.9076,-3.8334,-3.8334,-3.9123,-4.0504,-4.0623,-4.0603,-4.0454,-3.9805,-3.9545,-3.9469,-3.8721,-3.8951,-3.9757,-3.9757,-4.0273,-4.0964,-4.0964,-4.1055,-4.1171,-4.1171,-4.1191,-4.1191,-4.1191,-4.1191,-4.1035,-4.0293,-4.0625,-4.0996,-4.0137,-3.998,-3.9824,-3.885,-3.8653,-3.8892,-3.9583,-3.8286,-3.6997,-3.6988,-3.6954,-3.6933,-3.6964,-3.7067,-3.7599,-3.8863,-3.8825,-3.9073,-4.0315,-4.0661,-4.0797,-4.0797,-4.07,-4.0408,-3.9817,-3.8852,-3.7991,-3.7305,-3.6442,-3.5975,-3.5995,-3.5996,-3.6113,-3.6348,-3.6348,-3.6347,-3.6327,-3.7204,-3.7156,-3.6297,-3.6874,-3.7544,-2.0972,-2.3709,-2.667,0.0,-3.1444,0.0,0.0,0.0,0.0,0.0,0.0,0.0,0.0,0.0,0.0,0.0,0.0,0.0,0.0,0.0,0.0,0.0,0.0,0.0,0.0,0.0,0.0,0.0,0.0,0.0,0.0,-3.8873,-3.9145,-3.9617,-3.9706,0.0,-3.9638,-4.0008,-4.0126,-4.0005,-3.9026,-3.8373,-3.8007,-3.8007,-3.8392,-3.9099,-3.9193,-3.9194,-3.908,-3.88,-3.8665,-3.8634,-3.8252,-3.8436,-3.8995,-3.9485,-3.9958,-4.0441,-4.0949,-4.115,-4.1191,-4.1191,-4.1191,-4.1191,-4.1191,-4.1191,-4.1016,-4.0156,-4.0176,-4.0156,-3.8809,-3.8809,-3.8945,-3.8003,-3.7754,-3.7827,-3.8173,-3.7522,-3.6716,-3.6231,-3.6182,-3.6234,-3.628,-3.6735,-3.7364,-3.8143,-3.8781,-3.9465,-4.0203,-4.0711,-4.1025,-4.1025,-4.0594,-4.0145,-3.9793,-3.8525,-3.7654,-3.7452,-3.6477,-3.5934,-3.5996,-3.5996,-3.5996,-3.5996,-3.5996,-3.5996,-3.5996,-3.6442,-3.6409,-3.5956,-3.6243,-3.6559,0.0,0.0,-2.4514,-2.7516,0.0,0.0,0.0,0.0,0.0,0.0,0.0,0.0,0.0,0.0,0.0,0.0,0.0,0.0,0.0,0.0,0.0,0.0,0.0,0.0,0.0,0.0,0.0,0.0,0.0,0.0,-3.7829,-3.7922,-3.8082,-3.8383,-3.8506,-3.8495,-3.8404,-3.9017,-3.9085,-3.8601,-3.7899,-3.7452,-3.726,-3.726,-3.7309,-3.7387,-3.7926,-3.8094,-3.8015,-3.7903,-3.785,-3.7826,-3.7613,-3.7787,-3.8199,-3.8843,-3.9289,-3.9668,-4.0312,-4.0547,-4.0586,-4.0801,-4.0879,-4.0918,-4.1133,-4.1055,-4.0684,-3.9805,-3.957,-3.9219,-3.7695,-3.7773,-3.8105,-3.7441,-3.7085,-3.6871,-3.6829,-3.674,-3.6485,-3.5869,-3.5755,-3.5764,-3.5763,-3.6405,-3.705,-3.7481,-3.8708,-3.9726,-4.0176,-4.0801,-4.1191,-4.1191,-4.0625,-4.0117,-3.9805,-3.8574,-3.7676,-3.7285,-3.6465,-3.5996,-3.5996,-3.5996,-3.5996,-3.5996,-3.5996,-3.5996,-3.5996,-3.5996,-3.5974,-3.5938,-3.5938,-3.5862,0.0,-1.9913,0.0,0.0,0.0,0.0,0.0,0.0,0.0,0.0,0.0,0.0,0.0,0.0,0.0,0.0,0.0,0.0,0.0,0.0,0.0,0.0,0.0,0.0,0.0,0.0,0.0,0.0,0.0,0.0,-3.6919,-3.6973,-3.7417,-3.8362,-3.8406,-3.8415,-3.8404,-3.8319,-3.7662,-3.6472,-3.6417,-3.5989,-3.5255,-3.5255,-3.538,-3.5732,-3.7516,-3.8222,-3.805,-3.7481,-3.7219,-3.7078,-3.6302,-3.6566,-3.7363,-3.7402,-3.7949,-3.8672,-3.8711,-3.873,-3.8867,-3.9707,-3.9961,-4.0117,-4.0957,-4.0625,-3.9785,-3.8906,-3.8672,-3.8457,-3.7539,-3.7324,-3.7363,-3.7305,-3.668,-3.601,-3.5825,-3.5768,-3.5788,-3.5869,-3.5898,-3.5911,-3.5975,-3.6035,-3.6621,-3.8281,-3.8613,-3.9258,-4.0918,-4.1172,-4.1191,-4.1191,-4.1152,-4.0664,-3.9512,-3.9336,-3.8379,-3.6211,-3.6035,-3.5996,-3.5996,-3.5996,-3.5996,-3.5996,-3.5996,-3.5996,-3.5996,-3.5996,-3.5996,-3.5996,-3.5996,-3.5996,0.0,0.0,0.0,0.0,0.0,0.0,0.0,0.0,0.0,0.0,0.0,0.0,0.0,0.0,0.0,0.0,0.0,0.0,0.0,0.0,0.0,0.0,0.0,0.0,0.0,0.0,0.0,0.0,0.0,0.0,-3.599,-3.6033,-3.6259,-3.6646,-3.6746,-3.7011,-3.7503,-3.6802,-3.6503,-3.6558,-3.6032,-3.563,-3.5361,-3.5361,-3.543,-3.5599,-3.6327,-3.658,-3.6498,-3.6398,-3.635,-3.6309,-3.6019,-3.612,-3.6523,-3.709,-3.75,-3.7851,-3.8418,-3.8594,-3.8652,-3.8965,-3.9062,-3.9121,-3.9434,-3.9316,-3.8887,-3.8008,-3.7773,-3.7559,-3.6699,-3.6465,-3.6465,-3.6465,-3.623,-3.5976,-3.5906,-3.5882,-3.5903,-3.5951,-3.5952,-3.5974,-3.5996,-3.5996,-3.6582,-3.834,-3.8594,-3.9238,-4.0976,-4.1191,-4.1191,-4.1191,-4.0508,-3.9726,-3.8945,-3.8535,-3.7656,-3.6094,-3.5996,-3.5996,-3.5996,-3.5996,-3.5996,-3.5996,-3.5996,-3.5996,-3.5996,-3.5996,-3.5996,-3.5996,-3.5996,-3.6309,-1.7308,0.0,0.0,0.0,0.0,0.0,0.0,0.0,0.0,0.0,0.0,0.0,0.0,0.0,0.0,0.0,0.0,0.0,0.0,0.0,0.0,0.0,0.0,0.0,0.0,0.0,0.0,0.0,0.0,0.0,-3.5361,-3.5412,-3.5521,-3.568,-3.5784,-3.6079,-3.6559,-3.5863,-3.5722,-3.6155,-3.5618,-3.5369,-3.5369,-3.5369,-3.5444,-3.5596,-3.5663,-3.5705,-3.5706,-3.5875,-3.5922,-3.5922,-3.5922,-3.5951,-3.6074,-3.6641,-3.6855,-3.6953,-3.7539,-3.7734,-3.7773,-3.8066,-3.8164,-3.8223,-3.8516,-3.8398,-3.8047,-3.7461,-3.709,-3.6738,-3.6152,-3.5996,-3.5996,-3.5996,-3.5996,-3.5996,-3.5996,-3.5996,-3.5996,-3.5996,-3.5996,-3.5996,-3.5996,-3.5996,-3.6484,-3.7949,-3.8164,-3.8691,-4.0137,-4.0488,-4.0527,-4.0351,-3.9766,-3.9101,-3.8359,-3.793,-3.7207,-3.6074,-3.5996,-3.5996,-3.5996,-3.5996,-3.5996,-3.5996,-3.5996,-3.5996,-3.5996,-3.5996,-3.5996,-3.5996,-3.5996,-3.6465,0.0,0.0,0.0,0.0,0.0,0.0,0.0,0.0,0.0,0.0,0.0,0.0,0.0,0.0,0.0,0.0,0.0,0.0,0.0,0.0,0.0,0.0,0.0,0.0,0.0,0.0,0.0,0.0,0.0,-3.4775,-3.5049,-3.5056,-3.5224,-3.5619,-3.5614,-3.5609,-3.5629,-3.5496,-3.5292,-3.5037,-3.5037,-3.5037,-3.5037,-3.5056,-3.5271,-3.5563,-3.5667,-3.5772,-3.5907,-3.5974,-3.5996,-3.5996,-3.5996,-3.5996,-3.5996,-3.5996,-3.5996,-3.5996,-3.5996,-3.5996,-3.6133,-3.6992,-3.7266,-3.7422,-3.8262,-3.793,-3.7266,-3.7266,-3.6641,-3.5996,-3.5996,-3.5996,-3.5996,-3.5996,-3.5996,-3.5996,-3.5996,-3.5996,-3.5996,-3.5996,-3.5996,-3.5996,-3.5996,-3.5996,-3.6309,-3.7168,-3.7305,-3.7617,-3.8516,-3.9043,-3.9141,-3.8633,-3.9004,-3.8867,-3.7773,-3.7656,-3.7187,-3.6074,-3.5996,-3.5996,-3.5996,-3.5996,-3.5996,-3.5996,-3.5996,-3.5996,-3.5996,-3.5996,-3.5996,-3.5996,-3.6055,-3.6523,-1.8011,0.0,0.0,0.0,0.0,0.0,0.0,0.0,0.0,0.0,0.0,0.0,0.0,0.0,0.0,0.0,0.0,0.0,0.0,0.0,0.0,0.0,0.0,0.0,0.0,0.0,0.0,0.0,0.0,-3.3885,-3.4154,-3.3833,-3.3723,-3.3891,-3.3846,-3.3846,-3.3894,-3.3705,-3.3576,-3.3503,-3.3503,-3.3503,-3.3529,-3.4218,-3.4627,-3.4839,-3.5543,-3.589,-3.5974,-3.5996,-3.5996,-3.5996,-3.5996,-3.5996,-3.5996,-3.5996,-3.5996,-3.5996,-3.5996,-3.5996,-3.6035,-3.6289,-3.6367,-3.6406,-3.6641,-3.6543,-3.6367,-3.6367,-3.6191,-3.5996,-3.5996,-3.5996,-3.5996,-3.5996,-3.5996,-3.5996,-3.5996,-3.5996,-3.5996,-3.5996,-3.5996,-3.5996,-3.5996,-3.5996,-3.6309,-3.7168,-3.7305,-3.7754,-3.9023,-3.8594,-3.8105,-3.7969,-3.7344,-3.707,-3.7383,-3.6836,-3.6348,-3.6016,-3.591,-3.5908,-3.5996,-3.6008,-3.6007,-3.5996,-3.5996,-3.5996,-3.5996,-3.5996,-3.5996,-3.6035,-3.7285,-3.8008,-1.9956,-2.0663,0.0,0.0,0.0,0.0,0.0,0.0,0.0,0.0,0.0,0.0,0.0,0.0,0.0,0.0,0.0,0.0,0.0,0.0,0.0,0.0,0.0,0.0,0.0,0.0,0.0,0.0,-3.255,-3.2726,-3.3104,-3.3006,-3.302,-3.319,-3.3162,-3.3163,-3.3193,-3.304,-3.2933,-3.2891,-3.2891,-3.2903,-3.2962,-3.3513,-3.386,-3.404,-3.4952,-3.5396,-3.5488,-3.5859,-3.5996,-3.5996,-3.5996,-3.5996,-3.5996,-3.5996,-3.5975,-3.5951,-3.5951,-3.5951,-3.5951,-3.5951,-3.5975,-3.5996,-3.5996,-3.5996,-3.5996,-3.5996,-3.5996,-3.5996,-3.5996,-3.5996,-3.5996,-3.5996,-3.5996,-3.5996,-3.5996,-3.5996,-3.5996,-3.5996,-3.5996,-3.5996,-3.5996,-3.5996,-3.6172,-3.668,-3.6758,-3.7051,-3.7871,-3.7402,-3.6992,-3.6992,-3.6406,-3.6211,-3.6719,-3.6289,-3.5995,-3.5951,-3.5876,-3.5846,-3.5875,-3.5926,-3.5953,-3.5951,-3.5995,-3.5996,-3.5996,-3.5996,-3.5996,-3.6035,-3.7422,-3.8125,-2.21,-2.2325,0.0,0.0,0.0,0.0,-2.5078,-2.4883,0.0,0.0,0.0,0.0,0.0,0.0,0.0,0.0,0.0,0.0,0.0,0.0,0.0,0.0,0.0,0.0,0.0,0.0,0.0,-3.1157,-3.1256,-3.1492,-3.1864,-3.2213,-3.2549,-3.2849,-3.2892,-3.2899,-3.2909,-3.2796,-3.2691,-3.2632,-3.2632,-3.2676,-3.2745,-3.2841,-3.2988,-3.3206,-3.409,-3.4559,-3.4766,-3.5547,-3.5918,-3.5996,-3.5996,-3.5996,-3.5996,-3.5996,-3.5951,-3.5901,-3.5901,-3.5901,-3.5901,-3.5901,-3.5947,-3.5996,-3.5996,-3.5996,-3.5996,-3.5996,-3.5996,-3.5996,-3.5996,-3.5996,-3.5996,-3.5996,-3.5996,-3.5996,-3.5996,-3.5996,-3.5996,-3.5996,-3.5996,-3.5996,-3.5996,-3.5996,-3.5996,-3.5996,-3.5996,-3.5996,-3.5996,-3.5996,-3.5996,-3.5996,-3.5996,-3.5996,-3.5996,-3.5996,-3.5973,-3.5905,-3.5896,-3.5836,-3.5723,-3.5812,-3.59,-3.591,-3.5973,-3.5996,-3.5996,-3.5996,-3.5996,-3.6016,-3.6894,-3.7441,-2.2766,-2.3115,-2.3603,-2.3296,0.0,0.0,0.0,-2.4023,0.0,0.0,0.0,0.0,0.0,0.0,0.0,0.0,0.0,0.0,0.0,0.0,0.0,0.0,0.0,0.0,0.0,0.0,-3.0768,-3.0435,-3.0627,-3.0525,-2.9987,-3.0327,-3.0618,-3.0788,-3.0947,-3.105,-3.1108,-3.1074,-3.1054,-3.1056,-3.1056,-3.1063,-3.1083,-3.1853,-3.2219,-3.2317,-3.3236,-3.4042,-3.4707,-3.4883,-3.5371,-3.5996,-3.5996,-3.5996,-3.5996,-3.5996,-3.5951,-3.5901,-3.5901,-3.5901,-3.5901,-3.5901,-3.5947,-3.5996,-3.5996,-3.5996,-3.5996,-3.5996,-3.5996,-3.5996,-3.5996,-3.5996,-3.5996,-3.5996,-3.5996,-3.5996,-3.5996,-3.5996,-3.5996,-3.5996,-3.5996,-3.5996,-3.5996,-3.5996,-3.5996,-3.5996,-3.5996,-3.5996,-3.5996,-3.5996,-3.5996,-3.5996,-3.5996,-3.5996,-3.5996,-3.5996,-3.5973,-3.5905,-3.5802,-3.5789,-3.5867,-3.5775,-3.5821,-3.5975,-3.5996,-3.5996,-3.5996,-3.5996,-3.5996,-3.6016,-3.6894,-3.7441,-2.4271,-2.4375,-2.4628,-2.4315,0.0,0.0,0.0,0.0,0.0,0.0,0.0,0.0,0.0,0.0,0.0,0.0,0.0,0.0,0.0,0.0,0.0,0.0,0.0,0.0,0.0,0.0,-2.9635,-2.9602,-2.9537,-2.9473,-2.9411,-2.9687,-2.9961,-3.0192,-3.0422,-3.0575,-3.0605,-3.0635,-3.0621,-3.0603,-3.0563,-3.0598,-3.0659,-3.1095,-3.136,-3.1498,-3.2402,-3.3047,-3.3476,-3.3887,-3.457,-3.5391,-3.582,-3.5996,-3.5996,-3.5996,-3.5951,-3.5901,-3.5901,-3.5901,-3.5901,-3.5901,-3.5947,-3.5996,-3.5996,-3.5996,-3.5996,-3.5996,-3.5996,-3.5996,-3.5996,-3.5996,-3.5996,-3.5996,-3.5996,-3.5996,-3.5996,-3.5996,-3.5996,-3.5996,-3.5974,-3.5951,-3.5996,-3.5996,-3.5996,-3.5996,-3.5996,-3.5996,-3.5996,-3.5996,-3.5996,-3.5996,-3.5996,-3.5996,-3.5996,-3.5996,-3.5973,-3.5905,-3.5838,-3.5802,-3.5802,-3.5802,-3.5862,-3.5996,-3.5996,-3.5996,-3.5996,-3.5996,-3.5996,-3.6016,-3.6445,-3.6719,0.0,0.0,0.0,0.0,0.0,-2.507,0.0,0.0,0.0,-2.5311,0.0,0.0,0.0,0.0,0.0,0.0,0.0,0.0,0.0,0.0,0.0,0.0,0.0,0.0,0.0,0.0,-2.8232,-2.8525,-2.8385,-2.8523,-2.9068,-2.9476,-2.9815,-3.0101,-3.0406,-3.0582,-3.0575,-3.0644,-3.0651,-3.0601,-3.0553,-3.0581,-3.0679,-3.0644,-3.0702,-3.0897,-3.1621,-3.2031,-3.2246,-3.2891,-3.3672,-3.4531,-3.541,-3.5742,-3.5742,-3.5742,-3.5716,-3.5646,-3.5637,-3.5758,-3.59,-3.5871,-3.5923,-3.5996,-3.5996,-3.5996,-3.5996,-3.5996,-3.5996,-3.5996,-3.5996,-3.5996,-3.5996,-3.5996,-3.5996,-3.5996,-3.5996,-3.5976,-3.5956,-3.5956,-3.5899,-3.5887,-3.5976,-3.5996,-3.5995,-3.5996,-3.5996,-3.5996,-3.5996,-3.5996,-3.5996,-3.5996,-3.5996,-3.5996,-3.5996,-3.5996,-3.5973,-3.5905,-3.5901,-3.5845,-3.5713,-3.5851,-3.5946,-3.5996,-3.5996,-3.5996,-3.5996,-3.5996,-3.5996,-3.5996,-3.5996,-3.5996,0.0,0.0,0.0,0.0,-2.65,0.0,0.0,0.0,-2.5274,-2.461,0.0,0.0,0.0,0.0,0.0,0.0,0.0,0.0,0.0,0.0,0.0,0.0,0.0,0.0,0.0,0.0,0.0,-2.688,-2.7497,-2.7893,-2.7989,-2.9064,-2.9731,-2.9763,-3.024,-3.0513,-3.0517,-3.0586,-3.0604,-3.0594,-3.0585,-3.0602,-3.0604,-3.0668,-3.0701,-3.0722,-3.0955,-3.1484,-3.2207,-3.2305,-3.2812,-3.3633,-3.4512,-3.4844,-3.4844,-3.4844,-3.4817,-3.4741,-3.4687,-3.5195,-3.5875,-3.5761,-3.5843,-3.5996,-3.5996,-3.5996,-3.5996,-3.5996,-3.5996,-3.5996,-3.5996,-3.5996,-3.5996,-3.5996,-3.5996,-3.5996,-3.5996,-3.591,-3.5812,-3.5812,-3.5712,-3.5707,-3.5955,-3.5948,-3.5921,-3.5996,-3.5996,-3.5996,-3.5996,-3.5996,-3.5996,-3.5996,-3.5996,-3.5996,-3.5996,-3.5996,-3.5973,-3.5905,-3.5901,-3.5861,-3.5797,-3.593,-3.5996,-3.5996,-3.5996,-3.5996,-3.5996,-3.5996,-3.5996,-3.5996,-3.5996,-3.5996,0.0,0.0,0.0,0.0,0.0,0.0,0.0,0.0,-2.5503,0.0,0.0,0.0,0.0,0.0,0.0,0.0,0.0,0.0,0.0,0.0,0.0,0.0,0.0,0.0,0.0,0.0,0.0,0.0,0.0,-2.731,-2.778,-2.8568,-2.9213,-2.9686,-3.0225,-3.0498,-3.0498,-3.0561,-3.0603,-3.0603,-3.0554,-3.0558,-3.0606,-3.0638,-3.0669,-3.0717,-3.0838,-3.1113,-3.1445,-3.1445,-3.1934,-3.2734,-3.3105,-3.3535,-3.3945,-3.3945,-3.3924,-3.3976,-3.4453,-3.4868,-3.5285,-3.5723,-3.593,-3.5996,-3.5996,-3.5996,-3.5996,-3.5996,-3.5996,-3.5996,-3.5996,-3.5996,-3.5996,-3.5996,-3.5996,-3.5996,-3.5948,-3.5875,-3.5797,-3.5744,-3.5666,-3.5663,-3.5858,-3.5831,-3.5817,-3.5862,-3.5851,-3.5872,-3.5976,-3.5972,-3.595,-3.5996,-3.5996,-3.5996,-3.5996,-3.5996,-3.5995,-3.5951,-3.5951,-3.5951,-3.5912,-3.5976,-3.5996,-3.5996,-3.5996,-3.5996,-3.5996,-3.5996,-3.5996,-3.5996,-3.5996,-3.5996,-2.5413,0.0,0.0,0.0,0.0,0.0,0.0,0.0,0.0,0.0,0.0,0.0,0.0,0.0,0.0,0.0,0.0,0.0,0.0,0.0,0.0,0.0,0.0,0.0,0.0,0.0,0.0,0.0,0.0,0.0,-2.7119,-2.8016,-2.8776,-2.9355,-3.0087,-3.0467,-3.0467,-3.0513,-3.0548,-3.0548,-3.0509,-3.0494,-3.0548,-3.0558,-3.0617,-3.0679,-3.0792,-3.0878,-3.0898,-3.0898,-3.1269,-3.1836,-3.1836,-3.2207,-3.2734,-3.2988,-3.3066,-3.3164,-3.3748,-3.4274,-3.4822,-3.5703,-3.5996,-3.5996,-3.5996,-3.5996,-3.5996,-3.5996,-3.5996,-3.5996,-3.5996,-3.5996,-3.5996,-3.5955,-3.5954,-3.5949,-3.5834,-3.579,-3.5722,-3.5678,-3.5626,-3.5604,-3.5702,-3.5682,-3.5696,-3.5736,-3.5744,-3.5769,-3.5902,-3.5914,-3.5914,-3.5973,-3.5996,-3.5996,-3.5996,-3.5996,-3.5996,-3.5996,-3.5975,-3.5956,-3.5996,-3.5956,-3.5956,-3.5996,-3.5996,-3.5996,-3.5996,-3.5996,-3.5996,-3.5996,-3.5996,-3.5996,0.0,0.0,0.0,-2.5519,0.0,0.0,0.0,0.0,-2.6513,0.0,0.0,0.0,0.0,0.0,0.0,0.0,0.0,0.0,0.0,0.0,0.0,0.0,0.0,0.0,0.0,0.0,0.0,0.0,0.0,0.0,-2.5486,-2.7397,-2.8501,-2.8539,-2.9748,-3.039,-3.039,-3.0416,-3.0416,-3.0416,-3.0396,-3.0396,-3.0402,-3.0467,-3.0545,-3.0611,-3.0677,-3.0771,-3.0898,-3.0898,-3.0918,-3.0937,-3.0937,-3.0957,-3.1074,-3.1934,-3.2246,-3.2226,-3.2126,-3.3186,-3.4758,-3.5701,-3.5996,-3.5996,-3.5996,-3.5996,-3.5996,-3.5996,-3.5996,-3.5996,-3.5996,-3.5996,-3.5975,-3.5836,-3.5864,-3.5851,-3.5648,-3.5612,-3.5601,-3.5596,-3.5552,-3.5494,-3.5514,-3.5556,-3.5601,-3.5619,-3.5726,-3.5785,-3.5713,-3.5812,-3.5903,-3.5903,-3.5951,-3.5996,-3.5996,-3.5996,-3.5996,-3.5996,-3.5885,-3.5862,-3.5996,-3.5885,-3.5863,-3.5996,-3.5996,-3.5996,-3.5996,-3.5996,-3.5996,-3.5996,-3.5996,-3.5996,0.0,0.0,-2.639,-2.5519,0.0,0.0,0.0,0.0,0.0,0.0,0.0,0.0,0.0,0.0,0.0,0.0,0.0,0.0,0.0,0.0,0.0,0.0,0.0,0.0,0.0,0.0,0.0,0.0,0.0,0.0,0.0,-2.6313,-2.7088,-2.7627,-2.8881,-2.9544,-2.9544,-3.0115,-3.0404,-3.0404,-3.0404,-3.0404,-3.041,-3.0463,-3.0501,-3.0541,-3.0592,-3.0655,-3.071,-3.071,-3.0729,-3.0769,-3.0769,-3.0816,-3.0937,-3.123,-3.1348,-3.1426,-3.195,-3.2867,-3.3864,-3.4179,-3.4668,-3.5137,-3.5137,-3.5547,-3.5996,-3.5996,-3.5996,-3.5996,-3.5996,-3.5973,-3.5919,-3.5885,-3.5817,-3.5743,-3.5622,-3.5602,-3.5579,-3.5534,-3.5521,-3.55,-3.55,-3.5515,-3.5531,-3.5539,-3.5562,-3.5641,-3.5741,-3.578,-3.5819,-3.595,-3.5995,-3.5996,-3.5996,-3.5996,-3.5956,-3.5864,-3.5871,-3.5838,-3.5743,-3.5816,-3.589,-3.5922,-3.5975,-3.5996,-3.5996,-3.5996,-3.5996,-3.5996,-3.5996,-3.5996,-2.5157,-2.5657,0.0,0.0,-2.5625,0.0,-2.5271,0.0,0.0,0.0,0.0,0.0,0.0,0.0,0.0,0.0,0.0,0.0,0.0,0.0,0.0,0.0,0.0,0.0,0.0,0.0,-2.4896,-2.4916,0.0,0.0,0.0,0.0,-2.6269,-2.6858,-2.8051,-2.8665,-2.8665,-2.9506,-2.9948,-2.9948,-3.025,-3.0404,-3.0404,-3.0446,-3.0477,-3.0503,-3.0552,-3.0578,-3.0603,-3.0603,-3.0633,-3.065,-3.065,-3.0728,-3.0808,-3.0878,-3.0898,-3.1074,-3.2226,-3.2948,-3.3471,-3.4097,-3.4663,-3.5132,-3.5132,-3.5545,-3.5996,-3.5996,-3.5996,-3.5996,-3.5996,-3.5948,-3.5898,-3.5841,-3.5739,-3.5661,-3.5582,-3.5568,-3.5558,-3.5501,-3.55,-3.55,-3.55,-3.55,-3.5502,-3.5492,-3.5496,-3.5546,-3.5687,-3.5687,-3.5713,-3.5875,-3.5948,-3.5952,-3.5952,-3.5952,-3.5903,-3.576,-3.5772,-3.5749,-3.5648,-3.5746,-3.5811,-3.5834,-3.5921,-3.5952,-3.5953,-3.5995,-3.5996,-3.5996,-3.5996,-3.5996]},{"header":{"parameterUnit":"m.s-1","parameterCategory":1,"la1":30.6,"la2":29.2853,"lo1":-89.7004,"lo2":-87.6739,"dy":0.0162,"dx":0.0183,"nx":112,"ny":82,"refTime":"2024-07-16T12:00:00:Z","depth":0,"parameterNumber":3,"parameterNumberName":"V-component_of_WINDS"},"data":[0.0,0.0,0.0,0.0,0.0,0.0,0.0,0.0,0.0,0.0,0.0,0.0,0.0,0.0,0.0,0.0,0.0,0.0,0.0,0.0,0.0,0.0,0.0,0.0,0.0,0.0,0.0,0.0,0.0,0.0,0.0,0.0,0.0,0.0,0.0,0.0,0.0,0.0,0.0,0.0,0.0,0.0,0.0,0.0,0.0,0.0,0.0,0.0,0.0,0.0,0.0,0.0,0.0,0.0,0.0,0.0,0.0,0.0,0.0,0.0,0.0,0.0,0.0,0.0,0.0,0.0,0.0,0.0,0.0,0.0,0.0,0.0,0.0,0.0,0.0,0.0,0.0,0.0,0.0,0.0,0.0,0.0,0.0,0.0,0.0,0.0,0.0,0.0,0.0,0.0,0.0,-1.5814,-1.6132,-1.6226,-1.6321,-1.6233,-1.5371,-1.34,0.0,0.0,0.0,0.0,0.0,0.0,0.0,0.0,0.0,0.0,0.0,0.0,0.0,0.0,0.0,0.0,0.0,0.0,0.0,0.0,0.0,0.0,0.0,0.0,0.0,0.0,0.0,0.0,0.0,0.0,0.0,0.0,0.0,0.0,0.0,0.0,0.0,0.0,0.0,0.0,0.0,0.0,0.0,0.0,0.0,0.0,0.0,0.0,0.0,0.0,0.0,0.0,0.0,0.0,0.0,0.0,0.0,0.0,0.0,0.0,0.0,0.0,0.0,0.0,0.0,0.0,0.0,0.0,0.0,0.0,0.0,0.0,0.0,0.0,0.0,0.0,0.0,0.0,0.0,0.0,0.0,0.0,0.0,0.0,0.0,0.0,0.0,0.0,0.0,0.0,0.0,0.0,0.0,0.0,0.0,0.0,0.0,0.0,0.0,0.0,0.0,0.0,0.0,0.0,-1.4126,-1.6021,-1.6034,-1.5999,-1.6301,-1.6039,-1.5231,-1.3633,0.0,0.0,0.0,0.0,0.0,0.0,0.0,0.0,0.0,0.0,0.0,0.0,0.0,0.0,0.0,0.0,0.0,0.0,0.0,0.0,0.0,0.0,0.0,0.0,0.0,0.0,0.0,0.0,0.0,0.0,0.0,0.0,0.0,0.0,0.0,0.0,0.0,0.0,0.0,0.0,0.0,0.0,0.0,0.0,0.0,0.0,0.0,0.0,0.0,0.0,0.0,0.0,0.0,0.0,0.0,0.0,0.0,0.0,0.0,0.0,0.0,0.0,0.0,0.0,0.0,0.0,0.0,0.0,0.0,0.0,0.0,0.0,0.0,0.0,0.0,0.0,0.0,0.0,0.0,0.0,0.0,0.0,0.0,0.0,0.0,0.0,0.0,0.0,0.0,0.0,0.0,0.0,0.0,0.0,0.0,0.0,0.0,0.0,0.0,0.0,0.0,0.0,0.0,-1.3414,-1.4125,-1.5866,-1.5912,-1.5838,-1.6019,-1.5765,-1.497,-1.346,-1.2565,0.0,0.0,0.0,0.0,0.0,0.0,0.0,0.0,0.0,0.0,0.0,0.0,0.0,0.0,0.0,0.0,0.0,0.0,0.0,0.0,0.0,0.0,0.0,0.0,0.0,0.0,0.0,0.0,0.0,0.0,0.0,0.0,0.0,0.0,0.0,0.0,0.0,0.0,0.0,0.0,0.0,0.0,0.0,0.0,0.0,0.0,0.0,0.0,0.0,0.0,0.0,0.0,0.0,0.0,0.0,0.0,0.0,0.0,0.0,0.0,0.0,0.0,0.0,0.0,0.0,0.0,0.0,0.0,0.0,0.0,0.0,0.0,0.0,0.0,0.0,0.0,0.0,0.0,0.0,0.0,0.0,0.0,0.0,0.0,0.0,0.0,0.0,0.0,0.0,0.0,0.0,0.0,0.0,0.0,0.0,0.0,0.0,0.0,0.0,0.0,0.0,0.0,-1.3776,-1.4392,-1.5644,-1.5784,-1.5784,-1.5784,-1.5371,-1.4516,-1.3186,-1.2167,0.0,0.0,0.0,0.0,0.0,0.0,0.0,0.0,0.0,0.0,0.0,0.0,0.0,0.0,0.0,0.0,0.0,0.0,0.0,0.0,0.0,0.0,0.0,0.0,0.0,0.0,0.0,0.0,0.0,0.0,0.0,0.0,0.0,0.0,0.0,0.0,0.0,0.0,0.0,0.0,0.0,0.0,0.0,0.0,0.0,0.0,0.0,0.0,0.0,0.0,0.0,0.0,0.0,0.0,0.0,0.0,0.0,0.0,0.0,0.0,0.0,0.0,0.0,0.0,0.0,0.0,0.0,0.0,0.0,0.0,0.0,0.0,0.0,0.0,0.0,0.0,0.0,0.0,0.0,0.0,0.0,0.0,0.0,0.0,0.0,0.0,0.0,0.0,0.0,0.0,0.0,0.0,0.0,0.0,0.0,0.0,0.0,0.0,0.0,0.0,0.0,0.0,-1.4255,-1.5117,-1.5758,-1.5784,-1.5784,-1.5784,-1.4816,-1.3822,-1.2878,-1.1477,0.0,0.0,0.0,0.0,0.0,0.0,0.0,0.0,0.0,0.0,0.0,0.0,0.0,0.0,0.0,0.0,0.0,0.0,0.0,0.0,0.0,0.0,0.0,0.0,0.0,0.0,0.0,0.0,0.0,0.0,0.0,0.0,0.0,0.0,0.0,0.0,0.0,0.0,0.0,0.0,0.0,0.0,0.0,0.0,0.0,0.0,0.0,0.0,0.0,0.0,0.0,0.0,0.0,0.0,0.0,0.0,0.0,0.0,0.0,0.0,0.0,0.0,0.0,0.0,0.0,0.0,0.0,0.0,0.0,0.0,0.0,0.0,0.0,0.0,0.0,0.0,0.0,0.0,0.0,0.0,0.0,0.0,0.0,0.0,0.0,0.0,0.0,0.0,0.0,0.0,0.0,0.0,0.0,0.0,0.0,0.0,0.0,0.0,0.0,0.0,0.0,0.0,-1.3263,-1.4302,0.0,-1.5718,-1.5711,-1.5571,-1.4816,-1.3814,-1.2589,0.0,0.0,0.0,0.0,0.0,0.0,0.0,0.0,0.0,0.0,0.0,0.0,0.0,0.0,0.0,0.0,0.0,0.0,0.0,0.0,0.0,0.0,0.0,0.0,0.0,0.0,0.0,0.0,0.0,0.0,0.0,0.0,0.0,0.0,0.0,0.0,0.0,0.0,0.0,0.0,0.0,0.0,0.0,0.0,0.0,0.0,0.0,0.0,0.0,0.0,0.0,0.0,0.0,0.0,0.0,0.0,0.0,0.0,0.0,0.0,0.0,0.0,0.0,0.0,0.0,0.0,0.0,0.0,0.0,0.0,0.0,0.0,0.0,0.0,0.0,0.0,0.0,0.0,0.0,0.0,0.0,0.0,0.0,0.0,0.0,0.0,0.0,0.0,0.0,0.0,0.0,0.0,0.0,0.0,0.0,0.0,0.0,0.0,0.0,0.0,0.0,0.0,-1.22,-1.2973,-1.3941,0.0,-1.5438,-1.5478,-1.5277,-1.4456,-1.3447,-1.2245,0.0,0.0,0.0,0.0,0.0,0.0,0.0,0.0,0.0,0.0,0.0,0.0,0.0,0.0,0.0,0.0,0.0,0.0,0.0,0.0,0.0,0.0,0.0,0.0,0.0,0.0,0.0,0.0,0.0,0.0,0.0,0.0,0.0,0.0,0.0,0.0,0.0,0.0,0.0,0.0,0.0,0.0,0.0,0.0,0.0,0.0,0.0,0.0,0.0,0.0,0.0,0.0,0.0,0.0,0.0,0.0,0.0,0.0,0.0,0.0,0.0,0.0,0.0,0.0,0.0,0.0,0.0,0.0,0.0,0.0,0.0,0.0,0.0,0.0,0.0,0.0,0.0,0.0,0.0,0.0,0.0,0.0,0.0,0.0,0.0,0.0,0.0,0.0,0.0,0.0,0.0,0.0,0.0,0.0,0.0,0.0,0.0,0.0,0.0,0.0,0.0,0.0,-1.2899,-1.3593,-1.4352,-1.4941,-1.5008,-1.5008,-1.5001,-1.3648,-1.2536,0.0,0.0,0.0,0.0,0.0,0.0,0.0,0.0,0.0,0.0,0.0,0.0,0.0,0.0,0.0,0.0,0.0,0.0,0.0,0.0,0.0,0.0,0.0,0.0,0.0,0.0,0.0,0.0,0.0,0.0,0.0,0.0,0.0,0.0,0.0,0.0,0.0,0.0,0.0,0.0,0.0,0.0,0.0,0.0,0.0,0.0,0.0,0.0,0.0,0.0,0.0,0.0,0.0,0.0,0.0,0.0,0.0,0.0,0.0,0.0,0.0,0.0,0.0,0.0,0.0,0.0,0.0,0.0,0.0,0.0,0.0,0.0,0.0,0.0,0.0,0.0,0.0,0.0,0.0,0.0,0.0,0.0,0.0,0.0,0.0,0.0,0.0,0.0,0.0,0.0,0.0,0.0,0.0,0.0,0.0,0.0,0.0,0.0,0.0,0.0,0.0,0.0,0.0,-1.1922,-1.2968,-1.4001,-1.4589,-1.4836,-1.4877,-1.4669,-1.3868,-1.2859,-1.1637,0.0,0.0,0.0,0.0,0.0,0.0,0.0,0.0,0.0,0.0,0.0,0.0,0.0,0.0,0.0,0.0,0.0,0.0,0.0,0.0,0.0,0.0,0.0,0.0,0.0,0.0,0.0,0.0,0.0,0.0,0.0,0.0,0.0,0.0,0.0,0.0,0.0,0.0,0.0,0.0,0.0,0.0,0.0,0.0,0.0,0.0,0.0,0.0,0.0,0.0,0.0,0.0,0.0,0.0,0.0,0.0,0.0,0.0,0.0,0.0,0.0,0.0,0.0,0.0,0.0,0.0,0.0,0.0,0.0,0.0,0.0,0.0,0.0,0.0,0.0,0.0,0.0,0.0,0.0,0.0,0.0,0.0,0.0,0.0,0.0,0.0,0.0,0.0,0.0,0.0,0.0,0.0,0.0,0.0,0.0,0.0,0.0,0.0,0.0,0.0,0.0,0.0,-1.1485,-1.2581,-1.3653,-1.4282,-1.4509,-1.4543,-1.4362,-1.3808,-1.2847,-1.1475,0.0,0.0,0.0,0.0,0.0,0.0,0.0,0.0,0.0,0.0,0.0,0.0,0.0,0.0,0.0,0.0,0.0,0.0,0.0,0.0,0.0,0.0,0.0,0.0,0.0,0.0,0.0,0.0,0.0,0.0,0.0,0.0,0.0,0.0,0.0,0.0,0.0,0.0,0.0,0.0,0.0,0.0,0.0,0.0,0.0,0.0,0.0,0.0,0.0,0.0,0.0,0.0,0.0,0.0,0.0,0.0,0.0,0.0,0.0,0.0,0.0,0.0,0.0,0.0,0.0,0.0,0.0,0.0,0.0,0.0,0.0,0.0,0.0,0.0,0.0,0.0,0.0,0.0,0.0,0.0,0.0,0.0,0.0,0.0,0.0,0.0,0.0,0.0,0.0,0.0,0.0,0.0,0.0,0.0,0.0,0.0,0.0,0.0,0.0,0.0,0.0,0.0,-1.1485,-1.2434,-1.3434,-1.4028,-1.4088,-1.4088,-1.4088,-1.3547,-1.2726,-1.1542,0.0,0.0,0.0,0.0,0.0,0.0,0.0,0.0,0.0,0.0,0.0,0.0,0.0,0.0,0.0,0.0,0.0,0.0,0.0,0.0,0.0,0.0,0.0,0.0,0.0,0.0,0.0,0.0,0.0,0.0,0.0,0.0,0.0,0.0,0.0,0.0,0.0,0.0,0.0,0.0,0.0,0.0,0.0,0.0,0.0,0.0,0.0,0.0,0.0,0.0,0.0,0.0,0.0,0.0,0.0,0.0,0.0,0.0,0.0,0.0,-1.2058,0.0,0.0,0.0,0.0,0.0,0.0,0.0,0.0,0.0,0.0,0.0,0.0,0.0,0.0,0.0,0.0,0.0,0.0,0.0,0.0,0.0,0.0,0.0,0.0,0.0,0.0,0.0,0.0,0.0,0.0,0.0,0.0,0.0,0.0,0.0,0.0,0.0,0.0,0.0,0.0,0.0,-1.1485,-1.2434,-1.3434,-1.4028,-1.4088,-1.4088,-1.4088,-1.3547,-1.2899,-1.2164,0.0,0.0,0.0,0.0,0.0,0.0,0.0,0.0,0.0,0.0,0.0,0.0,0.0,0.0,0.0,0.0,0.0,0.0,0.0,0.0,0.0,0.0,0.0,0.0,0.0,0.0,0.0,0.0,0.0,0.0,0.0,0.0,0.0,0.0,0.0,0.0,0.0,0.0,0.0,0.0,0.0,0.0,0.0,0.0,0.0,0.0,0.0,0.0,0.0,0.0,0.0,0.0,0.0,0.0,0.0,0.0,0.0,0.0,0.0,0.0,0.0,-1.345,0.0,0.0,0.0,0.0,0.0,0.0,0.0,0.0,0.0,0.0,0.0,0.0,0.0,0.0,0.0,0.0,0.0,0.0,0.0,0.0,0.0,0.0,0.0,0.0,0.0,0.0,0.0,0.0,0.0,0.0,0.0,0.0,0.0,0.0,0.0,0.0,0.0,0.0,0.0,0.0,-1.1716,-1.2559,-1.3434,-1.4028,-1.3961,-1.3874,-1.3874,-1.3327,-1.277,-1.2131,-1.1243,0.0,0.0,0.0,0.0,0.0,0.0,0.0,0.0,0.0,0.0,0.0,0.0,0.0,0.0,0.0,0.0,0.0,0.0,0.0,0.0,0.0,0.0,0.0,0.0,0.0,0.0,0.0,0.0,0.0,0.0,0.0,0.0,0.0,0.0,0.0,0.0,0.0,0.0,0.0,0.0,0.0,0.0,0.0,0.0,0.0,0.0,0.0,0.0,0.0,0.0,0.0,0.0,0.0,0.0,-1.5543,-1.6746,-1.6921,-1.7711,-1.8761,-1.6904,-1.6195,-1.6206,0.0,0.0,0.0,0.0,0.0,0.0,0.0,0.0,0.0,0.0,0.0,0.0,0.0,0.0,0.0,0.0,0.0,0.0,0.0,0.0,0.0,0.0,0.0,0.0,0.0,-1.8952,-1.9414,0.0,0.0,0.0,0.0,0.0,0.0,0.0,0.0,0.0,0.0,0.0,0.0,-1.1961,-1.2659,-1.3414,-1.3948,-1.3753,-1.358,-1.3533,-1.306,-1.2576,-1.2087,-1.1643,-1.0995,0.0,0.0,0.0,0.0,0.0,0.0,0.0,0.0,0.0,0.0,0.0,0.0,0.0,0.0,0.0,0.0,0.0,0.0,0.0,0.0,0.0,0.0,0.0,0.0,0.0,0.0,0.0,0.0,0.0,0.0,0.0,0.0,-0.8074,-0.8575,0.0,0.0,0.0,0.0,0.0,0.0,0.0,0.0,0.0,0.0,0.0,0.0,0.0,0.0,-1.8892,-1.7813,-1.7528,-1.7989,-1.6891,-1.7086,-1.836,-1.808,-1.9252,-2.1446,-2.0784,0.0,-1.7771,-1.6324,0.0,0.0,0.0,0.0,0.0,0.0,0.0,0.0,0.0,0.0,0.0,0.0,0.0,0.0,0.0,0.0,0.0,0.0,0.0,0.0,0.0,0.0,-2.1652,-1.9989,-2.067,-2.1263,0.0,-1.8124,-1.6765,-1.5989,0.0,0.0,0.0,0.0,0.0,0.0,0.0,0.0,-1.1891,-1.2659,-1.334,-1.3626,-1.3626,-1.35,-1.3287,-1.2985,-1.275,-1.2677,-1.187,-1.1322,-1.1169,-1.0436,0.0,0.0,0.0,0.0,0.0,0.0,0.0,0.0,0.0,0.0,0.0,0.0,0.0,0.0,0.0,0.0,0.0,0.0,0.0,0.0,0.0,0.0,0.0,0.0,0.0,0.0,0.0,0.0,0.0,-0.9152,-1.0007,-1.0239,-1.0242,-0.9914,0.0,0.0,0.0,0.0,0.0,0.0,0.0,0.0,0.0,-1.7597,-1.8194,-1.9346,-2.1206,-1.9327,-1.8862,-1.9771,-1.7874,-1.8038,-1.9992,-1.9785,-2.0945,-2.2983,-2.2794,-2.2036,-2.0756,-1.838,-1.6493,-1.4878,0.0,0.0,0.0,0.0,0.0,-1.3094,-1.3667,0.0,0.0,0.0,0.0,0.0,0.0,0.0,0.0,0.0,0.0,0.0,0.0,0.0,0.0,-2.0762,-2.1104,-2.137,-2.0771,-1.9594,-1.8347,0.0,-1.6855,-1.6109,-1.4525,0.0,0.0,0.0,0.0,0.0,-1.2125,-1.2605,-1.3066,-1.3367,-1.3247,-1.3086,-1.2998,-1.2672,-1.2536,-1.2536,-1.2131,-1.1844,-1.1683,-1.0989,-1.0532,0.0,0.0,0.0,0.0,0.0,0.0,0.0,0.0,0.0,0.0,0.0,0.0,0.0,0.0,0.0,0.0,0.0,0.0,0.0,0.0,0.0,0.0,0.0,0.0,0.0,0.0,0.0,0.0,-1.0956,-1.1702,-1.1928,-1.217,-1.1933,0.0,0.0,0.0,0.0,0.0,0.0,-1.5568,-1.6227,-1.7809,-2.0663,-2.0964,-2.1828,-2.3398,-2.0761,-2.0045,-2.1139,-1.8913,-1.9015,-2.1188,-2.1394,-2.2548,-2.4386,-2.3963,-2.3713,-2.3274,-2.0078,-1.8046,-1.6799,-1.4754,-1.3854,-1.3707,-1.4148,-1.4222,-1.4202,-1.5356,-1.5676,-1.5658,-1.6126,0.0,-1.6031,-1.5973,0.0,0.0,0.0,0.0,-1.7845,-1.8714,0.0,-2.0052,-2.0518,-2.0732,-2.082,-2.1004,-2.0547,-1.9766,0.0,-1.832,-1.7484,-1.5305,0.0,0.0,0.0,0.0,-1.2248,-1.2298,-1.2596,-1.2878,-1.3066,-1.2924,-1.2757,-1.2677,-1.2425,-1.2305,-1.2305,-1.2231,-1.2091,-1.1913,-1.1303,-1.0855,-1.06,0.0,0.0,0.0,0.0,0.0,0.0,0.0,0.0,0.0,0.0,0.0,0.0,0.0,0.0,0.0,0.0,0.0,0.0,0.0,0.0,0.0,0.0,0.0,0.0,0.0,0.0,0.0,0.0,0.0,-1.3387,-1.378,0.0,0.0,0.0,0.0,-1.3085,-1.4432,-1.6093,-1.8101,-1.9402,-2.0964,-2.3036,-2.313,-2.3938,-2.5518,-2.2865,-2.1601,-2.1668,-2.0156,-2.0259,-2.1711,-2.2516,-2.4041,-2.5882,-2.4451,-2.4135,-2.4405,-2.0649,-1.9007,-1.8692,-1.5974,-1.4934,-1.4921,-1.4955,-1.5129,-1.5454,-1.6396,-1.6892,-1.7304,-1.8507,-1.8519,-1.7887,-1.6959,-1.6546,0.0,0.0,-1.6643,-1.6942,-1.7689,-1.7996,-1.831,-1.8954,-1.9394,-1.985,-2.0478,-2.0605,-2.0429,0.0,-1.9124,-1.7894,-1.5738,0.0,-1.3629,-1.1723,-1.1464,-1.1672,-1.2225,-1.2596,-1.279,-1.2804,-1.2797,-1.267,-1.2351,-1.2311,-1.2305,-1.2305,-1.2044,-1.1919,-1.1906,-1.1303,-1.0855,-1.06,-0.9679,0.0,0.0,0.0,0.0,0.0,0.0,0.0,0.0,0.0,0.0,0.0,0.0,0.0,0.0,0.0,0.0,0.0,0.0,0.0,0.0,0.0,0.0,0.0,0.0,0.0,0.0,0.0,0.0,-1.5022,-1.641,0.0,0.0,-1.6807,-1.7232,-1.7762,-1.8502,-1.9694,-2.1479,-2.2004,-2.3021,-2.4783,-2.485,-2.513,-2.5684,-2.3026,-2.2106,-2.2968,-2.0692,-2.0794,-2.3018,-2.4112,-2.5354,-2.6567,-2.5747,-2.536,-2.5013,-2.0998,-1.9352,-1.9109,-1.6512,-1.5518,-1.5518,-1.5518,-1.609,-1.695,-1.7279,-1.7933,-1.8851,-1.9823,-1.9789,-1.9307,-1.8944,-1.8226,-1.7581,-1.7588,-1.7499,-1.7466,-1.7737,-1.7672,-1.7785,-1.8794,-1.8535,-1.8394,-1.935,-1.8997,-1.8426,-1.8246,-1.8299,-1.7999,-1.6641,-1.5196,-1.3815,-1.2564,-1.2148,-1.2064,-1.2278,-1.2392,-1.2496,-1.2496,-1.2496,-1.2418,-1.2311,-1.2131,-1.2024,-1.2024,-1.1744,-1.1583,-1.1583,-1.1202,-1.0855,-1.06,-0.988,-0.9239,0.0,0.0,0.0,0.0,0.0,0.0,0.0,0.0,0.0,0.0,0.0,0.0,0.0,0.0,0.0,0.0,0.0,0.0,0.0,0.0,0.0,0.0,0.0,0.0,0.0,0.0,-1.5951,-1.6357,-1.8202,-1.9404,-1.9331,-1.977,-2.0429,-2.1272,-2.154,-2.239,-2.4033,-2.411,-2.459,-2.5684,-2.5693,-2.5693,-2.5693,-2.3484,-2.2818,-2.3692,-2.1862,-2.2139,-2.4328,-2.5615,-2.6905,-2.8017,-2.6822,-2.6253,-2.5818,-2.1365,-1.9497,-1.926,-1.6788,-1.5784,-1.5784,-1.5784,-1.6622,-1.7824,-1.8634,-1.9724,-2.0729,-2.0863,-2.0681,-2.0266,-1.935,-1.8493,-1.7766,-1.7378,-1.6975,-1.6696,-1.6811,-1.6545,-1.6486,-1.7617,-1.7293,-1.705,-1.8189,-1.7827,-1.7302,-1.7302,-1.7664,-1.7648,-1.6593,-1.5399,-1.4199,-1.3048,-1.2657,-1.2418,-1.2311,-1.2305,-1.2305,-1.2305,-1.2305,-1.2305,-1.2305,-1.2037,-1.1906,-1.1906,-1.1496,-1.1283,-1.1283,-1.0902,-1.0608,-1.0414,-0.9833,-0.9392,-0.9098,0.0,0.0,0.0,0.0,0.0,0.0,0.0,0.0,0.0,0.0,0.0,0.0,0.0,0.0,0.0,0.0,0.0,0.0,0.0,0.0,0.0,0.0,0.0,-1.0425,-1.3824,-1.6632,-1.7401,-1.9052,-2.022,-2.0424,-2.0752,-2.1612,-2.3241,-2.3374,-2.4042,-2.5616,-2.5693,-2.5693,-2.5693,-2.5635,-2.5635,-2.5693,-2.4353,-2.3692,-2.3741,-2.3782,-2.4377,-2.5614,-2.7053,-2.8693,-3.0253,-2.7546,-2.6725,-2.6869,-2.1643,-1.9505,-1.9222,-1.6749,-1.5784,-1.5784,-1.5825,-1.6709,-1.8141,-2.0531,-2.212,-2.2906,-2.1712,-2.1293,-2.0721,-1.8028,-1.7176,-1.6911,-1.572,-1.499,-1.4603,-1.4934,-1.4529,-1.437,-1.5455,-1.5655,-1.5944,-1.7009,-1.722,-1.722,-1.722,-1.722,-1.6782,-1.5526,-1.5258,-1.467,-1.3076,-1.2784,0.0,-1.2338,-1.2305,-1.2305,-1.2305,-1.2305,-1.2305,-1.2305,-1.2024,-1.1893,-1.1893,-1.1303,-1.0982,-1.0995,-1.0448,-1.011,-1.0134,-0.9544,-0.9384,-0.9715,0.0,0.0,0.0,0.0,0.0,0.0,0.0,0.0,0.0,0.0,0.0,0.0,0.0,0.0,0.0,0.0,0.0,0.0,0.0,0.0,0.0,0.0,-0.9927,-1.0932,-1.4474,-1.7529,-1.9184,-2.0614,-2.2094,-2.3627,-2.3843,-2.4231,-2.4966,-2.5053,-2.5208,-2.5684,-2.5693,-2.5693,-2.5693,-2.4766,-2.4716,-2.5684,-2.3434,-2.3226,-2.5177,-2.5062,-2.5711,-2.7111,-2.9247,-3.0504,-3.0885,-2.8958,-2.7524,-2.6245,-2.1761,-1.9273,-1.8048,-1.6433,-1.5784,-1.592,-1.685,-1.8495,-2.0531,-2.2085,-2.2818,-2.2906,-2.1712,-2.0711,-1.9699,-1.8064,-1.694,-1.6114,-1.5799,-1.5291,-1.4863,-1.4988,-1.4529,-1.437,-1.5455,-1.5095,-1.4817,-1.591,-1.5545,-1.4985,-1.4985,-1.4985,-1.5115,-1.5502,-1.4593,-1.3617,-1.3146,0.0,0.0,-1.2311,-1.2305,-1.2305,-1.2305,-1.2305,-1.2305,-1.2305,-1.1837,-1.155,0.0,-1.1035,-1.0807,-1.0982,-1.0842,-1.0655,-1.0472,-1.0311,-1.0057,0.0,0.0,0.0,0.0,0.0,0.0,0.0,0.0,0.0,0.0,0.0,0.0,0.0,0.0,0.0,0.0,0.0,0.0,0.0,0.0,0.0,0.0,-0.6027,-0.9957,-1.1349,-1.5509,-1.8913,-2.0229,-2.2116,-2.3824,-2.5235,-2.5352,-2.5459,-2.5664,-2.5859,-2.5701,-2.5069,-2.5239,-2.5023,-2.4399,-2.4025,-2.4236,-2.502,-2.3922,-2.4433,-2.6476,-2.6433,-2.7547,-2.9818,-3.1216,-3.2172,0.0,-3.0363,-2.8253,-2.5996,-2.1822,-1.9175,0.0,0.0,0.0,0.0,0.0,-1.967,-2.1471,-2.2677,-2.2775,-2.2173,-2.0935,-1.9716,-1.8495,-1.7264,-1.6386,-1.5784,-1.5784,-1.5498,-1.5117,-1.5042,-1.4623,-1.4399,-1.4929,-1.4531,-1.4292,-1.4894,-1.4531,-1.4088,-1.4088,0.0,0.0,-1.4936,-1.42,-1.3534,-1.3407,-1.2986,-1.2639,0.0,-1.2378,-1.2305,-1.2305,-1.2305,-1.2305,-1.2305,-1.1877,0.0,0.0,0.0,-1.0942,-1.0989,-1.0995,0.0,0.0,0.0,0.0,0.0,0.0,0.0,0.0,-1.1202,-1.1283,0.0,0.0,0.0,0.0,0.0,0.0,0.0,0.0,0.0,0.0,0.0,0.0,0.0,0.0,0.0,0.0,-0.5521,-0.9914,-1.1672,-1.6518,-2.0143,-2.072,-2.3083,-2.4938,-2.5645,-2.5693,-2.5703,-2.5762,-2.6014,-2.5566,-2.423,0.0,0.0,0.0,0.0,-2.3999,-2.4116,-2.5208,-2.6372,-2.7589,-2.7981,-2.9818,-3.2805,-3.306,-3.3756,-3.4541,-3.1619,-2.8733,-2.5764,-2.1821,-1.9113,-1.7365,-1.6244,-1.5967,-1.6473,-1.8672,-2.035,0.0,0.0,0.0,0.0,-1.9898,-1.868,-1.7458,-1.6204,-1.5784,-1.5784,-1.5784,-1.5598,-1.5291,-1.5075,-1.4723,-1.4402,-1.4148,-1.4088,-1.4088,-1.4088,-1.4088,-1.4088,-1.4088,-1.4088,-1.4088,-1.4088,-1.4055,-1.3948,-1.364,-1.3367,0.0,-1.2817,-1.2522,-1.2305,-1.2305,0.0,0.0,-1.2305,-1.2037,-1.1906,-1.1906,-1.1623,-1.1363,-1.1102,-1.1122,-1.1122,-1.1089,-1.1122,-1.1523,-1.2305,-1.2338,-1.2665,-1.3227,-1.187,-1.1677,0.0,0.0,0.0,0.0,0.0,0.0,0.0,0.0,0.0,0.0,0.0,0.0,0.0,0.0,0.0,0.0232,-0.4056,-0.8062,-1.1414,-1.5855,-1.9244,-2.0649,-2.1468,-2.2948,-2.5441,-2.5693,-2.584,-2.624,-2.5179,-2.4566,-2.4677,-2.3554,0.0,-2.2482,-2.278,-2.334,-2.4116,-2.5448,-2.662,-2.7636,0.0,0.0,-3.2847,-3.471,-3.5238,-3.4568,-3.1982,-2.8566,-2.4545,-2.1787,-1.8901,-1.6157,-1.592,-1.7023,-1.8856,-1.9306,-2.0899,-2.2775,-2.3003,-2.2306,-2.1114,-1.9898,-1.868,-1.7458,-1.6204,-1.5784,0.0,-1.5784,-1.5451,-1.5082,-1.5022,-1.4569,-1.4155,-1.4102,-1.4088,-1.4088,-1.4088,-1.4088,-1.4088,-1.4088,-1.4088,-1.4088,-1.4088,-1.3888,-1.3666,-1.3613,-1.3186,-1.2851,-1.279,-1.2522,-1.2305,-1.2305,-1.2305,-1.2305,-1.2305,-1.2037,-1.1906,-1.1906,-1.1852,-1.1792,-1.1739,-1.1924,-1.1937,-1.1739,-1.1931,-1.2131,-1.2305,-1.2583,-1.2973,-1.3507,-1.3026,-1.2999,0.0,0.0,0.0,0.0,0.0,0.0,0.0,0.0,0.0,0.0,0.0,1.1884,0.9743,0.0,0.546,0.0578,-0.3593,-0.7601,-1.1569,-1.5345,-1.8484,-2.053,-2.2202,-2.3842,-2.5538,-2.5693,-2.5555,-2.5299,-2.4774,-2.4,-2.2926,-2.237,-2.1702,-2.0948,-2.2251,-2.3061,-2.3314,-2.587,-2.7631,-2.8541,-3.1432,-3.3398,-3.4546,-3.6263,-3.6422,-3.5292,-3.2874,-2.9018,-2.4144,-1.9997,-1.7684,-1.6763,-1.6763,-1.7902,-1.9579,-2.0169,-2.1534,-2.3003,-2.2403,-2.1391,-2.0215,-1.8993,-1.777,-1.6622,-1.5967,-1.5784,-1.5784,-1.5784,-1.5518,-1.515,-1.5042,-1.4636,-1.4269,-1.4122,-1.4088,-1.4088,-1.4088,-1.4088,-1.4088,-1.4088,-1.4088,-1.4088,-1.4088,-1.3968,-1.3868,-1.3868,-1.336,-1.3018,-1.3018,-1.2585,-1.2305,-1.2305,-1.2305,-1.2305,-1.2305,-1.2171,-1.2084,-1.2084,-1.2084,-1.2084,-1.2084,-1.2225,-1.2231,-1.2091,-1.2409,-1.2605,-1.2759,-1.3053,-1.3427,-1.3861,-1.3714,-1.3728,0.0,0.0,0.0,0.0,0.0,0.0,0.0,0.0,0.9866,1.0567,1.1878,1.251,1.1084,0.8859,0.5603,0.0747,-0.3304,-0.7412,-1.1822,-1.4743,-1.7545,-2.0442,-2.3156,-2.5035,-2.5654,-2.5693,-2.5279,-2.4299,-2.4321,-2.335,-2.1167,-2.1104,-2.0644,-1.9424,-2.1956,-2.311,-2.2642,-2.6663,-2.9081,-2.9863,-3.2296,-3.4533,-3.6565,-3.7625,-3.7276,-3.5639,-3.2159,-2.8021,-2.3377,-1.8012,-1.6574,-1.7692,-1.7692,-1.8596,-1.9988,-2.0935,-2.1943,-2.2633,-2.1623,-2.035,-1.8993,-1.8002,-1.685,-1.5784,-1.5784,-1.5784,-1.5784,-1.5784,-1.5578,-1.5257,-1.5068,-1.4703,-1.4376,-1.4142,-1.4088,-1.4088,-1.4088,-1.4088,-1.4088,-1.4088,-1.4088,-1.4088,-1.4088,-1.4088,-1.4088,-1.4088,-1.3634,-1.3273,-1.322,-1.2726,-1.2365,-1.2311,-1.2305,-1.2305,-1.2305,-1.2305,-1.2305,-1.2305,-1.2305,-1.2305,-1.2305,-1.2305,-1.2305,-1.2305,-1.263,-1.2938,-1.3213,-1.346,-1.3753,-1.4088,-1.4088,-1.4088,0.9606,0.8146,0.6552,0.6241,0.676,0.7349,0.0,0.0,1.1364,0.9957,1.162,1.2631,1.0385,0.7893,0.4787,0.0508,-0.2704,-0.6527,-1.1825,-1.3672,-1.6026,-2.0119,-2.2518,-2.4347,-2.5577,-2.5693,-2.5452,-2.4747,-2.3518,-2.2397,-2.1553,-2.035,-1.9591,-1.9424,-2.2235,-2.3535,-2.3127,-2.7985,-3.0755,-3.137,-3.44,-3.6434,-3.7663,-3.8745,-3.7524,-3.4185,-2.6893,-2.2767,-2.0909,-1.7322,-1.6574,-1.7692,-1.7692,-1.9085,-2.1114,-2.1248,-2.1382,-2.148,-2.1364,-1.9832,-1.787,-1.7731,-1.685,-1.5784,-1.5784,-1.5784,-1.5784,-1.5784,-1.5438,-1.5048,-1.5015,-1.4549,-1.4128,-1.4095,-1.4088,-1.4088,-1.4088,-1.4088,-1.4088,-1.4088,-1.4088,-1.4088,-1.4088,-1.4088,-1.4088,-1.4088,-1.3808,-1.346,-1.324,-1.2945,-1.263,-1.2331,-1.2305,-1.2305,-1.2305,-1.2305,-1.2305,-1.2305,-1.2305,-1.2305,-1.2305,-1.2305,-1.2305,-1.2305,-1.263,-1.2938,-1.3213,-1.346,-1.3753,-1.4088,-1.4088,-1.4088,0.9509,0.7723,0.0,0.0,0.6758,0.7184,0.7238,0.8967,1.0629,1.0748,1.2351,1.3138,1.1371,0.8897,0.5487,0.0,-0.261,-0.6157,-1.0936,-1.3355,-1.5574,-1.8196,-2.0718,-2.3086,-2.514,-2.5538,-2.501,-2.3341,-2.2792,-2.1791,-2.0125,-1.9605,-1.9424,-1.9424,-2.2266,-2.4001,-2.4336,-2.918,-3.2018,-3.2823,-3.6227,-3.7864,-3.7829,-3.8774,-3.628,-3.0893,-2.5083,-2.1471,-1.9361,-1.6819,-1.6574,-1.7692,-1.7692,-1.8726,-2.026,-2.026,-2.0711,-2.1114,-1.9687,-1.8557,-1.7598,-1.685,-1.6251,-1.5784,-1.5784,-1.5784,-1.5784,-1.5784,-1.5411,-1.5008,-1.5008,-1.4529,-1.4088,-1.4088,-1.4088,-1.4088,-1.4088,-1.4088,-1.4088,-1.4088,-1.4088,-1.4088,-1.4088,-1.4088,-1.4088,-1.4088,-1.3793,-1.356,-1.344,-1.3046,-1.267,-1.2338,-1.2305,-1.2305,-1.2305,-1.2305,-1.2305,-1.2305,-1.2305,-1.2305,-1.2305,-1.2305,-1.2385,-1.2596,-1.2859,-1.3166,-1.342,-1.3761,-1.3968,-1.4088,-1.4088,-1.4088,0.902,0.0,0.0,0.6461,0.6871,0.7169,0.7213,0.8498,0.9953,1.1001,1.2069,1.2522,1.1556,0.8894,0.5402,0.1078,-0.2357,-0.5857,-0.9713,-1.2192,-1.4293,-1.6017,-1.846,-2.0859,-2.3062,-2.4078,-2.3913,-2.2239,-2.1925,-2.0985,-1.9011,-1.9512,-1.9892,-1.9975,-2.2878,-2.4968,-2.5982,-3.0171,-3.3059,-3.4633,-3.7644,-3.8939,-3.8569,-3.769,-3.4057,-2.8145,-2.4021,-2.0875,-1.8554,-1.6725,-1.6651,-1.7692,-1.7318,-1.8133,-1.9405,-1.8718,-1.926,-2.0079,-1.8326,-1.7458,-1.7037,-1.6109,-1.5784,-1.5784,-1.5784,-1.5784,-1.5784,-1.5784,-1.5411,-1.5008,-1.5008,-1.4529,-1.4088,-1.4088,-1.4088,-1.4088,-1.4088,-1.4088,-1.4088,-1.4088,-1.4088,-1.4088,-1.4088,-1.4088,-1.4088,-1.4088,-1.3901,-1.3693,-1.3613,-1.312,-1.267,-1.2338,-1.2305,-1.2305,-1.2305,-1.2305,-1.2305,-1.2305,-1.2305,-1.2338,-1.2418,-1.2345,-1.2478,-1.2904,-1.3093,-1.3313,-1.36,-1.3941,-1.4088,-1.4088,-1.4088,-1.4088,0.0,0.0,0.6364,0.662,0.7031,0.7404,0.7553,0.8816,0.9985,1.0038,1.0092,1.0096,1.0047,0.6802,0.36,0.1991,-0.1795,-0.5486,-0.8301,-0.9748,-1.1485,-1.3973,-1.5864,-1.7429,0.0,-2.0618,-2.191,-2.2084,-2.0921,-1.9787,-1.8948,-2.0292,-2.1193,-2.1521,-2.448,-2.6697,-2.7994,-3.0867,-3.3898,-3.7099,-3.8475,-3.9617,-4.0439,-3.5193,-3.0735,-2.692,-2.2973,-2.0303,-1.8577,-1.696,-1.6847,-1.7598,-1.6339,-1.7343,-1.9214,-1.6796,-1.6709,-1.7777,-1.7738,-1.6897,-1.5825,-1.5825,-1.5784,-1.5784,-1.5784,-1.5784,-1.5784,-1.5784,-1.5411,-1.5008,-1.5008,-1.4529,-1.4088,-1.4088,-1.4088,-1.4088,-1.4088,-1.4088,-1.4088,-1.4088,-1.4088,-1.4088,-1.4088,-1.4088,-1.4088,-1.4088,-1.4082,-1.3968,-1.364,-1.312,-1.267,-1.2338,-1.2305,-1.2305,-1.2305,-1.2305,-1.2305,-1.2305,-1.2305,-1.2432,-1.2757,-1.2452,-1.2585,-1.3186,-1.3206,-1.3313,-1.36,-1.3941,-1.4088,-1.4088,-1.4088,-1.4088,0.0,0.0,0.6773,0.7071,0.7407,0.7678,0.7729,0.8152,0.8803,0.9667,0.9172,0.8555,0.8555,0.6069,0.3227,0.0877,-0.231,-0.5141,-0.7095,-0.9233,-1.0914,-1.1765,-1.321,0.0,0.0,0.0,0.0,-2.0488,-2.0865,-2.0858,-2.0146,-2.1634,-2.268,-2.3031,-2.591,-2.843,-3.0531,-3.3284,-3.6338,-3.9664,-3.9298,-3.8486,-3.7264,-3.3351,-2.9048,-2.4572,-2.2013,-1.9566,-1.7301,-1.6366,-1.615,-1.6386,-1.5967,-1.6292,-1.6929,-1.6103,-1.6062,-1.6433,-1.6433,-1.6157,-1.5784,-1.5784,-1.5784,-1.5784,-1.5784,-1.5784,-1.5784,-1.5784,-1.5411,-1.5008,-1.5008,-1.4529,-1.4088,-1.4088,-1.4088,-1.4088,-1.4088,-1.4088,-1.4088,-1.4088,-1.4088,-1.4088,-1.4088,-1.4088,-1.4088,-1.4088,-1.4088,-1.3908,-1.338,-1.32,-1.2869,-1.2334,-1.2305,-1.2305,-1.2305,-1.168,-1.1593,-1.2261,-1.184,-1.1942,-1.2769,-1.2847,-1.3093,-1.3447,-1.346,-1.36,-1.3941,-1.4041,-1.4088,-1.4088,-1.4088,-1.4088,0.9503,0.8267,0.7034,0.7377,0.7634,0.7797,0.7746,0.7773,0.8017,0.88,0.7966,0.7052,0.7009,0.4955,0.2709,0.0862,-0.2282,-0.4831,-0.568,-0.8227,-0.9961,-0.9898,-1.1792,-1.3191,0.0,0.0,0.0,-1.8858,-1.9835,-2.0519,-2.0685,-2.2817,-2.447,-2.53,-2.768,-3.0344,-3.3317,-3.5353,-3.8022,-4.126,-3.9687,-3.7541,-3.4951,-3.1786,-2.7505,-2.2586,-2.147,-1.9259,-1.652,-1.6146,-1.5925,-1.5784,-1.5784,-1.5784,-1.5784,-1.5784,-1.5784,-1.5784,-1.5784,-1.5784,-1.5784,-1.5784,-1.5784,-1.5784,-1.5784,-1.5486,-1.5222,-1.5557,-1.4996,-1.4379,-1.4741,-1.4449,-1.4088,-1.4088,-1.4088,-1.4088,-1.4088,-1.4088,-1.4088,-1.4088,-1.4088,-1.4088,-1.4088,-1.4088,-1.4088,-1.4088,-1.4088,-1.3901,-1.3427,-1.332,-1.312,-1.2547,-1.2137,-1.1883,-1.176,-1.0899,-1.0603,-1.1248,-1.1298,-1.1655,-1.2458,-1.2956,-1.3394,-1.3753,-1.366,-1.3746,-1.4088,-1.4088,-1.4088,-1.4088,-1.4088,-1.4088,0.9942,0.8642,0.7289,0.7546,0.7719,0.7777,0.7641,0.7695,0.7695,0.7361,0.6418,0.563,0.0,0.0,0.1882,0.1888,-0.1681,-0.4423,-0.4239,-0.6794,-0.8679,0.0,0.0,0.0,0.0,0.0,0.0,-1.7206,0.0,-1.8952,-2.0762,-2.3993,-2.6546,-2.8172,-2.9683,-3.2342,-3.6091,-3.6989,-3.885,-4.1676,-3.9486,-3.6771,-3.3546,-3.0352,-2.6101,-2.1197,-2.1106,-1.9256,-1.6321,-1.6259,-1.6086,-1.5784,-1.5784,-1.5784,-1.5784,-1.5784,-1.5784,-1.5784,-1.5784,-1.5784,-1.5784,-1.5784,-1.5778,-1.5683,-1.5683,-1.4794,-1.3999,-1.4993,-1.4187,-1.3213,-1.4232,-1.4302,-1.4088,-1.4088,-1.4088,-1.4088,-1.4088,-1.4088,-1.4088,-1.4088,-1.4088,-1.4088,-1.4088,-1.4088,-1.4088,-1.4088,-1.4088,-1.3996,-1.3628,-1.3601,-1.3365,-1.279,-1.1803,-1.107,-1.0763,-0.9918,-0.9441,-0.9486,-1.0723,-1.1564,-1.1897,-1.2768,-1.352,-1.4075,-1.3808,-1.3766,-1.4088,-1.4088,-1.4088,-1.4088,-1.4088,-1.4088,1.0113,0.9638,0.8902,0.8119,0.7868,0.7801,0.7767,0.7526,0.7033,0.6233,0.4949,0.3742,0.2924,0.0,0.0,0.0519,-0.2313,0.0,-0.4426,-0.7097,0.0,-0.9043,0.0,-1.1576,-1.0003,-1.2636,0.0,0.0,-1.7583,-2.0317,-2.2608,-2.6512,-2.8992,-2.9745,-3.2079,-3.4451,-3.667,-3.9272,-3.955,-3.7529,-3.6803,-3.4273,-3.0223,-2.7409,-2.4345,-2.1122,-1.9676,-1.7981,-1.6301,-1.6032,-1.5899,-1.5784,-1.5784,-1.5784,-1.5784,-1.5784,-1.5784,-1.5784,-1.5784,-1.5784,-1.5784,-1.5784,-1.5146,-1.4364,-1.4364,-1.341,-1.2489,-1.3602,-1.3395,-1.3119,-1.4224,-1.4302,-1.4088,-1.4088,-1.4088,-1.4088,-1.4088,-1.4088,-1.4088,-1.4088,-1.4088,-1.4088,-1.4088,-1.4088,-1.4088,-1.4088,-1.4088,-1.3999,-1.3622,-1.3612,-1.3098,-1.1745,-1.1353,-1.0803,-0.9785,-0.8784,-0.8607,-0.946,-1.0139,-1.0937,-1.1849,-1.3185,-1.3935,-1.4082,-1.4015,-1.4015,-1.4088,-1.4088,-1.4088,-1.4088,-1.4088,-1.4088,1.087,1.0324,0.9575,0.8312,0.7923,0.776,0.7563,0.6953,0.6208,0.5363,0.3879,0.0,0.1822,0.0,0.0,0.0,0.0,0.0,-0.5363,-0.748,-0.936,0.0,-1.1772,0.0,-1.1661,-1.3839,-1.5528,0.0,-1.8796,-2.1261,-2.3307,-2.7591,-3.0353,-3.1173,-3.3035,-3.4907,-3.6847,-3.8609,-3.8286,-3.5839,-3.3561,-3.0996,-2.8101,-2.4868,-2.2193,-2.0059,0.0,-1.7474,-1.6066,-1.5899,-1.5784,-1.5784,-1.5784,-1.5784,-1.5784,-1.5784,-1.5784,-1.5784,-1.5784,-1.5784,-1.5784,-1.5784,-1.4949,-1.3926,-1.3926,-1.2523,-1.1159,-1.2241,-1.2316,-1.2321,-1.3385,-1.386,-1.4088,-1.4088,-1.4088,-1.4088,-1.4088,-1.4088,-1.4088,-1.4088,-1.4088,-1.4088,-1.4088,-1.4088,-1.4088,-1.4088,-1.4088,-1.3844,-1.3134,-1.3043,-1.2642,-1.1629,-1.0578,-0.9651,-0.8797,-0.779,-0.7533,-0.8208,-0.9091,-1.0024,-1.1119,-1.253,-1.3497,-1.3883,-1.4043,-1.4088,-1.4088,-1.4088,-1.4088,-1.4088,-1.4088,-1.4088,1.1683,1.0837,0.9899,0.8382,0.7909,0.7621,0.7058,0.6207,0.5316,0.4472,0.0,0.1688,0.1416,-0.0234,-0.1654,-0.1934,0.0,-0.6141,-0.6432,-0.7886,-0.9568,-1.1341,-1.3069,-1.4203,-1.4407,-1.6207,-1.7842,-1.9083,-2.0929,-2.2596,-2.3934,-2.8203,-3.1254,-3.2692,-3.3253,-3.4432,-3.6334,-3.6048,-3.5426,-3.4487,-3.0072,-2.7393,-2.6215,-2.254,-2.0059,-1.8615,0.0,0.0,-1.5784,-1.5784,-1.5784,-1.5784,-1.5784,-1.5784,-1.5784,-1.5784,-1.5784,-1.5784,-1.5784,-1.5784,-1.5784,-1.5581,-1.4657,-1.3584,-1.344,-1.1672,-0.9926,-1.0944,-1.1047,-1.1091,-1.2293,-1.3244,-1.3864,-1.3864,-1.3997,-1.3997,-1.3695,-1.3652,-1.3695,-1.3822,-1.387,-1.3913,-1.4088,-1.4088,-1.4046,-1.3877,-1.3857,-1.3419,-1.2247,-1.2216,-1.2083,-1.1531,-0.9618,-0.8251,-0.7833,-0.6979,-0.653,-0.6709,-0.7924,-0.9065,-0.9993,-1.1486,-1.2661,-1.3404,-1.3866,-1.4088,-1.4088,-1.4088,-1.4088,-1.4088,-1.4088,-1.4088,1.1538,1.1395,1.1019,0.8577,0.7834,0.7359,0.6266,0.5591,0.0,0.0,0.0,0.1373,0.0451,-0.0038,-0.0698,-0.1816,0.0,0.0,0.0,0.0,-0.9787,0.0,0.0,0.0,0.0,0.0,0.0,0.0,0.0,0.0,-2.726,-3.0274,-3.2849,-3.486,-3.4041,-3.3778,-3.416,-3.2437,-3.0585,-2.8588,-2.6599,-2.4469,-2.2137,-2.0076,-1.8844,-1.8278,0.0,0.0,-1.5784,-1.5784,-1.5784,-1.5784,-1.5784,-1.5784,-1.5784,-1.5784,-1.5784,-1.5784,-1.5784,-1.5784,-1.5635,-1.4555,-1.3349,-1.2042,-1.1019,-0.9498,-0.8419,-0.9536,-0.9651,-0.9912,-1.2065,-1.262,-1.2589,-1.2589,-1.3379,-1.3561,-1.1649,-1.1214,-1.1472,-1.2419,-1.2613,-1.2936,-1.3919,-1.4088,-1.3743,-1.2765,-1.2596,-1.2204,-1.1048,-1.1736,-1.1521,-0.9469,-0.8721,-0.7951,-0.6843,-0.65,-0.644,-0.6699,-0.7789,-0.8644,-0.9087,-1.1156,-1.2353,-1.2523,-1.3574,-1.4088,-1.4088,-1.4088,-1.4088,-1.4088,-1.4088,-1.4088,1.1764,1.1502,1.1091,0.8548,0.7263,0.6433,0.5641,0.0,0.0,0.0,0.0,0.0625,0.0102,0.0,0.0,0.0,0.0,0.0,0.0,0.0,0.0,0.0,0.0,0.0,0.0,0.0,0.0,0.0,0.0,0.0,-2.7649,-3.0743,-3.2864,-3.3707,-3.3154,-3.2049,-3.0398,-2.8739,-2.7009,-2.5198,-2.3207,-2.152,-2.0114,-1.8408,-1.7513,-1.7202,0.0,0.0,-1.5784,-1.5784,-1.5784,-1.5784,-1.5784,-1.5784,-1.5784,-1.5784,-1.5784,-1.5784,-1.5784,-1.5384,-1.4609,-1.3295,-1.2431,-1.1653,-1.0391,-0.9011,-0.8028,-0.8559,-0.9001,-0.9562,-1.0601,-1.1216,-1.1494,-1.1413,-1.1863,-1.1955,-1.0826,-1.0611,-1.0773,-1.1305,-1.1396,-1.1605,-1.218,-1.2281,-1.206,-1.1507,-1.1438,-1.1,-0.9857,-1.0111,-0.9995,-0.8905,-0.8016,-0.7263,-0.6662,-0.6428,-0.6425,-0.6695,-0.7219,-0.7865,-0.8593,-1.0424,-1.1616,-1.208,-1.341,-1.4088,-1.4088,-1.4088,-1.4088,-1.4088,-1.4088,-1.4088,1.2175,1.1807,1.1303,0.8762,0.7172,0.5978,0.5033,0.3239,0.0,0.0,0.0336,-0.0236,-0.0034,0.0,-0.1762,0.0,0.0,0.0,0.0,0.0,0.0,0.0,0.0,0.0,0.0,0.0,0.0,0.0,0.0,0.0,0.0,-3.0919,-3.2447,-3.2089,-3.1181,-2.9513,-2.704,-2.486,-2.3422,-2.2655,-1.9972,-1.8693,-1.8635,-1.7303,-1.6513,-1.6166,0.0,0.0,0.0,-1.5784,-1.5784,-1.5784,-1.5784,-1.5784,-1.5784,-1.5784,-1.5635,-1.5391,-1.5391,-1.4561,-1.3247,-1.1945,-1.1512,-1.1263,-0.9948,-0.8825,-0.7988,-0.7988,-0.8537,-0.9108,-0.9244,-0.9858,-1.0436,-1.0564,-1.0221,-0.9918,-1.0178,-1.0048,-0.9908,-1.0173,-1.0221,-1.033,-1.0576,-1.0583,-1.0537,-1.0284,-1.0229,-0.9808,-0.868,-0.8411,-0.8336,-0.846,-0.7404,-0.6668,-0.6692,-0.647,-0.6407,-0.6692,-0.6709,-0.7137,-0.8088,-0.974,-1.0926,-1.1617,-1.3243,-1.4088,-1.4088,-1.4088,-1.4088,-1.4088,-1.4088,-1.4088,1.2803,1.2859,1.2582,0.9826,0.8375,0.6986,0.4499,0.0,0.0,0.0343,-0.0571,-0.094,-0.0135,-0.0723,0.0,0.0,0.0,0.0,0.0,0.0,0.0,0.0,0.0,0.0,0.0,0.0,0.0,0.0,0.0,0.0,0.0,-3.1576,-3.2124,-3.2077,-2.8188,-2.598,-2.57,-2.0737,-1.883,-1.9922,-1.7147,-1.621,-1.6941,-1.677,-1.64,-1.5824,0.0,0.0,0.0,-1.5784,-1.5784,-1.5784,-1.5784,-1.5784,-1.5784,-1.5784,-1.5045,-1.407,-1.407,-1.3199,-1.1848,-1.0583,-1.0194,-0.9948,-0.8577,-0.8088,-0.7988,-0.7988,-0.7883,-0.803,-0.9029,-0.9178,-0.9345,-1.0356,-0.8965,-0.7705,-0.8803,-0.8189,-0.7749,-0.8838,-0.9056,-0.9376,-1.0433,-1.0593,-1.027,-0.9226,-0.9074,-0.8638,-0.7438,-0.7132,-0.7059,-0.7084,-0.676,-0.6583,-0.6688,-0.647,-0.6426,-0.6687,-0.6715,-0.6876,-0.7221,-0.9409,-1.0636,-1.0716,-1.297,-1.4088,-1.4088,-1.4088,-1.4088,-1.4088,-1.4088,-1.4088,1.3406,1.3542,1.3135,0.9953,0.7767,0.5926,0.4112,0.0,0.0582,0.0102,-0.0706,-0.104,-0.0168,-0.0712,-0.1184,0.0,-0.2246,-0.3754,0.0,0.0,0.0,0.0,0.0,0.0,0.0,0.0,0.0,0.0,0.0,0.0,0.0,-2.8697,-2.8916,-2.8177,-2.4764,-2.2218,-2.0694,-1.7669,-1.647,-1.7048,-1.5785,-1.5685,-1.67,-1.6526,-1.6219,-1.5825,0.0,0.0,0.0,-1.6622,-1.648,-1.5784,-1.5784,-1.5784,-1.573,-1.4949,-1.4316,-1.3776,-1.2963,-1.1848,-1.0681,-1.0145,-0.946,-0.8676,-0.8187,-0.7988,-0.7988,-0.7988,-0.7889,-0.7801,-0.8175,-0.8045,-0.7925,-0.84,-0.7793,-0.7228,-0.7709,-0.7445,-0.7228,-0.7709,-0.7812,-0.7948,-0.8404,-0.85,-0.8332,-0.7885,-0.7834,-0.7654,-0.7183,-0.6966,-0.6931,-0.701,-0.6692,-0.6538,-0.6559,-0.6416,-0.6419,-0.6701,-0.6704,-0.6831,-0.7085,-0.8694,-0.9881,-1.0599,-1.2203,-1.3379,-1.4088,-1.4088,-1.4088,-1.4088,-1.4088,-1.4088,1.344,1.3516,1.2948,1.0057,0.7422,0.5186,0.0,0.0,0.0,0.0,-0.0706,-0.104,-0.0168,-0.0706,-0.1024,0.0,-0.1537,-0.3011,-0.3864,0.0,0.0,0.0,0.0,0.0,0.0,0.0,0.0,0.0,0.0,0.0,0.0,-2.4173,-2.4406,-2.424,-2.1162,-1.8664,-1.6878,-1.4963,-1.4478,-1.5247,-1.4646,-1.5122,-1.6573,-1.6366,-1.6112,0.0,0.0,0.0,0.0,-1.6756,-1.6622,-1.5778,-1.5391,-1.5242,-1.5092,-1.3782,-1.3054,-1.2619,-1.1653,-1.0485,-0.941,-0.941,-0.8775,-0.7988,-0.7988,-0.7988,-0.7988,-0.7988,-0.7899,-0.7706,-0.7512,-0.7257,-0.7095,-0.7095,-0.7095,-0.7095,-0.7095,-0.7095,-0.7095,-0.7095,-0.7095,-0.7095,-0.7095,-0.7095,-0.7095,-0.7095,-0.7095,-0.7082,-0.7041,-0.6915,-0.688,-0.6932,-0.6624,-0.6484,-0.6573,-0.6448,-0.6458,-0.6701,-0.6744,-0.6871,-0.7082,-0.8239,-0.9257,-1.0062,-1.1551,-1.2723,-1.3561,-1.3913,-1.4088,-1.4088,-1.4088,-1.4088,1.2636,1.2569,1.1951,1.0305,0.779,0.5282,0.0,0.1591,0.0,0.0,-0.0706,-0.104,-0.0168,-0.0706,-0.1024,-0.0144,-0.1004,-0.2323,-0.3784,0.0,0.0,0.0,0.0,0.0,0.0,0.0,0.0,0.0,0.0,0.0,0.0,0.0,-1.8736,-2.1263,-1.7432,-1.5376,-1.5323,-1.2537,-1.2461,-1.4989,-1.3514,-1.4048,-1.6279,-1.6321,0.0,0.0,0.0,0.0,0.0,-1.5825,-1.5825,-1.5683,-1.4411,-1.392,-1.3776,-1.2431,-1.1116,-1.0047,-0.9998,-0.9167,-0.8038,-0.8038,-0.7988,-0.7988,-0.7988,-0.7988,-0.7988,-0.7988,-0.7828,-0.7529,-0.7179,-0.7098,-0.7095,-0.7095,-0.7095,-0.7095,-0.7095,-0.7095,-0.7095,-0.7095,-0.7095,-0.7095,-0.7095,-0.7095,-0.7095,-0.7095,-0.7095,-0.7045,-0.6906,-0.6797,-0.6644,-0.6535,-0.6388,-0.6419,-0.6675,-0.6593,-0.6539,-0.6701,-0.6824,-0.6947,-0.7115,-0.8239,-0.8886,-0.8926,-1.116,-1.2328,-1.2328,-1.3512,-1.4088,-1.4088,-1.4088,-1.4088,1.2625,1.3127,1.2833,1.0579,0.8476,0.6429,0.4499,0.2406,0.0736,0.0136,-0.0706,-0.104,-0.0168,-0.1242,-0.1762,-0.0265,-0.1426,0.0,0.0,0.0,0.0,0.0,0.0,0.0,0.0,0.0,0.0,0.0,0.0,0.0,0.0,0.0,-1.5204,-1.7127,-1.4094,-1.2434,-1.2434,-1.0434,-1.0832,-1.3509,-1.2725,-1.3769,-1.6315,-1.6059,0.0,0.0,0.0,0.0,0.0,-1.7987,-1.7343,-1.5683,-1.4411,-1.3926,-1.3632,-1.1409,-1.0342,-0.985,-0.897,-0.8333,-0.7988,-0.7988,-0.7988,-0.7971,-0.7916,-0.7907,-0.7948,-0.7794,-0.7597,-0.7397,-0.7149,-0.7095,-0.7095,-0.7095,-0.7095,-0.7095,-0.7095,-0.7095,-0.7095,-0.7095,-0.7095,-0.7095,-0.7095,-0.7095,-0.7095,-0.7095,-0.7095,-0.7045,-0.6903,-0.6846,-0.6797,-0.6644,-0.6535,-0.6443,-0.6439,-0.6393,-0.6467,-0.6674,-0.6728,-0.6864,-0.7082,-0.7462,-0.8055,-0.8886,-0.9611,-1.0351,-1.1123,-1.152,-1.1697,-1.1735,-1.2499,-1.2886,1.0876,1.1263,1.1114,0.9862,0.7952,0.5991,0.4649,0.2744,0.1041,0.0169,-0.0437,-0.0638,-0.0101,-0.0908,-0.1313,-0.0188,-0.0999,0.0,0.0,0.0,0.0,0.0,0.0,0.0,0.0,0.0,0.0,0.0,0.0,0.0,0.0,0.0,-1.126,-1.1208,-1.0486,-1.0096,-1.0096,-0.9147,-0.9953,-1.2575,-1.2299,-1.3567,-1.6099,0.0,0.0,0.0,0.0,0.0,0.0,-1.7809,-1.6908,-1.4949,-1.3638,-1.2861,-1.2183,-1.0043,-0.9266,-0.9118,-0.8283,-0.7988,-0.7988,-0.7988,-0.7951,-0.7887,-0.7838,-0.7841,-0.7824,-0.7584,-0.7444,-0.7336,-0.7136,-0.7095,-0.7095,-0.7095,-0.7095,-0.7095,-0.7095,-0.7095,-0.7095,-0.7095,-0.7095,-0.7095,-0.7095,-0.7095,-0.7095,-0.7095,-0.7075,-0.6983,-0.6858,-0.6793,-0.6698,-0.6552,-0.6487,-0.6419,-0.6381,-0.6369,-0.646,-0.6606,-0.6701,-0.686,-0.6997,-0.7095,-0.7459,-0.8195,-0.8648,-0.9235,-0.9966,-1.0394,-1.06,-1.0623,-1.1347,-1.1673,0.0,0.7693,0.7582,0.8305,0.6595,0.4613,0.4314,0.2759,0.0,0.027,0.0034,0.0,0.0,-0.0034,-0.0069,0.0,0.0,0.0,0.0,0.0,0.0,0.0,0.0,0.0,0.0,0.0,0.0,0.0,0.0,0.0,0.0,0.0,0.0,-0.4703,-0.7022,-0.8354,-0.8374,-0.842,-0.9725,-1.2219,-1.2204,-1.3471,-1.5784,0.0,0.0,0.0,0.0,0.0,0.0,-1.5825,-1.5038,-1.3776,-1.2334,-1.1023,-0.985,-0.8482,-0.7988,-0.7988,-0.7988,-0.7988,-0.7988,-0.7988,-0.788,-0.7794,-0.7794,-0.7695,-0.7553,-0.7456,-0.7409,-0.7322,-0.7132,-0.7095,-0.7095,-0.7095,-0.7095,-0.7095,-0.7095,-0.7095,-0.7095,-0.7095,-0.7095,-0.7095,-0.7095,-0.7095,-0.7095,-0.7095,-0.697,-0.6856,-0.6725,-0.6573,-0.646,-0.633,-0.6306,-0.6358,-0.6501,-0.6513,-0.6518,-0.6521,-0.6783,-0.6916,-0.6912,-0.7051,-0.7095,-0.7095,-0.8193,-0.8759,-0.8759,-0.9923,-1.0413,-1.0368,-1.0449,-1.0499,0.56,0.0,0.8157,0.7586,0.7057,0.632,0.0,0.3438,0.1944,0.1038,0.0391,0.0,0.0,-0.0527,-0.0792,0.0,0.0,0.0,0.0,0.0,0.0,0.0,0.0,0.0,0.0,0.0,0.0,0.0,0.0,0.0,0.0,0.0,0.0,-0.5652,-0.626,-0.6705,-0.6995,-0.7901,-0.9662,-1.2214,-1.2053,-1.3309,-1.5784,0.0,0.0,0.0,0.0,0.0,-1.7171,-1.6135,-1.5,-1.368,-1.1361,-1.0243,-0.985,-0.8482,-0.7988,-0.7988,-0.7988,-0.7988,-0.7988,-0.7988,-0.7862,-0.7648,-0.7648,-0.7543,-0.7463,-0.7429,-0.7285,-0.7142,-0.7105,-0.7095,-0.7095,-0.7095,-0.7095,-0.7095,-0.7095,-0.7095,-0.7095,-0.7095,-0.7095,-0.7095,-0.7095,-0.7095,-0.7095,-0.7095,-0.697,-0.6893,-0.6871,-0.6637,-0.6501,-0.6467,-0.6364,-0.6358,-0.6501,-0.6484,-0.6607,-0.6776,-0.6849,-0.6926,-0.7031,-0.7095,-0.7095,-0.7095,-0.736,-0.7536,-0.7536,-0.8711,-0.8834,-0.7954,-0.8857,-0.9308,0.4784,0.5789,0.699,0.6941,0.6657,0.6197,0.53,0.3742,0.2224,0.1289,0.0,0.0,0.0,-0.0386,0.0,0.0,0.0,0.0,0.0,0.0,0.0,0.0,0.0,0.0,0.0,0.0,0.0,0.0,0.0,0.0,0.0,0.0,0.0,0.0,-0.4772,-0.578,-0.7189,-0.8444,-1.01,-1.2068,-1.2586,-1.3884,-1.5784,0.0,0.0,0.0,0.0,0.0,-1.6756,-1.5427,-1.4142,-1.2764,-1.0774,-0.9608,-0.897,-0.8283,-0.7988,-0.7988,-0.7988,-0.7988,-0.7988,-0.7988,-0.7841,-0.76,-0.76,-0.7441,-0.7265,-0.7265,-0.7204,-0.7095,-0.7095,-0.7095,-0.7095,-0.7095,-0.7095,-0.7095,-0.7095,-0.7095,-0.7095,-0.7095,-0.7095,-0.7095,-0.7095,-0.7095,-0.7095,-0.7095,-0.6941,-0.685,-0.6909,-0.6661,-0.6511,-0.6511,-0.6508,-0.6491,-0.6569,-0.6641,-0.6726,-0.6816,-0.688,-0.6922,-0.6987,-0.7051,-0.7095,-0.7095,-0.7095,-0.7095,-0.7095,-0.7753,-0.7753,-0.7095,-0.7764,-0.807,0.4709,0.4826,0.5336,0.6193,0.5965,0.5475,0.5274,0.0,0.0,0.0,0.0,0.0,0.0,0.0,0.0,0.0,0.0,0.0,0.0,0.0,0.0,0.0,0.0,0.0,0.0,0.0,0.0,0.0,0.0,0.0,0.0,0.0,0.0,0.0,-0.3416,-0.527,-0.7988,-0.9118,-1.0435,-1.1901,-1.3054,-1.4364,-1.5784,-1.5784,0.0,0.0,0.0,0.0,-1.5391,-1.4124,-1.2813,-1.1458,-1.0194,-0.9019,-0.7988,-0.7988,-0.7988,-0.7988,-0.7988,-0.7988,-0.7985,-0.7961,-0.7821,-0.7597,-0.757,-0.7366,-0.7095,-0.7095,-0.7095,-0.7095,-0.7095,-0.7095,-0.7095,-0.7095,-0.7095,-0.7095,-0.7095,-0.7095,-0.7095,-0.7095,-0.7095,-0.7095,-0.7095,-0.7095,-0.7095,-0.7095,-0.6904,-0.6767,-0.6936,-0.6695,-0.6555,-0.6539,-0.6637,-0.6709,-0.6732,-0.6854,-0.6873,-0.6757,-0.6856,-0.6924,-0.6949,-0.7051,-0.7095,-0.7095,-0.7095,-0.7095,-0.7095,-0.7095,-0.7095,-0.7095,-0.7095,-0.7095,0.4816,0.5013,0.5305,0.5062,0.5555,0.5884,0.513,0.3679,0.0,0.0,0.0,0.0,0.0,0.0,0.0,0.0,0.0,0.0,0.0,0.0,0.0,0.0,0.0,0.0,0.0,0.0,0.0,0.0,0.0,0.0,0.0,0.0,0.0,0.0,0.0,-0.527,-0.7988,-0.8187,-0.9505,-1.1896,-1.2091,-1.3445,-1.5784,-1.5784,-1.5784,0.0,0.0,-1.5194,-1.407,-1.277,-1.1458,-1.0145,-0.8825,-0.8184,-0.7988,-0.7988,-0.7988,-0.7988,-0.7988,-0.7988,-0.7968,-0.7889,-0.7733,-0.7577,-0.7444,-0.7282,-0.7095,-0.7095,-0.7095,-0.7095,-0.7095,-0.7095,-0.7095,-0.7095,-0.7095,-0.7095,-0.7095,-0.7095,-0.7095,-0.7095,-0.7095,-0.7095,-0.7095,-0.7095,-0.7095,-0.7095,-0.6953,-0.693,-0.7058,-0.6848,-0.6715,-0.6844,-0.6763,-0.6753,-0.6839,-0.6873,-0.6933,-0.7045,-0.7038,-0.7048,-0.7048,-0.7095,-0.7095,-0.7095,-0.7095,-0.7095,-0.7095,-0.7095,-0.7095,-0.7095,-0.7095,-0.7095,0.4657,0.487,0.5091,0.4958,0.5467,0.5738,0.4736,0.3525,0.0,0.0,0.0,0.0,0.0,0.0,0.0,0.0,0.0,0.0,0.0,0.0,0.0,0.0,0.0,0.0,0.0,0.0,0.0,0.0,0.0,0.0,0.0,0.0,0.0,0.0,0.0,0.0,-0.7988,-0.7988,-0.9312,-1.1901,-1.2619,-1.398,-1.5784,-1.5784,-1.5784,0.0,0.0,-1.4459,-1.3734,-1.1697,-1.0534,-0.985,-0.8531,-0.7988,-0.7988,-0.7988,-0.7938,-0.7877,-0.7961,-0.7887,-0.7801,-0.7811,-0.7658,-0.7461,-0.7439,-0.7261,-0.7095,-0.7095,-0.7095,-0.7095,-0.7095,-0.7095,-0.7095,-0.7095,-0.7095,-0.7095,-0.7095,-0.7095,-0.7095,-0.7095,-0.7095,-0.7095,-0.7095,-0.7095,-0.7095,-0.7095,-0.6987,-0.6964,-0.7085,-0.6913,-0.6851,-0.6879,-0.6893,-0.6893,-0.6886,-0.6957,-0.7028,-0.7092,-0.7095,-0.7095,-0.7095,-0.7095,-0.7095,-0.7095,-0.7095,-0.7095,-0.7095,-0.7095,-0.7095,-0.7095,-0.7095,-0.7095,0.4278,0.4594,0.4921,0.5063,0.5356,0.547,0.477,0.3585,0.2447,0.0,0.0,0.0,0.0,0.0,0.0,0.0,0.0,0.0,0.0,0.0,0.0,0.0,0.0,0.0,0.0,0.0,0.0,0.0,0.0,0.0,0.0,0.0,0.0,0.0,0.0,0.0,-0.7988,-0.7988,-0.9164,-1.1458,-1.2813,-1.4124,-1.5384,-1.5683,-1.5784,-1.573,-1.4459,-1.3728,-1.3247,-1.097,-0.9805,-0.941,-0.8382,-0.7968,-0.7938,-0.7938,-0.7889,-0.7784,-0.7884,-0.7818,-0.7617,-0.7726,-0.7584,-0.7409,-0.7329,-0.7234,-0.7051,-0.6782,-0.6694,-0.6694,-0.6694,-0.6694,-0.6694,-0.6694,-0.6918,-0.7095,-0.7095,-0.7095,-0.7095,-0.7095,-0.7095,-0.7095,-0.7095,-0.7095,-0.7095,-0.7095,-0.7004,-0.6974,-0.7082,-0.7001,-0.6933,-0.6933,-0.7031,-0.7051,-0.6943,-0.7034,-0.7095,-0.7095,-0.7095,-0.7095,-0.7095,-0.7095,-0.7095,-0.7095,-0.7095,-0.7095,-0.7095,-0.7095,-0.7095,-0.7095,-0.7095,-0.7095,0.3619,0.4284,0.4921,0.5063,0.5123,0.5292,0.5775,0.4116,0.0,0.2897,0.0,0.0,0.0,0.0,0.0,0.0,0.0,0.0,0.0,0.0,0.0,0.0,0.0,0.0,0.0,0.0,0.0,0.0,0.0,0.0,0.0,0.0,0.0,0.0,0.0,0.0,-0.7988,-0.7988,-0.8726,-1.0145,-1.1409,-1.2721,-1.407,-1.5242,-1.5784,-1.573,-1.4459,-1.3199,-1.1945,-1.0583,-0.9262,-0.8137,-0.8038,-0.7904,-0.7828,-0.7828,-0.7736,-0.7634,-0.7777,-0.7729,-0.76,-0.7611,-0.7506,-0.7346,-0.7156,-0.7105,-0.6874,-0.5805,-0.5536,-0.5536,-0.5536,-0.5536,-0.5536,-0.5536,-0.6337,-0.7095,-0.7095,-0.7095,-0.7095,-0.7095,-0.7095,-0.7095,-0.7095,-0.7095,-0.7095,-0.7095,-0.7088,-0.7085,-0.7095,-0.7088,-0.7082,-0.7082,-0.7092,-0.7092,-0.7082,-0.7092,-0.7095,-0.7095,-0.7095,-0.7095,-0.7095,-0.7095,-0.7095,-0.7095,-0.7095,-0.7095,-0.7095,-0.7095,-0.7095,-0.7095,-0.7095,-0.7095,0.2717,0.3458,0.424,0.4394,0.4845,0.0,0.0,0.443,0.3583,0.2503,0.2043,0.0,0.0,0.0,0.0,0.0,0.0,0.0,0.0,0.0,0.0,0.0,0.0,0.0,0.0,0.0,0.0,0.0,0.0,0.0,0.0,0.0,0.0,0.0,0.0,0.0,0.0,-0.7988,-0.8237,-0.8775,-1.0096,-1.1843,-1.3926,-1.4411,-1.4609,-1.4549,-1.3132,-1.1781,-1.0482,-0.9084,-0.8192,-0.7767,-0.7767,-0.7729,-0.7678,-0.7678,-0.7587,-0.7478,-0.7628,-0.7519,-0.7329,-0.7428,-0.7353,-0.7083,-0.6266,-0.6027,-0.5802,-0.4596,-0.3748,-0.3345,-0.4105,-0.4821,-0.5403,-0.5403,-0.6248,-0.7095,-0.7095,-0.7095,-0.7095,-0.7095,-0.7095,-0.7095,-0.7095,-0.7037,-0.6997,-0.7078,-0.7021,-0.6997,-0.7085,-0.7095,-0.7095,-0.7095,-0.7095,-0.7095,-0.7095,-0.7095,-0.7095,-0.7095,-0.7095,-0.7095,-0.7095,-0.7095,-0.7095,-0.7095,-0.7095,-0.7095,-0.7095,-0.7095,-0.7095,-0.7095,-0.7095,-0.7095,0.1843,0.2547,0.3332,0.34,0.0,0.0,0.4625,0.4323,0.3738,0.2619,0.1778,0.0,0.0,0.0,0.0,0.0,0.0,0.0,0.0,0.0,0.0,0.0,0.0,0.0,0.0,0.0,0.0,0.0,0.0,0.0,0.0,0.0,0.0,0.0,0.0,0.0,0.0,-0.7182,-0.7385,-0.7385,-0.8722,-1.0529,-1.2662,-1.3019,-1.3225,-1.3118,-1.1643,-1.0514,-0.9613,-0.8197,-0.76,-0.76,-0.76,-0.757,-0.7529,-0.7529,-0.7431,-0.7319,-0.7475,-0.7356,-0.7122,-0.7322,-0.704,-0.6428,-0.5625,-0.5134,-0.4599,-0.3349,-0.2457,-0.2011,-0.2814,-0.3929,-0.4825,-0.4825,-0.5983,-0.7095,-0.7095,-0.7095,-0.7095,-0.7095,-0.7095,-0.7068,-0.7061,-0.6972,-0.6902,-0.6987,-0.6876,-0.6849,-0.6947,-0.7001,-0.7048,-0.7092,-0.7095,-0.7095,-0.7095,-0.7095,-0.7095,-0.7095,-0.7095,-0.7095,-0.7095,-0.6738,-0.6561,-0.6561,-0.6561,-0.6561,-0.6561,-0.6918,-0.7095,-0.7095,-0.7095,-0.7095,0.1057,0.1614,0.2174,0.2184,0.0,0.0,0.4599,0.3675,0.2893,0.3465,0.0,0.0381,0.0,0.0,0.0,0.0,0.0,0.0,0.0,0.0,0.0,0.0,0.0,0.0,0.0,0.0,0.0,0.0,0.0,0.0,0.0,0.0,0.0,0.0,0.0,0.0,0.0,-0.532,-0.5977,-0.6027,-0.7332,-0.8722,-1.0038,-1.1187,-1.1701,-1.1591,-1.011,-0.9469,-0.9376,-0.8099,-0.7597,-0.7597,-0.7597,-0.7502,-0.7415,-0.7415,-0.7272,-0.7119,-0.7316,-0.7268,-0.7122,-0.7319,-0.6493,-0.5403,-0.5359,-0.4552,-0.3347,-0.2102,-0.179,-0.179,-0.179,-0.2684,-0.3623,-0.3623,-0.5403,-0.7095,-0.7095,-0.7095,-0.7095,-0.7095,-0.7095,-0.7048,-0.6927,-0.6915,-0.6832,-0.6725,-0.6702,-0.6698,-0.6702,-0.6834,-0.694,-0.7082,-0.7095,-0.7095,-0.7095,-0.7095,-0.7095,-0.7095,-0.7095,-0.7095,-0.7095,-0.6027,-0.5403,-0.5403,-0.5403,-0.5403,-0.5403,-0.6517,-0.7095,-0.7095,-0.7095,-0.7095,-0.1217,-0.0622,0.0,0.067,0.0,0.0,0.0,0.5127,0.0,0.0,0.0,0.0,0.0,0.0,0.0,0.0,0.0,0.0,0.0,0.0,0.0,0.0,0.0,0.0,0.0,0.0,0.0,0.0,0.0,0.0,0.0,0.0,0.0,0.0,0.0,0.0,0.0,0.0,-0.5838,-0.5885,-0.7145,-0.8446,-0.9891,-1.0214,-1.0301,-1.0105,-0.9592,-0.8835,-0.7967,-0.7451,-0.723,-0.723,-0.723,-0.7203,-0.721,-0.721,-0.7136,-0.7102,-0.7149,-0.7136,-0.6969,-0.6251,-0.5744,-0.5092,-0.3396,-0.2637,-0.2102,-0.0852,-0.0539,-0.0718,-0.1565,-0.2677,-0.3835,-0.4645,-0.6027,-0.7095,-0.7095,-0.7095,-0.7095,-0.7095,-0.7095,-0.7068,-0.7067,-0.6878,-0.679,-0.6851,-0.6678,-0.6617,-0.6834,-0.6859,-0.694,-0.7082,-0.7095,-0.7095,-0.7095,-0.7095,-0.7055,-0.6953,-0.695,-0.6994,-0.7092,-0.6027,-0.5403,-0.5403,-0.4552,-0.4552,-0.5403,-0.5758,-0.6337,-0.7095,-0.7095,-0.7095,-0.2877,-0.2754,0.0,-0.173,-0.0528,0.116,0.3711,0.0,0.0,0.0,0.0,0.0,0.0,0.0,0.0,0.0,0.0,0.0,0.0,0.0,0.0,0.0,0.0,0.0,0.0,0.0,0.0,0.0,0.0,0.0,0.0,0.0,0.0,0.0,0.0,0.0,0.0,0.0,0.0,-0.5027,-0.6788,-0.803,-0.8847,-0.8847,-0.8788,-0.8678,-0.8505,-0.799,-0.7272,-0.7136,-0.7095,-0.7095,-0.7095,-0.7095,-0.7095,-0.7095,-0.7095,-0.7095,-0.7095,-0.6782,-0.6293,-0.5625,-0.4734,-0.3708,-0.2236,-0.1478,-0.0942,-0.0225,0.0,-0.0269,-0.1476,-0.2321,-0.3301,-0.5001,-0.5938,-0.6561,-0.7007,-0.6738,-0.6561,-0.7007,-0.7095,-0.7048,-0.6979,-0.6793,-0.6712,-0.6742,-0.6644,-0.663,-0.6814,-0.6849,-0.694,-0.7082,-0.7095,-0.7095,-0.7095,-0.7095,-0.7038,-0.6896,-0.6536,-0.6285,-0.6307,-0.5223,-0.4385,-0.3974,-0.3261,-0.3482,-0.4688,-0.5179,-0.5983,-0.7095,-0.7095,-0.7095,-0.4281,0.0,0.0,-0.4499,-0.2808,0.0,0.2428,0.0,0.0,0.0,0.0,0.0,0.0,0.0,0.0,0.0,0.0,0.0,0.0,0.0,0.0,0.0,0.0,0.0,0.0,0.0,0.0,0.0,0.0,0.0,0.0,0.0,0.0,0.0,0.0,0.0,0.0,0.0,0.0,0.0,-0.6324,-0.7485,-0.7395,-0.7409,-0.7409,-0.7343,-0.72,-0.7095,-0.7095,-0.7095,-0.7095,-0.7095,-0.7095,-0.7095,-0.7095,-0.7095,-0.7051,-0.6962,-0.6962,-0.6204,-0.5223,-0.509,-0.3575,-0.179,-0.1656,-0.0852,0.0,0.0,0.0,-0.0269,-0.1478,-0.179,-0.2413,-0.4812,-0.5393,-0.5669,-0.6738,-0.6192,-0.5827,-0.6892,-0.7061,-0.699,-0.6771,-0.6692,-0.6654,-0.6555,-0.66,-0.6692,-0.6719,-0.6844,-0.694,-0.7082,-0.7095,-0.7095,-0.7095,-0.7085,-0.697,-0.6744,-0.5855,-0.5199,-0.4799,-0.3796,-0.2789,-0.1823,-0.1693,-0.2231,-0.3438,-0.4641,-0.5847,-0.6959,-0.7037,-0.7085,-0.7135,-0.719,0.0,0.0,-0.2598,0.0,0.0607,0.0,0.0,0.0,0.0,0.0,0.0,0.0,0.0,0.0,0.0,0.0,0.0,0.0,0.0,0.0,0.0,0.0,0.0,0.0,0.0,0.0,0.0,0.0,0.0,0.0,0.0,0.0,0.0,0.0,0.0,-0.2402,-0.3664,0.0,-0.6059,-0.7176,-0.7149,-0.7316,-0.7305,-0.7142,-0.7109,-0.7095,-0.7095,-0.7095,-0.7095,-0.7095,-0.7095,-0.7095,-0.7095,-0.7095,-0.6517,-0.5761,-0.5761,-0.4999,-0.3838,-0.286,-0.2236,-0.1612,-0.0673,-0.0225,0.0,0.0,0.0,-0.0269,-0.1475,-0.1788,-0.236,-0.4633,-0.5282,-0.5474,-0.5711,-0.6185,-0.6649,-0.6905,-0.6848,-0.6793,-0.687,-0.6777,-0.6688,-0.6658,-0.6576,-0.6607,-0.6848,-0.6866,-0.694,-0.7082,-0.7095,-0.7095,-0.7095,-0.6994,-0.6517,-0.5569,-0.5182,-0.4222,-0.2409,-0.2212,-0.2031,-0.1786,-0.0862,-0.0965,-0.22,-0.3393,-0.4585,-0.578,-0.6579,-0.6991,-0.953,0.0,0.0,-0.678,0.0,-0.1265,-0.0877,0.0,0.0,0.0,0.0,0.0,0.0,0.0,0.0,0.0,0.0,0.0,0.0,0.0,0.0,0.0,0.0,0.0,0.0,0.0,0.0,0.0,0.0,0.0,0.0,0.0,0.0,0.0,0.0,0.0,0.0,-0.1835,-0.3037,-0.3614,-0.5442,-0.6561,-0.7098,-0.7224,-0.7217,-0.7095,-0.7095,-0.7095,-0.7095,-0.7095,-0.7095,-0.7095,-0.7095,-0.6782,-0.6293,-0.6293,-0.5534,-0.4552,-0.4552,-0.3749,-0.2637,-0.2013,-0.1388,-0.0807,-0.018,0.0,0.0,0.0,0.0,-0.0134,-0.0796,-0.0934,-0.1248,-0.2395,-0.3601,-0.4809,-0.5888,-0.6065,-0.6202,-0.6798,-0.677,-0.6682,-0.6702,-0.6226,-0.582,-0.5733,-0.5366,-0.5138,-0.5154,-0.5246,-0.5334,-0.5435,-0.544,-0.5429,-0.5437,-0.5378,-0.5002,-0.427,-0.3728,-0.2861,-0.1637,-0.1171,-0.0945,-0.0924,-0.0339,-0.06,-0.1784,-0.2426,-0.3587,-0.5266,-0.5775,-0.6342,-1.1438,0.0,-1.0246,-0.7981,-0.5336,0.0,0.0,0.0,0.0,0.0,0.0,0.0,0.0,0.0,0.0,0.0,0.0,0.0,0.0,0.0,0.0,0.0,0.0,0.0,0.0,0.0,0.0,0.0,0.0,0.0,0.0,0.0,0.0,0.0,0.0,0.0,0.0,-0.1388,-0.2592,-0.3614,-0.4982,-0.616,-0.7021,-0.7021,-0.7048,-0.7095,-0.6871,-0.6918,-0.7095,-0.6845,-0.6791,-0.6791,-0.6762,-0.6063,-0.5107,-0.5107,-0.4317,-0.3303,-0.3303,-0.2503,-0.1478,-0.1478,-0.0807,0.0,0.0,0.0,0.0,0.0,0.0,0.0,0.0,0.0,-0.0044,-0.0217,-0.1835,-0.3844,-0.5852,-0.5803,-0.5636,-0.6651,-0.6613,-0.6286,-0.5993,-0.5219,-0.4618,-0.4517,-0.3974,-0.3496,-0.3359,-0.3495,-0.3614,-0.3614,-0.3605,-0.3589,-0.3592,-0.3557,-0.3388,-0.3082,-0.2243,-0.1637,-0.1333,-0.0471,0.0,0.0,0.0,-0.0499,-0.1493,-0.1708,-0.2745,-0.455,-0.4731,-0.5292,0.0,0.0,-0.9346,0.0,-0.593,0.0,0.0,0.0,0.0,0.0,0.0,0.0,0.0,0.0,0.0,0.0,0.0,0.0,0.0,0.0,0.0,0.0,0.0,0.0,0.0,0.0,0.0,0.0,0.0,0.0,0.0,0.0,0.1143,0.0045,0.0,0.0,0.0,-0.2236,-0.3436,-0.3614,-0.5697,-0.6714,-0.6759,-0.6759,-0.6898,-0.7051,-0.6071,-0.6204,-0.6997,-0.586,-0.547,-0.5591,-0.5442,-0.4739,-0.3828,-0.3828,-0.3081,-0.2057,-0.2057,-0.1254,-0.0225,-0.0225,-0.0135,0.0,0.0,0.0,0.0,0.0,0.0,0.0,0.0,0.0,-0.0217,-0.1145,-0.173,-0.2379,-0.3594,-0.5168,-0.6357,-0.6522,-0.577,-0.4821,-0.3885,-0.3651,-0.362,-0.3742,-0.3525,-0.3376,-0.3527,-0.3602,-0.3614,-0.3614,-0.3606,-0.358,-0.3615,-0.3442,-0.2948,-0.2078,-0.175,-0.1217,-0.0236,-0.0079,0.0,0.0,0.0,-0.0079,-0.0238,-0.1299,-0.1947,-0.226,-0.3186,-0.3781,-1.2726,-1.1404,-1.0038,0.0,-0.6971,0.0,0.0,0.0,0.0,0.0,0.0,0.0,0.0,0.0,0.0,0.0,0.0,0.0,0.0,0.0,0.0,0.0,0.0,0.0,0.0,0.0,0.0,0.0,0.0,0.0,0.0,0.3187,0.2052,0.0951,0.0303,0.0,-0.0908,-0.2009,-0.3202,-0.447,-0.605,-0.6766,-0.6702,-0.6702,-0.677,-0.6806,-0.5726,-0.5858,-0.6803,-0.5582,-0.5133,-0.5215,-0.5121,-0.4082,-0.2599,-0.2588,-0.1832,-0.0794,-0.0804,-0.0449,0.0,0.0,0.0,0.0,0.0,0.0,0.0,0.0,0.0,0.0,0.0,0.0,-0.0127,-0.058,-0.1195,-0.1817,-0.2293,-0.3613,-0.4671,-0.4609,-0.4202,-0.3728,-0.3254,-0.273,-0.2408,-0.2458,-0.1905,-0.1464,-0.158,-0.16,-0.1567,-0.1567,-0.1595,-0.1577,-0.1563,-0.1514,-0.1274,-0.0817,-0.0716,-0.051,0.0,0.0,0.0,0.0,0.0,0.0,0.0,-0.0517,-0.1112,-0.1688,-0.2177,-0.2717,0.0,0.0,-1.0627,-0.9107,0.0,0.0,0.0,0.0,0.0,0.0,0.0,0.0,0.0,0.0,0.0,0.0,0.0,0.0,0.0,0.0,0.0,0.0,0.0,0.0,0.0,0.0,0.0,0.0,0.0,0.0,0.4896,0.4111,0.3039,0.1634,0.084,-0.0252,-0.1593,-0.2258,-0.3677,-0.5855,-0.664,-0.7026,-0.699,-0.699,-0.6831,-0.6508,-0.5204,-0.5269,-0.6191,-0.478,-0.4229,-0.4268,-0.4244,-0.3057,-0.1334,-0.1356,-0.0772,0.0,0.0,0.0,0.0,0.0,0.0,0.0,0.0,0.0,0.0,0.0,0.0,0.0,0.0,0.0,0.0,0.0,-0.0607,-0.1328,-0.185,-0.265,-0.3152,-0.2784,-0.2735,-0.2618,-0.2344,-0.1709,-0.1213,-0.1186,-0.0507,0.0,0.0,0.0,0.0,0.0,0.0,0.0,0.0,0.0,0.0,0.0,0.0,0.0,0.0,0.0,0.0,0.0,0.0,0.0,0.0,0.0,-0.0392,-0.1176,-0.1176,-0.1605,0.0,-1.1526,0.0,0.0,0.0,0.0,0.0,0.0,0.0,0.0,0.0,0.0,0.0,0.0,0.0,0.0,0.0,0.0,0.0,0.0,0.0,0.0,0.0,0.0,0.0,0.0,0.0,0.0,0.0,0.0,0.4778,0.4663,0.3685,0.1675,0.1551,0.0503,-0.1593,-0.369,-0.5797,-0.7836,-0.7907,-0.7855,-0.7735,-0.7735,-0.7238,-0.622,-0.4233,-0.406,-0.5009,-0.2703,-0.1869,-0.1943,-0.1823,-0.1077,-0.0082,-0.0082,-0.0041,0.0,0.0,0.0,0.0,0.0,0.0,0.0,0.0,0.0,0.0,0.0,0.0,0.0,0.0,0.0,0.0,0.0,-0.004,-0.0629,-0.2584,-0.3051,-0.2817,-0.188,-0.1685,-0.1372,-0.0353,-0.0118,-0.008,-0.0084,-0.0042,0.0,0.0,0.0,0.0,0.0,0.0,0.0,0.0,0.0,0.0,0.0,0.0,0.0,0.0,0.0,0.0,0.0,0.0,0.0,0.0,0.0,-0.0039,-0.0079,-0.0079,-0.0118,0.0,0.0,0.0,0.0,0.0,0.0,0.0,0.0,0.0,0.0,0.0,0.0,0.0,0.0,0.0,0.0,0.0,0.0,0.0,0.0,0.0,0.0,0.0,0.0,0.0,0.0,0.0,0.0,0.0,0.0,0.5741,0.5064,0.4051,0.2603,0.1926,0.0202,-0.2664,-0.4763,-0.6231,-0.7023,-0.6963,-0.6885,-0.6834,-0.6834,-0.6247,-0.5201,-0.3778,-0.3804,-0.4684,-0.2505,-0.1627,-0.1665,-0.1612,-0.0946,0.0,0.0,0.0,0.0,0.0,0.0,0.0,0.0,0.0,0.0,0.0,0.0,0.0,0.0,0.0,0.0,0.0,0.0,0.0,0.0,0.0,-0.0196,-0.094,-0.1096,-0.1019,-0.0628,-0.0588,-0.0432,-0.0079,0.0,0.0,0.0,0.0,0.0,0.0,0.0,0.0,0.0,0.0,0.0,0.0,0.0,0.0,0.0,0.0,0.0,0.0,0.0,0.0,0.0,0.0,0.0,0.0,0.0,0.0,0.0,0.0,0.0,-1.2261,0.0,0.0,0.0,0.0,0.0,0.0,0.0,0.0,0.0,0.0,0.0,0.0,0.0,0.0,0.0,0.0,0.0,0.0,0.0,0.0,0.0,0.0,0.0,0.0,0.0,0.0,0.0,0.0,0.0,0.6834,0.6125,0.4913,0.3161,0.1093,-0.1024,-0.3199,-0.528,-0.65,-0.6946,-0.6843,-0.6795,-0.6795,-0.6795,-0.6051,-0.4647,-0.3552,-0.332,-0.3517,-0.1762,-0.1058,-0.1058,-0.1058,-0.0628,0.0,0.0,0.0,0.0,0.0,0.0,0.0,0.0,0.0,0.0,0.0,0.0,0.0,0.0,0.0,0.0,0.0,0.0,0.0,0.0,0.0,0.0,0.0,0.0,0.0,0.0,0.0,0.0,0.0,0.0,0.0,0.0,0.0,0.0,0.0,0.0,0.0,0.0,0.0,0.0,0.0,0.0,0.0,0.0,0.0,0.0,0.0,0.0,0.0,0.0,0.0,0.0,0.0,0.0,0.0,0.0,0.0,0.0,0.0,0.0,0.0,0.0,0.0,0.0,0.0,0.0,0.0,0.0,0.0,0.0,0.0,0.0,0.0,0.0,0.0,0.0,0.0,0.0,0.0,0.0,0.0,0.0,0.0,0.0,0.0,0.0,0.0,0.8832,0.7851,0.7732,0.629,0.3195,-0.0894,-0.3076,-0.3078,-0.5226,-0.678,-0.7727,-0.7727,-0.7727,-0.7727,-0.7732,-0.6577,-0.4603,-0.3513,-0.2501,-0.1489,-0.0432,0.0,0.0,0.0,0.0,0.0,0.0,0.0,0.0,0.0,0.0,0.0,0.0,0.0,0.0,0.0,0.0,0.0,0.0,0.0,0.0,0.0,0.0,0.0,0.0,0.0,0.0,0.0,0.0,0.0,0.0,0.0,0.0,0.0,0.0,0.0,0.0,0.0,0.0,0.0,0.0,0.0,0.0,0.0,0.0,0.0,0.0,0.0,0.0,-0.0039,-0.0039,0.0,-0.0039,-0.0039,0.0,0.0,0.0,0.0,0.0,0.0,0.0,0.0,0.0,-0.9602,0.0,0.0,0.0,0.0,0.0,0.0,0.0,0.0,0.0,0.0,0.0,0.0,0.0,0.0,0.0,0.0,0.0,0.0,0.0,0.0,0.0,0.0,0.0,0.0,0.0,0.0,0.0,0.0,0.8527,0.765,0.608,0.4515,0.3002,-0.0295,-0.233,-0.2965,-0.4924,-0.6072,-0.6361,-0.6361,-0.6361,-0.6328,-0.5688,-0.4674,-0.3355,-0.2408,-0.141,-0.0432,-0.0118,0.0,0.0,0.0,0.0,0.0,0.0,0.0,0.0,0.0,0.0,0.0,0.0,0.0,0.0,0.0,0.0,0.0,0.0,0.0,0.0,0.0,0.0,0.0,0.0,0.0,0.0,0.0,0.0,0.0,0.0,0.0,0.0,0.0,0.0,0.0,0.0,0.0,0.0,0.0,0.0,0.0,0.0,0.0,0.0,0.0,0.0,0.0,0.0,-0.0744,-0.0823,-0.0039,-0.0746,-0.0786,0.0,0.0,0.0,0.0,0.0,0.0,0.0,0.0,0.0,-0.7636,-0.6939,0.0,0.0,0.0,0.0,0.0,0.0,0.0,0.0,0.0,0.0,0.0,0.0,0.0,0.0,0.0,0.0,0.0,0.0,0.0,0.0,0.0,0.0,0.0,0.0,0.0,0.0,0.9835,0.9307,0.8024,0.5931,0.4164,0.294,0.0362,-0.1629,-0.2904,-0.446,-0.5437,-0.58,-0.58,-0.5617,-0.5258,-0.4747,-0.3708,-0.2343,-0.1832,-0.1004,0.0,0.0,0.0,0.0,0.0,0.0,0.0,0.0,0.0275,0.0667,0.0667,0.0667,0.0667,0.0667,0.0353,0.0,0.0,0.0,0.0,0.0,0.0,0.0,0.0,0.0,0.0,0.0,0.0,0.0,0.0,0.0,0.0,0.0,0.0,0.0,0.0,0.0,0.0,0.0,0.0,0.0,0.0,0.0,0.0,0.0,0.0,0.0,0.0,0.0,-0.0196,-0.0628,-0.1253,-0.1526,-0.1292,-0.149,-0.1295,-0.0667,-0.0236,0.0,0.0,0.0,0.0,0.0,0.0,0.0,-0.5331,-0.4593,0.0,0.0,0.0,0.0,-0.0109,0.0,0.0,0.0,0.0,0.0,0.0,0.0,0.0,0.0,0.0,0.0,0.0,0.0,0.0,0.0,0.0,0.0,0.0,0.0,0.0,1.0957,1.1145,1.0461,0.8762,0.6737,0.4864,0.3235,0.1077,-0.0861,-0.2554,-0.3737,-0.4704,-0.5461,-0.5461,-0.5066,-0.4311,-0.4178,-0.3213,-0.1559,-0.1451,-0.0867,0.0,0.0,0.0,0.0,0.0,0.0,0.0,0.0,0.0667,0.1607,0.1607,0.1607,0.1607,0.1607,0.0863,0.0,0.0,0.0,0.0,0.0,0.0,0.0,0.0,0.0,0.0,0.0,0.0,0.0,0.0,0.0,0.0,0.0,0.0,0.0,0.0,0.0,0.0,0.0,0.0,0.0,0.0,0.0,0.0,0.0,0.0,0.0,0.0,0.0,-0.0471,-0.1528,-0.1724,-0.2113,-0.289,-0.219,-0.1646,-0.1411,-0.0471,0.0,0.0,0.0,0.0,0.0,0.0,0.0,-0.2569,-0.2022,-0.1521,-0.0457,0.0,0.0,0.0,0.0,0.0,0.0,0.0,0.0,0.0,0.0,0.0,0.0,0.0,0.0,0.0,0.0,0.0,0.0,0.0,0.0,0.0,0.0,0.9114,1.089,1.0397,0.9771,0.9204,0.7456,0.5952,0.4876,0.2334,0.0508,-0.0543,-0.2207,-0.3127,-0.3298,-0.3298,-0.3231,-0.3027,-0.2262,-0.1724,-0.1305,-0.0616,-0.0186,0.0,0.0,0.0,0.0,0.0,0.0,0.0,0.0,0.0667,0.1607,0.1607,0.1607,0.1607,0.1607,0.0863,0.0,0.0,0.0,0.0,0.0,0.0,0.0,0.0,0.0,0.0,0.0,0.0,0.0,0.0,0.0,0.0,0.0,0.0,0.0,0.0,0.0,0.0,0.0,0.0,0.0,0.0,0.0,0.0,0.0,0.0,0.0,0.0,0.0,-0.0471,-0.1528,-0.2347,-0.2542,-0.1919,-0.2462,-0.2034,-0.0353,-0.0118,0.0,0.0,0.0,0.0,0.0,0.0,0.0,-0.0556,-0.0106,0.0188,0.1008,0.0,0.0,0.0,0.0,0.0,0.0,0.0,0.0,0.0,0.0,0.0,0.0,0.0,0.0,0.0,0.0,0.0,0.0,0.0,0.0,0.0,0.0,0.8813,1.0665,1.0787,1.0329,0.9344,0.8059,0.6711,0.5358,0.3164,0.1368,0.0,-0.1338,-0.2242,-0.2711,-0.2238,-0.2006,-0.1976,-0.1052,-0.065,-0.0619,-0.0177,0.0,0.0,0.0,0.0,0.0,0.0,0.0,0.0,0.0,0.0667,0.1607,0.1607,0.1607,0.1607,0.1607,0.0863,0.0,0.0,0.0,0.0,0.0,0.0,0.0,0.0,0.0,0.0,0.0,0.0,0.0,0.0,0.0,0.0,0.0,0.0432,0.0628,0.0079,0.0,0.0,0.0,0.0,0.0,0.0,0.0,0.0,0.0,0.0,0.0,0.0,0.0,-0.0471,-0.1528,-0.2074,-0.2347,-0.2347,-0.2347,-0.1605,-0.0039,0.0,0.0,0.0,0.0,0.0,0.0,0.0,0.0,0.0,0.0,0.0,0.0,0.0,0.1533,0.0,0.0,0.0,0.0221,0.0,0.0,0.0,0.0,0.0,0.0,0.0,0.0,0.0,0.0,0.0,0.0,0.0,0.0,0.0,0.0,0.8598,1.0312,1.1074,1.0878,0.9515,0.8522,0.733,0.5851,0.3969,0.2239,0.0801,-0.01,-0.0903,-0.1637,-0.09,-0.0534,-0.0502,0.0,0.0234,0.0236,0.0069,0.0,0.0,0.0,0.0,0.0,0.0,0.0,0.0,0.0,0.0662,0.1634,0.1829,0.1757,0.1646,0.1841,0.1019,0.0,0.0,0.0,0.0,0.0,0.0,0.0,0.0,0.0,0.0,0.0,0.0,0.0,0.0,0.0157,0.0314,0.0314,0.1175,0.1488,0.0235,0.0157,0.0236,0.0039,0.0,0.0,0.0,0.0,0.0,0.0,0.0,0.0,0.0,0.0,-0.0471,-0.1528,-0.1607,-0.1957,-0.2771,-0.184,-0.0902,0.0,0.0,0.0,0.0,0.0,0.0,0.0,0.0,0.0,0.0,0.0,0.0,0.0,0.3254,0.0,0.0,0.0,0.0965,0.0967,0.0,0.0,0.0,0.0,0.0,0.0,0.0,0.0,0.0,0.0,0.0,0.0,0.0,0.0,0.0,0.0,0.0,0.975,1.011,1.0221,1.0015,0.8747,0.7897,0.7697,0.5196,0.3747,0.3544,0.2676,0.2207,0.2072,0.2206,0.2241,0.2207,0.1473,0.1139,0.1106,0.0338,0.0,0.0,0.0,0.0,0.0,0.0,0.0,0.0,0.0,0.0684,0.1745,0.2616,0.2345,0.1762,0.2657,0.1604,0.0,0.0,0.0,0.0,0.0,0.0,0.0,0.0,0.0,0.0,0.0,0.0,0.0,0.0,0.0744,0.1407,0.1407,0.2223,0.2301,0.0353,0.0784,0.1097,0.0157,0.0,0.0,0.0,0.0,0.0,0.0,0.0,0.0,0.0,0.0,-0.0471,-0.1528,-0.1607,-0.1644,-0.1759,-0.0745,-0.0118,0.0,0.0,0.0,0.0,0.0,0.0,0.0,0.0,0.0,0.0,0.0,0.0,0.0,0.0,0.0,0.0,0.0,0.1113,0.0,0.0,0.0,0.0,0.0,0.0,0.0,0.0,0.0,0.0,0.0,0.0,0.0,0.0,0.0,0.0,0.0,0.0,0.0,0.0,0.994,1.0077,0.8564,0.7793,0.7989,0.5397,0.4015,0.4015,0.3145,0.2711,0.2711,0.3211,0.3178,0.2678,0.2277,0.1809,0.124,0.037,0.0,0.0,0.0,0.0,0.0,0.0,0.0,0.0,0.0,0.0296,0.0741,0.1165,0.1027,0.0731,0.1169,0.0706,0.0,0.0,0.0,0.0,0.0,0.0,0.0,0.0,0.0,0.0,0.0,0.0,0.0157,0.0784,0.1292,0.1759,0.2343,0.3317,0.3552,0.2075,0.2192,0.2112,0.1096,0.1409,0.137,0.0157,0.0549,0.0706,0.0079,0.0,0.0,0.0,0.0,-0.0196,-0.0628,-0.0667,-0.0667,-0.0666,-0.0235,0.0,0.0,0.0,0.0,0.0,0.0,0.0,0.0,0.0,0.0,0.4567,0.0,0.0,0.0,0.0,0.0,0.0,0.0,0.0,0.0,0.0,0.0,0.0,0.0,0.0,0.0,0.0,0.0,0.0,0.0,0.0,0.0,0.0,0.0,0.0,0.0,0.0,0.0,0.0,0.0,0.9837,0.8365,0.761,0.7866,0.561,0.4384,0.4384,0.3747,0.3447,0.3447,0.4084,0.4048,0.3447,0.3178,0.2544,0.1641,0.0739,0.0236,0.0,0.0,0.0,0.0,0.0,0.0,0.0,0.0,0.0,0.0036,0.0331,0.0449,0.038,0.0078,0.0,0.0,0.0,0.0,0.0,0.0,0.0,0.0,0.0,0.0,0.0079,0.0353,0.0431,0.0745,0.18,0.2228,0.2655,0.3396,0.4414,0.4885,0.4107,0.375,0.3202,0.2147,0.2617,0.254,0.1058,0.1293,0.1293,0.051,0.0157,0.0,0.0,0.0,0.0,0.0,0.0275,0.0314,0.0,0.0275,0.0314,0.0,0.0,0.0,0.0,0.0,0.0,0.0,0.0,0.0,0.0,0.0,0.0,0.4528,0.0,0.0,0.0,0.0,0.2174,0.0,0.0,0.0,0.0,0.0,0.0,0.0,0.0,0.0,0.0,0.0,0.0,0.0,0.0,0.0,0.0,0.0,0.0,0.0,0.0,0.0,0.9182,0.8115,0.7504,0.7514,0.612,0.5359,0.5359,0.5329,0.5329,0.5329,0.5326,0.5326,0.5292,0.4384,0.348,0.2611,0.1675,0.0772,0.0,0.0,0.0,0.0,0.0,0.0,0.0,0.0,0.0,0.0141,0.1192,0.1558,0.1366,0.0351,0.0,0.0,0.0,0.0,0.0,0.0,0.0,0.0,0.0,0.0,0.0275,0.1291,0.1566,0.184,0.2845,0.3861,0.4608,0.4647,0.5512,0.6219,0.6222,0.5354,0.4292,0.3195,0.3086,0.3091,0.3007,0.219,0.1568,0.1568,0.0628,0.0,0.0,0.0,0.0,0.0,0.0979,0.1096,0.0039,0.0979,0.1057,0.0039,0.0,0.0,0.0,0.0,0.0,0.0,0.0,0.0,0.0,0.0,0.4653,0.4528,0.0,0.0,0.0,0.0,0.0,0.0,0.0,0.0,0.0,0.0,0.0,0.0,0.0,0.0,0.0,0.0,0.0,0.0,0.0,0.0,0.0,0.0,0.0,0.0,0.0,0.0,0.0,0.7857,0.7195,0.737,0.5974,0.5209,0.5209,0.5344,0.5395,0.5395,0.5395,0.5395,0.5362,0.4417,0.3846,0.3513,0.2609,0.2043,0.1777,0.1777,0.1409,0.0873,0.0873,0.0504,0.0,0.0,0.0,0.0069,0.0418,0.0538,0.048,0.0112,0.0,0.0,0.0,0.0,0.0,0.0,0.0,0.0,0.0,0.051,0.1137,0.1528,0.2112,0.2891,0.3941,0.445,0.4921,0.5628,0.6064,0.63,0.63,0.5983,0.5389,0.4324,0.4761,0.4455,0.2382,0.2384,0.2073,0.0706,0.0236,0.0,0.0,0.0,0.0314,0.1017,0.1409,0.1721,0.203,0.176,0.141,0.1058,0.0353,0.0,0.0,0.0,0.0,0.0,0.0,0.0,0.4976,0.4755,0.0,0.0,0.4923,0.0,0.5199,0.0,0.0,0.0,0.0,0.0,0.0,0.0,0.0,0.0,0.0,0.0,0.0,0.0,0.0,0.0,0.0,0.0,0.0,0.0,0.3471,0.4984,0.0,0.0,0.0,0.0,0.6855,0.6759,0.5643,0.5022,0.5022,0.5203,0.5281,0.5281,0.5368,0.5395,0.5395,0.4788,0.4317,0.3982,0.3413,0.2978,0.2711,0.2711,0.2344,0.1808,0.1808,0.1442,0.0874,0.0236,0.0,0.0,0.0,0.0252,0.0584,0.0558,0.0567,0.0575,0.0575,0.031,0.0,0.0,0.0,0.0,0.0,0.0784,0.1685,0.2035,0.293,0.3945,0.504,0.5276,0.5473,0.618,0.63,0.63,0.63,0.63,0.606,0.5384,0.586,0.555,0.3515,0.3515,0.3007,0.1292,0.0784,0.0588,0.0588,0.0588,0.1019,0.207,0.2501,0.2813,0.308,0.2852,0.2504,0.2152,0.1097,0.0588,0.0549,0.0196,0.0,0.0,0.0,0.0]}]]